[[{"header":{"parameterUnit":"m.s-1","parameterCategory":1,"la1":30.6,"la2":29.2853,"lo1":-89.7004,"lo2":-87.6739,"dy":0.0162,"dx":0.0183,"nx":112,"ny":82,"refTime":"2024-06-18T12:00:00:Z","depth":0,"parameterNumber":2,"parameterNumberName":"U-component_of_WINDS"},"data":[0.0,0.0,0.0,0.0,0.0,0.0,0.0,0.0,0.0,0.0,0.0,0.0,0.0,0.0,0.0,0.0,0.0,0.0,0.0,0.0,0.0,0.0,0.0,0.0,0.0,0.0,0.0,0.0,0.0,0.0,0.0,0.0,0.0,0.0,0.0,0.0,0.0,0.0,0.0,0.0,0.0,0.0,0.0,0.0,0.0,0.0,0.0,0.0,0.0,0.0,0.0,0.0,0.0,0.0,0.0,0.0,0.0,0.0,0.0,0.0,0.0,0.0,0.0,0.0,0.0,0.0,0.0,0.0,0.0,0.0,0.0,0.0,0.0,0.0,0.0,0.0,0.0,0.0,0.0,0.0,0.0,0.0,0.0,0.0,0.0,0.0,0.0,0.0,0.0,0.0,-2.5879,-2.6653,-2.7657,-2.8232,-2.8192,-2.8138,-2.7175,-2.4866,0.0,0.0,0.0,0.0,0.0,0.0,0.0,0.0,0.0,0.0,0.0,0.0,0.0,0.0,0.0,0.0,0.0,0.0,0.0,0.0,0.0,0.0,0.0,0.0,0.0,0.0,0.0,0.0,0.0,0.0,0.0,0.0,0.0,0.0,0.0,0.0,0.0,0.0,0.0,0.0,0.0,0.0,0.0,0.0,0.0,0.0,0.0,0.0,0.0,0.0,0.0,0.0,0.0,0.0,0.0,0.0,0.0,0.0,0.0,0.0,0.0,0.0,0.0,0.0,0.0,0.0,0.0,0.0,0.0,0.0,0.0,0.0,0.0,0.0,0.0,0.0,0.0,0.0,0.0,0.0,0.0,0.0,0.0,0.0,0.0,0.0,0.0,0.0,0.0,0.0,0.0,0.0,0.0,0.0,0.0,0.0,0.0,0.0,0.0,0.0,0.0,0.0,0.0,0.0,-2.6546,-2.8096,-2.843,-2.843,-2.8205,-2.7951,-2.7081,-2.5478,0.0,0.0,0.0,0.0,0.0,0.0,0.0,0.0,0.0,0.0,0.0,0.0,0.0,0.0,0.0,0.0,0.0,0.0,0.0,0.0,0.0,0.0,0.0,0.0,0.0,0.0,0.0,0.0,0.0,0.0,0.0,0.0,0.0,0.0,0.0,0.0,0.0,0.0,0.0,0.0,0.0,0.0,0.0,0.0,0.0,0.0,0.0,0.0,0.0,0.0,0.0,0.0,0.0,0.0,0.0,0.0,0.0,0.0,0.0,0.0,0.0,0.0,0.0,0.0,0.0,0.0,0.0,0.0,0.0,0.0,0.0,0.0,0.0,0.0,0.0,0.0,0.0,0.0,0.0,0.0,0.0,0.0,0.0,0.0,0.0,0.0,0.0,0.0,0.0,0.0,0.0,0.0,0.0,0.0,0.0,0.0,0.0,0.0,0.0,0.0,0.0,0.0,0.0,-2.6011,-2.6867,-2.8615,-2.8551,-2.8406,-2.839,-2.8152,-2.7108,-2.5119,-2.4746,0.0,0.0,0.0,0.0,0.0,0.0,0.0,0.0,0.0,0.0,0.0,0.0,0.0,0.0,0.0,0.0,0.0,0.0,0.0,0.0,0.0,0.0,0.0,0.0,0.0,0.0,0.0,0.0,0.0,0.0,0.0,0.0,0.0,0.0,0.0,0.0,0.0,0.0,0.0,0.0,0.0,0.0,0.0,0.0,0.0,0.0,0.0,0.0,0.0,0.0,0.0,0.0,0.0,0.0,0.0,0.0,0.0,0.0,0.0,0.0,0.0,0.0,0.0,0.0,0.0,0.0,0.0,0.0,0.0,0.0,0.0,0.0,0.0,0.0,0.0,0.0,0.0,0.0,0.0,0.0,0.0,0.0,0.0,0.0,0.0,0.0,0.0,0.0,0.0,0.0,0.0,0.0,0.0,0.0,0.0,0.0,0.0,0.0,0.0,0.0,0.0,0.0,-2.7028,-2.7535,-2.8855,-2.8631,-2.8433,-2.8484,-2.8072,-2.6921,-2.4863,-2.4372,0.0,0.0,0.0,0.0,0.0,0.0,0.0,0.0,0.0,0.0,0.0,0.0,0.0,0.0,0.0,0.0,0.0,0.0,0.0,0.0,0.0,0.0,0.0,0.0,0.0,0.0,0.0,0.0,0.0,0.0,0.0,0.0,0.0,0.0,0.0,0.0,0.0,0.0,0.0,0.0,0.0,0.0,0.0,0.0,0.0,0.0,0.0,0.0,0.0,0.0,0.0,0.0,0.0,0.0,0.0,0.0,0.0,0.0,0.0,0.0,0.0,0.0,0.0,0.0,0.0,0.0,0.0,0.0,0.0,0.0,0.0,0.0,0.0,0.0,0.0,0.0,0.0,0.0,0.0,0.0,0.0,0.0,0.0,0.0,0.0,0.0,0.0,0.0,0.0,0.0,0.0,0.0,0.0,0.0,0.0,0.0,0.0,0.0,0.0,0.0,0.0,0.0,-2.7856,-2.8855,-2.8988,-2.8961,-2.8764,-2.8259,-2.7188,-2.6092,-2.5117,-2.379,0.0,0.0,0.0,0.0,0.0,0.0,0.0,0.0,0.0,0.0,0.0,0.0,0.0,0.0,0.0,0.0,0.0,0.0,0.0,0.0,0.0,0.0,0.0,0.0,0.0,0.0,0.0,0.0,0.0,0.0,0.0,0.0,0.0,0.0,0.0,0.0,0.0,0.0,0.0,0.0,0.0,0.0,0.0,0.0,0.0,0.0,0.0,0.0,0.0,0.0,0.0,0.0,0.0,0.0,0.0,0.0,0.0,0.0,0.0,0.0,0.0,0.0,0.0,0.0,0.0,0.0,0.0,0.0,0.0,0.0,0.0,0.0,0.0,0.0,0.0,0.0,0.0,0.0,0.0,0.0,0.0,0.0,0.0,0.0,0.0,0.0,0.0,0.0,0.0,0.0,0.0,0.0,0.0,0.0,0.0,0.0,0.0,0.0,0.0,0.0,0.0,0.0,-2.7295,-2.8364,-2.9472,-2.9055,-2.8751,-2.8711,-2.654,-2.5086,-2.4829,0.0,0.0,0.0,0.0,0.0,0.0,0.0,0.0,0.0,0.0,0.0,0.0,0.0,0.0,0.0,0.0,0.0,0.0,0.0,0.0,0.0,0.0,0.0,0.0,0.0,0.0,0.0,0.0,0.0,0.0,0.0,0.0,0.0,0.0,0.0,0.0,0.0,0.0,0.0,0.0,0.0,0.0,0.0,0.0,0.0,0.0,0.0,0.0,0.0,0.0,0.0,0.0,0.0,0.0,0.0,0.0,0.0,0.0,0.0,0.0,0.0,0.0,0.0,0.0,0.0,0.0,0.0,0.0,0.0,0.0,0.0,0.0,0.0,0.0,0.0,0.0,0.0,0.0,0.0,0.0,0.0,0.0,0.0,0.0,0.0,0.0,0.0,0.0,0.0,0.0,0.0,0.0,0.0,0.0,0.0,0.0,0.0,0.0,0.0,0.0,0.0,0.0,-2.6253,-2.7362,-2.843,-2.9646,-2.9245,-2.8885,-2.8855,-2.5885,-2.4206,-2.4595,0.0,0.0,0.0,0.0,0.0,0.0,0.0,0.0,0.0,0.0,0.0,0.0,0.0,0.0,0.0,0.0,0.0,0.0,0.0,0.0,0.0,0.0,0.0,0.0,0.0,0.0,0.0,0.0,0.0,0.0,0.0,0.0,0.0,0.0,0.0,0.0,0.0,0.0,0.0,0.0,0.0,0.0,0.0,0.0,0.0,0.0,0.0,0.0,0.0,0.0,0.0,0.0,0.0,0.0,0.0,0.0,0.0,0.0,0.0,0.0,0.0,0.0,0.0,0.0,0.0,0.0,0.0,0.0,0.0,0.0,0.0,0.0,0.0,0.0,0.0,0.0,0.0,0.0,0.0,0.0,0.0,0.0,0.0,0.0,0.0,0.0,0.0,0.0,0.0,0.0,0.0,0.0,0.0,0.0,0.0,0.0,0.0,0.0,0.0,0.0,0.0,0.0,-2.636,-2.8203,-2.9486,-2.9499,-2.9486,-2.9259,-2.8671,-2.5248,-2.3553,0.0,0.0,0.0,0.0,0.0,0.0,0.0,0.0,0.0,0.0,0.0,0.0,0.0,0.0,0.0,0.0,0.0,0.0,0.0,0.0,0.0,0.0,0.0,0.0,0.0,0.0,0.0,0.0,0.0,0.0,0.0,0.0,0.0,0.0,0.0,0.0,0.0,0.0,0.0,0.0,0.0,0.0,0.0,0.0,0.0,0.0,0.0,0.0,0.0,0.0,0.0,0.0,0.0,0.0,0.0,0.0,0.0,0.0,0.0,0.0,0.0,0.0,0.0,0.0,0.0,0.0,0.0,0.0,0.0,0.0,0.0,0.0,0.0,0.0,0.0,0.0,0.0,0.0,0.0,0.0,0.0,0.0,0.0,0.0,0.0,0.0,0.0,0.0,0.0,0.0,0.0,0.0,0.0,0.0,0.0,0.0,0.0,0.0,0.0,0.0,0.0,0.0,0.0,-2.6934,-2.8631,-2.9873,-3.0119,-2.9913,-2.9633,-2.9259,-2.6238,-2.4042,-2.331,0.0,0.0,0.0,0.0,0.0,0.0,0.0,0.0,0.0,0.0,0.0,0.0,0.0,0.0,0.0,0.0,0.0,0.0,0.0,0.0,0.0,0.0,0.0,0.0,0.0,0.0,0.0,0.0,0.0,0.0,0.0,0.0,0.0,0.0,0.0,0.0,0.0,0.0,0.0,0.0,0.0,0.0,0.0,0.0,0.0,0.0,0.0,0.0,0.0,0.0,0.0,0.0,0.0,0.0,0.0,0.0,0.0,0.0,0.0,0.0,0.0,0.0,0.0,0.0,0.0,0.0,0.0,0.0,0.0,0.0,0.0,0.0,0.0,0.0,0.0,0.0,0.0,0.0,0.0,0.0,0.0,0.0,0.0,0.0,0.0,0.0,0.0,0.0,0.0,0.0,0.0,0.0,0.0,0.0,0.0,0.0,0.0,0.0,0.0,0.0,0.0,0.0,-2.7188,-2.8925,-3.0207,-3.0547,-3.0368,-3.01,-2.9686,-2.6972,-2.4573,-2.2885,0.0,0.0,0.0,0.0,0.0,0.0,0.0,0.0,0.0,0.0,0.0,0.0,0.0,0.0,0.0,0.0,0.0,0.0,0.0,0.0,0.0,0.0,0.0,0.0,0.0,0.0,0.0,0.0,0.0,0.0,0.0,0.0,0.0,0.0,0.0,0.0,0.0,0.0,0.0,0.0,0.0,0.0,0.0,0.0,0.0,0.0,0.0,0.0,0.0,0.0,0.0,0.0,0.0,0.0,0.0,0.0,0.0,0.0,0.0,0.0,0.0,0.0,0.0,0.0,0.0,0.0,0.0,0.0,0.0,0.0,0.0,0.0,0.0,0.0,0.0,0.0,0.0,0.0,0.0,0.0,0.0,0.0,0.0,0.0,0.0,0.0,0.0,0.0,0.0,0.0,0.0,0.0,0.0,0.0,0.0,0.0,0.0,0.0,0.0,0.0,0.0,0.0,-2.7349,-2.9195,-3.056,-3.0808,-3.0835,-3.0608,-3.0047,-2.7636,-2.5213,-2.2955,0.0,0.0,0.0,0.0,0.0,0.0,0.0,0.0,0.0,0.0,0.0,0.0,0.0,0.0,0.0,0.0,0.0,0.0,0.0,0.0,0.0,0.0,0.0,0.0,0.0,0.0,0.0,0.0,0.0,0.0,0.0,0.0,0.0,0.0,0.0,0.0,0.0,0.0,0.0,0.0,0.0,0.0,0.0,0.0,0.0,0.0,0.0,0.0,0.0,0.0,0.0,0.0,0.0,0.0,0.0,0.0,0.0,0.0,0.0,0.0,-1.4508,-1.5359,0.0,0.0,0.0,0.0,0.0,0.0,0.0,0.0,0.0,0.0,0.0,0.0,0.0,0.0,0.0,0.0,0.0,0.0,0.0,0.0,0.0,0.0,0.0,0.0,0.0,0.0,0.0,0.0,0.0,0.0,0.0,0.0,0.0,0.0,0.0,0.0,0.0,0.0,0.0,0.0,-2.815,-2.9713,-3.0808,-3.1102,-3.1129,-3.0996,-3.0635,-2.9641,-2.7071,-2.2415,-2.2001,0.0,0.0,0.0,0.0,0.0,0.0,0.0,0.0,0.0,0.0,0.0,0.0,0.0,0.0,0.0,0.0,0.0,0.0,0.0,0.0,0.0,0.0,0.0,0.0,0.0,0.0,0.0,0.0,0.0,0.0,0.0,0.0,0.0,0.0,0.0,0.0,0.0,0.0,0.0,0.0,0.0,0.0,0.0,0.0,0.0,0.0,0.0,0.0,0.0,0.0,0.0,0.0,0.0,0.0,0.0,0.0,0.0,0.0,0.0,-1.4491,-1.4831,0.0,0.0,0.0,0.0,0.0,0.0,0.0,0.0,0.0,0.0,0.0,0.0,0.0,0.0,0.0,0.0,0.0,0.0,0.0,0.0,0.0,0.0,0.0,0.0,0.0,0.0,0.0,0.0,0.0,0.0,0.0,0.0,0.0,0.0,0.0,0.0,0.0,0.0,0.0,0.0,-2.8472,-2.9105,-2.9875,-3.1282,-3.1557,-3.153,-3.1236,-2.953,-2.6704,-2.2587,-2.0991,0.0,0.0,0.0,0.0,0.0,0.0,0.0,0.0,0.0,0.0,0.0,0.0,0.0,0.0,0.0,0.0,0.0,0.0,0.0,0.0,0.0,0.0,0.0,0.0,0.0,0.0,0.0,0.0,0.0,0.0,0.0,0.0,0.0,0.0,0.0,0.0,0.0,0.0,0.0,0.0,0.0,0.0,0.0,0.0,0.0,0.0,0.0,0.0,0.0,0.0,0.0,0.0,0.0,-1.573,-1.5771,-1.5823,-1.5796,-1.5796,-1.579,-1.5242,-1.5133,-1.5228,-1.4835,0.0,0.0,0.0,0.0,0.0,0.0,0.0,0.0,0.0,0.0,0.0,0.0,0.0,0.0,0.0,0.0,0.0,0.0,0.0,0.0,0.0,0.0,-1.7562,-1.7259,-1.5912,-1.5347,-1.7734,0.0,0.0,0.0,0.0,0.0,0.0,0.0,0.0,0.0,0.0,0.0,-2.7435,-2.7806,-2.8668,-3.0812,-3.1273,-3.1299,-3.1059,-2.8089,-2.5122,-2.2389,-1.9252,-1.6195,0.0,0.0,0.0,0.0,0.0,0.0,0.0,0.0,0.0,0.0,0.0,0.0,0.0,0.0,0.0,0.0,0.0,0.0,0.0,0.0,0.0,0.0,0.0,0.0,0.0,0.0,0.0,0.0,0.0,0.0,0.0,0.0,-1.438,-1.4525,0.0,0.0,0.0,0.0,0.0,0.0,0.0,0.0,0.0,0.0,0.0,0.0,0.0,-1.5995,-1.5995,-1.6331,-1.6405,-1.6225,-1.672,-1.6904,-1.6802,-1.6615,-1.6621,-1.6781,-1.6435,0.0,-1.5512,-1.5371,0.0,0.0,0.0,0.0,0.0,0.0,0.0,0.0,0.0,0.0,0.0,0.0,0.0,0.0,0.0,0.0,0.0,0.0,0.0,0.0,0.0,0.0,-1.8508,-1.6352,-1.5664,-1.5554,-1.5946,-1.6282,-1.6498,-1.6397,-1.7597,-1.8514,0.0,0.0,0.0,0.0,0.0,0.0,-2.3077,-2.5987,-2.8097,-2.8437,-2.8619,-2.8595,-2.8332,-2.5567,-2.2755,-2.0087,-1.8866,-1.6881,-1.3834,-1.3159,0.0,0.0,0.0,0.0,0.0,0.0,0.0,0.0,0.0,0.0,0.0,0.0,0.0,0.0,0.0,0.0,0.0,0.0,0.0,0.0,0.0,0.0,0.0,0.0,0.0,0.0,0.0,0.0,0.0,-1.4455,-1.4821,-1.497,-1.5065,-1.5031,0.0,0.0,0.0,0.0,0.0,0.0,0.0,0.0,0.0,-1.6598,-1.6754,-1.6876,-1.6965,-1.7236,-1.7311,-1.7188,-1.7534,-1.767,-1.7602,-1.7534,-1.7541,-1.7589,-1.7283,-1.6905,-1.6598,-1.6022,-1.5791,-1.5757,0.0,0.0,0.0,0.0,-1.5201,-1.5222,-1.5438,-1.5452,-1.5377,-1.5255,0.0,0.0,0.0,0.0,0.0,0.0,0.0,-1.7571,-1.6823,-1.7009,-1.7149,-1.6214,-1.5965,-1.5965,-1.5965,-1.6014,-1.5897,-1.544,-1.5925,-1.6273,-1.5875,-1.6938,0.0,0.0,0.0,-2.041,-2.2525,-2.3532,-2.4487,-2.5661,-2.6004,-2.6043,-2.5853,-2.3169,-2.108,-2.009,-1.8026,-1.6146,-1.4656,-1.3946,-1.3309,0.0,0.0,0.0,0.0,0.0,0.0,0.0,0.0,0.0,0.0,0.0,0.0,0.0,0.0,0.0,0.0,0.0,0.0,0.0,0.0,0.0,0.0,0.0,0.0,0.0,0.0,0.0,0.0,-1.5004,-1.5296,-1.5398,-1.5581,-1.5588,0.0,0.0,0.0,0.0,0.0,0.0,-1.673,-1.6917,-1.7148,-1.7521,-1.7684,-1.7826,-1.7935,-1.8036,-1.8147,-1.8147,-1.8213,-1.8287,-1.8321,-1.8287,-1.8247,-1.8179,-1.7894,-1.7595,-1.7412,-1.6592,-1.6252,-1.6225,-1.5877,-1.5763,-1.5763,-1.5763,-1.5763,-1.5796,-1.6103,-1.6191,-1.6151,-1.5893,-1.571,-1.5452,-1.4785,0.0,0.0,0.0,0.0,-1.5425,-1.573,-1.592,-1.609,-1.6361,-1.6422,-1.6422,-1.6422,-1.6212,-1.5825,-1.5153,-1.4951,-1.4755,-1.4228,-1.5506,0.0,-1.7093,-1.7489,-1.8623,-2.1105,-2.1164,-2.153,-2.3031,-2.3379,-2.345,-2.3286,-2.0623,-1.9116,-1.9303,-1.7015,-1.5554,-1.5255,-1.4683,-1.4,-1.3356,0.0,0.0,0.0,0.0,0.0,0.0,0.0,0.0,0.0,0.0,0.0,0.0,0.0,0.0,0.0,0.0,0.0,0.0,0.0,0.0,0.0,0.0,0.0,0.0,0.0,0.0,0.0,0.0,0.0,-1.6015,-1.6293,0.0,0.0,0.0,0.0,-1.6266,-1.6673,-1.7114,-1.7514,-1.7947,-1.8301,-1.8407,-1.862,-1.8752,-1.8766,-1.8766,-1.8766,-1.8766,-1.8786,-1.8854,-1.8938,-1.8796,-1.8654,-1.844,-1.8199,-1.7894,-1.7534,-1.6919,-1.6662,-1.6635,-1.6388,-1.6279,-1.6279,-1.6279,-1.6279,-1.63,-1.6449,-1.6497,-1.6544,-1.6815,-1.6517,-1.6015,-1.5867,-1.5574,0.0,0.0,-1.586,-1.5942,-1.6198,-1.6381,-1.653,-1.6635,-1.6675,-1.6675,-1.6675,-1.6554,-1.6347,-1.5935,-1.5689,-1.5445,-1.5167,0.0,-1.5595,-1.5362,-1.5917,-1.646,-1.6632,-1.9273,-2.101,-2.0798,-2.0782,-2.0712,-2.0424,-1.7889,-1.6282,-1.6338,-1.6032,-1.5758,-1.5411,-1.5092,-1.4577,-1.3781,-1.3227,0.0,0.0,0.0,0.0,0.0,0.0,0.0,0.0,0.0,0.0,0.0,0.0,0.0,0.0,0.0,0.0,0.0,0.0,0.0,0.0,0.0,0.0,0.0,0.0,0.0,0.0,0.0,0.0,-1.6632,-1.6917,0.0,-1.6757,-1.6883,-1.7046,-1.729,-1.7548,-1.7894,-1.8342,-1.8599,-1.8816,-1.8952,-1.9006,-1.9047,-1.9047,-1.9047,-1.9094,-1.9183,-1.9183,-1.9271,-1.9413,-1.9257,-1.9169,-1.9035,-1.8694,-1.8355,-1.8001,-1.7629,-1.7297,-1.7026,-1.6917,-1.6876,-1.689,-1.6992,-1.7026,-1.7019,-1.6971,-1.6951,-1.6937,-1.6856,-1.6558,-1.6239,-1.6273,-1.6144,-1.6029,-1.6225,-1.6286,-1.6334,-1.6486,-1.6581,-1.6655,-1.6863,-1.6897,-1.6897,-1.6897,-1.6856,-1.6768,-1.6663,-1.6307,-1.6001,-1.5798,-1.5852,-1.5886,-1.5778,-1.6151,-1.6483,-1.6527,-1.7692,-1.8358,-1.8137,-1.8026,-1.7915,-1.771,-1.6707,-1.6083,-1.6083,-1.599,-1.5813,-1.5519,-1.5181,-1.4753,-1.4278,-1.3688,-1.3071,0.0,0.0,0.0,0.0,0.0,0.0,0.0,0.0,0.0,0.0,0.0,0.0,0.0,0.0,0.0,0.0,0.0,0.0,0.0,0.0,0.0,0.0,0.0,0.0,0.0,-1.6402,-1.6863,-1.7168,-1.7555,-1.7758,-1.765,-1.7738,-1.788,-1.8077,-1.8287,-1.8565,-1.8972,-1.9183,-1.9359,-1.9501,-1.9501,-1.9501,-1.9501,-1.9501,-1.9556,-1.9657,-1.9657,-1.9712,-1.98,-1.9698,-1.9624,-1.9556,-1.9169,-1.8816,-1.8511,-1.8165,-1.7812,-1.748,-1.7331,-1.7358,-1.7494,-1.7494,-1.7528,-1.7541,-1.7338,-1.727,-1.7236,-1.6986,-1.6842,-1.6693,-1.6734,-1.668,-1.6619,-1.6666,-1.668,-1.67,-1.6802,-1.6777,-1.6849,-1.6958,-1.6978,-1.6992,-1.7039,-1.7012,-1.7012,-1.7107,-1.6809,-1.649,-1.6334,-1.6354,-1.6368,-1.6313,-1.6517,-1.6714,-1.6815,-1.6917,-1.6944,-1.6836,-1.6642,-1.6486,-1.6395,-1.6198,-1.6083,-1.6083,-1.599,-1.5791,-1.5593,-1.5303,-1.495,-1.4552,-1.3916,-1.3288,-1.2725,0.0,0.0,0.0,0.0,0.0,0.0,0.0,0.0,0.0,0.0,0.0,0.0,0.0,0.0,0.0,0.0,0.0,0.0,0.0,0.0,0.0,0.0,0.0,-1.6537,-1.6924,-1.7324,-1.7575,-1.8136,-1.8443,-1.8158,-1.8389,-1.8508,-1.8508,-1.885,-1.9149,-1.9374,-1.9712,-1.9942,-2.0098,-2.0098,-2.0098,-2.0098,-2.0098,-2.0098,-2.0098,-2.0098,-2.0098,-2.0098,-2.0098,-2.001,-1.9916,-1.9569,-1.9271,-1.8972,-1.8531,-1.8247,-1.8077,-1.7616,-1.7704,-1.8057,-1.7717,-1.7758,-1.7826,-1.7528,-1.7426,-1.7426,-1.7419,-1.7419,-1.7392,-1.7236,-1.7188,-1.7154,-1.7019,-1.6978,-1.6978,-1.6978,-1.6985,-1.6985,-1.6985,-1.6992,-1.7032,-1.7168,-1.7093,-1.708,-1.7365,-1.7188,-1.6937,-1.6736,-1.6883,-1.6931,-1.673,-1.6883,0.0,-1.6978,-1.6978,-1.6978,-1.6978,-1.6842,-1.6635,-1.6537,-1.6259,-1.609,-1.6083,-1.5983,-1.5784,-1.5593,-1.5486,-1.5194,-1.4708,-1.3977,-1.3498,-1.3254,0.0,0.0,0.0,0.0,0.0,0.0,0.0,0.0,0.0,0.0,0.0,0.0,0.0,0.0,0.0,0.0,0.0,0.0,0.0,0.0,0.0,-1.6659,-1.6971,-1.687,-1.7331,-1.7826,-1.8233,-1.864,-1.8864,-1.8905,-1.9169,-1.9305,-1.9183,-1.9468,-1.9664,-1.9746,-1.9922,-2.0064,-2.0098,-2.0098,-2.0098,-2.0098,-2.0098,-2.0153,-2.0261,-2.0153,-2.0153,-2.0261,-2.0153,-2.0085,-2.0031,-1.9834,-1.959,-1.9291,-1.9061,-1.8864,-1.8694,-1.8124,-1.7989,-1.8091,-1.8124,-1.8023,-1.7846,-1.765,-1.7534,-1.7514,-1.7406,-1.7419,-1.7392,-1.7236,-1.7121,-1.7032,-1.6992,-1.6978,-1.6978,-1.6978,-1.706,-1.7134,-1.7134,-1.7216,-1.7311,-1.7351,-1.7324,-1.7324,-1.7405,-1.7263,-1.7121,-1.708,-1.7019,-1.6965,-1.6924,-1.6951,-1.6978,-1.6978,-1.6978,-1.6978,-1.6978,-1.6842,-1.6682,-1.6635,-1.6415,-1.6198,-1.609,-1.5839,-1.5683,-1.5593,-1.5384,-1.514,-1.4909,-1.4278,-1.4014,0.0,0.0,0.0,0.0,0.0,0.0,0.0,0.0,0.0,0.0,0.0,0.0,0.0,0.0,0.0,0.0,0.0,0.0,0.0,0.0,0.0,0.0,-1.7331,-1.7684,-1.7779,-1.7968,-1.8335,-1.885,-1.9128,-1.9359,-1.9556,-1.9746,-1.98,-1.9712,-1.9922,-2.0064,-2.0064,-2.0261,-2.0383,-2.0383,-2.0438,-2.0471,-2.0471,-2.0471,-2.0526,-2.0614,-2.0451,-2.0438,-2.0505,-2.0349,-2.0275,-2.0275,-2.0139,-1.9922,-1.9698,-1.9556,-1.94,-1.9217,0.0,0.0,0.0,0.0,-1.8321,-1.8036,-1.788,-1.7826,-1.7826,-1.7738,-1.7704,-1.767,-1.7446,-1.7283,-1.7154,-1.7087,-1.7066,-1.7087,-1.7148,-1.7222,-1.729,-1.729,-1.7405,-1.746,-1.746,-1.746,-1.7534,-1.7595,-1.7433,0.0,-1.729,-1.7114,-1.6978,-1.6978,-1.6978,-1.6978,-1.6978,-1.6978,-1.6978,-1.6978,-1.6904,-1.677,-1.6702,-1.653,0.0,0.0,0.0,-1.5859,-1.5737,-1.5438,0.0,0.0,0.0,0.0,0.0,0.0,0.0,0.0,-1.7862,-1.8573,0.0,0.0,0.0,0.0,0.0,0.0,0.0,0.0,0.0,0.0,0.0,0.0,0.0,0.0,0.0,0.0,-1.8036,-1.8511,-1.8796,-1.8762,-1.8846,-1.9413,-1.9624,-1.982,-2.0098,-2.0153,-2.0187,-2.0207,-2.0349,-2.0374,-2.0374,-2.0702,0.0,0.0,0.0,-2.1021,-2.1001,-2.1001,-2.1001,-2.1001,-2.0858,-2.079,-2.077,-2.0627,-2.0496,-2.0476,-2.0397,-2.0261,-2.0119,-1.9976,-1.9902,-1.9664,-1.912,-1.8972,-1.9149,-1.8871,-1.8586,-1.8321,-1.8165,0.0,0.0,-1.8124,-1.8111,-1.8057,-1.7758,-1.7514,-1.7412,-1.7263,-1.7216,-1.7256,-1.7405,-1.746,-1.7473,-1.7494,-1.7554,-1.7663,-1.7663,-1.7663,-1.7758,-1.7901,-1.767,-1.7467,-1.7446,-1.7202,-1.6998,-1.6985,-1.6978,-1.6978,-1.6978,-1.6978,-1.6978,-1.6978,0.0,0.0,-1.6736,-1.6581,-1.6493,-1.6493,-1.6415,-1.6205,-1.5969,-1.5655,-1.5445,-1.5309,-1.5425,-1.556,-1.5668,-1.5981,-1.6123,-1.6144,-1.5459,-1.5493,0.0,0.0,0.0,0.0,0.0,0.0,0.0,0.0,0.0,0.0,0.0,0.0,0.0,0.0,0.0,-1.819,-1.8728,-1.9094,-1.9271,-1.959,-1.98,-1.9786,-1.9922,-2.0085,-2.0261,-2.0505,-2.0702,-2.0824,-2.0967,-2.1034,-2.1034,-2.1211,-2.1197,-2.0967,-2.1089,-2.1123,-2.1001,-2.1001,-2.1001,-2.1001,-2.0967,0.0,-2.077,-2.0736,-2.0668,-2.0476,-2.0442,-2.0417,-2.0275,-2.0261,-2.0153,-1.9963,-1.9481,-1.9183,-1.9006,-1.883,-1.864,-1.842,-1.8321,-1.8355,-1.8423,-1.8321,-1.8267,-1.8213,-1.7914,-1.7717,0.0,-1.7419,-1.7378,-1.7412,-1.7507,-1.7684,-1.7812,-1.7935,-1.807,-1.8143,-1.8143,-1.8143,-1.8199,-1.8233,-1.7989,-1.7738,-1.7568,-1.7351,-1.7114,-1.6998,-1.6978,-1.6978,-1.6978,-1.6978,-1.6978,-1.6978,-1.6978,-1.6971,-1.6937,-1.6795,-1.6655,-1.6655,-1.6564,-1.6402,-1.6232,-1.6164,-1.6123,-1.6096,-1.6001,-1.6029,-1.6178,-1.6239,-1.6388,-1.656,-1.6347,-1.6239,0.0,0.0,0.0,0.0,0.0,0.0,0.0,0.0,0.0,0.0,0.0,-1.7514,-1.8179,0.0,-1.8654,-1.904,-1.9413,-1.9712,-1.9854,-2.0261,-2.0471,-2.0241,-2.0417,-2.0614,-2.0756,-2.098,-2.1177,-2.1319,-2.1408,-2.1441,-2.1441,-2.1652,-2.1638,-2.1353,-2.155,-2.1584,-2.1441,-2.1441,-2.1441,-2.1441,-2.1374,-2.1245,-2.1109,-2.1034,-2.0912,-2.077,-2.0682,-2.0614,-2.0539,-2.0471,-2.0349,-2.0187,-1.9963,-1.9657,-1.9312,-1.9149,-1.8905,-1.8654,-1.8654,-1.8599,-1.8531,-1.8531,-1.8498,-1.8332,-1.8158,-1.7982,-1.786,-1.7772,-1.7758,-1.7792,-1.7893,-1.8036,-1.8111,-1.8179,-1.8375,-1.8511,-1.8443,-1.8477,-1.8511,-1.8443,-1.8179,-1.7935,-1.7772,-1.7568,-1.7317,-1.7026,-1.7039,-1.7087,-1.7087,-1.7087,-1.7114,-1.7188,-1.7134,-1.7121,-1.7195,-1.706,-1.6971,-1.6971,-1.6709,-1.6554,-1.6479,-1.6456,-1.6415,-1.6415,-1.6415,-1.6456,-1.6479,-1.6605,-1.672,-1.6863,-1.6863,-1.6781,0.0,0.0,0.0,0.0,0.0,0.0,0.0,-1.6612,-1.7087,-1.7784,-1.8213,-1.8606,-1.9291,-1.9413,-1.9535,-1.9875,-2.0139,-2.0363,-2.0462,-2.0933,-2.1143,-2.0912,-2.1034,-2.1197,-2.1333,-2.1475,-2.1631,-2.1794,-2.1828,-2.1848,-2.1848,-2.2093,-2.2113,-2.1815,-2.2059,-2.2113,-2.1937,-2.1937,-2.1916,-2.1882,-2.176,-2.1638,-2.1475,-2.1333,-2.1177,-2.1034,-2.0878,-2.0824,-2.0811,-2.0682,-2.0539,-2.0417,-2.0417,-2.0153,-1.9766,-1.959,-1.9257,-1.8905,-1.9027,-1.8905,-1.863,-1.8816,-1.8742,-1.8542,-1.8443,-1.8301,-1.8179,-1.8145,-1.8145,-1.8179,-1.8321,-1.8355,-1.8375,-1.8443,-1.864,-1.8841,-1.8728,-1.8776,-1.8816,-1.8687,-1.8423,-1.8165,-1.7948,-1.7792,-1.7548,-1.7127,-1.7161,-1.7236,-1.7236,-1.7236,-1.7283,-1.7405,-1.7311,-1.729,-1.7412,-1.7311,-1.7236,-1.7236,-1.7012,-1.6811,-1.6784,-1.6662,-1.6639,-1.6612,-1.6682,-1.6757,-1.6784,-1.6958,-1.7053,-1.7114,-1.7195,-1.7148,-1.4647,-1.5018,-1.5493,-1.6049,-1.6307,-1.6707,0.0,-1.8091,-1.8335,-1.9081,-1.9359,-1.9684,-2.0119,-2.0207,-2.0349,-2.079,-2.098,-2.1143,-2.1233,-2.1706,-2.2025,-2.2058,-2.1815,-2.1652,-2.1794,-2.195,-2.2093,-2.2249,-2.2378,-2.2515,-2.2515,-2.2622,-2.2567,-2.2269,-2.2411,-2.2378,-2.2093,-2.2093,-2.2025,-2.1882,-2.1862,-2.1774,-2.1638,-2.1496,-2.1267,-2.1177,-2.1034,-2.098,-2.0967,-2.0946,-2.0858,-2.0716,-2.0716,-2.0526,-2.0227,-1.9922,-1.9624,-1.9359,-1.9379,-1.9271,-1.9128,-1.9149,-1.9061,-1.8905,-1.8762,-1.8599,-1.8407,-1.8335,-1.8301,-1.8321,-1.842,-1.8454,-1.8528,-1.885,-1.8938,-1.9027,-1.9271,-1.9237,-1.9149,-1.9128,-1.8884,-1.8609,-1.8145,-1.7935,-1.7738,-1.7419,-1.7385,-1.7392,-1.7392,-1.7392,-1.7399,-1.7419,-1.7405,-1.7399,-1.7419,-1.7405,-1.7392,-1.7392,-1.7365,-1.7283,-1.7148,-1.7127,-1.706,-1.6931,-1.6944,-1.7019,-1.7141,-1.7161,-1.7311,-1.7514,-1.7453,-1.7249,-1.556,-1.5852,-1.6185,-1.6693,-1.7134,-1.7629,-1.8409,-1.885,-1.9291,-1.9881,-2.0275,-2.0539,-2.0912,-2.1055,-2.1177,-2.1353,-2.1584,-2.1794,-2.1869,-2.2269,-2.2554,-2.271,-2.2567,-2.2445,-2.2411,-2.2554,-2.2656,-2.273,-2.2866,-2.2907,-2.2818,-2.3042,-2.2995,-2.2608,-2.2744,-2.271,-2.25,-2.2411,-2.2344,-2.2338,-2.2181,-2.2072,-2.1916,-2.1774,-2.1509,-2.1211,-2.1143,-2.1068,-2.1001,-2.1001,-2.0912,-2.077,-2.077,-2.0648,-2.0374,-2.0227,-1.9942,-1.9698,-1.9698,-1.959,-1.9447,-1.9359,-1.9291,-1.9217,-1.9061,-1.8972,-1.8884,-1.8742,-1.8708,-1.8708,-1.8674,-1.8674,-1.8694,-1.883,-1.8993,-1.9169,-1.9379,-1.9379,-1.9359,-1.9447,-1.914,-1.8766,-1.8518,-1.8287,-1.8057,-1.7846,-1.767,-1.75,-1.75,-1.75,-1.7589,-1.767,-1.7758,-1.7806,-1.7806,-1.7724,-1.765,-1.7507,-1.7412,-1.7392,-1.7324,-1.7324,-1.7297,-1.7236,-1.7236,-1.7263,-1.7324,-1.7324,-1.7392,-1.746,-1.7487,-1.7385,-1.6239,-1.653,-1.6822,-1.7317,-1.7894,-1.8477,-1.9006,-1.9535,-2.0064,-2.0614,-2.0933,-2.1231,-2.1497,-2.1726,-2.1848,-2.2004,-2.2289,-2.2513,-2.2622,-2.2907,-2.3097,-2.313,-2.3097,-2.3029,-2.292,-2.2974,-2.3008,-2.3008,-2.3219,-2.3273,-2.3083,-2.3347,-2.3327,-2.292,-2.3008,-2.2995,-2.2852,-2.273,-2.2656,-2.2678,-2.2466,-2.2344,-2.2235,-2.2038,-2.174,-2.1387,-2.1387,-2.1319,-2.1177,-2.1177,-2.1068,-2.0892,-2.0892,-2.0804,-2.0648,-2.0505,-2.0261,-1.9997,-1.9997,-1.9908,-1.9752,-1.961,-1.9522,-1.9468,-1.9305,-1.9237,-1.9183,-1.9081,-1.9027,-1.8972,-1.8909,-1.883,-1.883,-1.8929,-1.9081,-1.9325,-1.9522,-1.9556,-1.9569,-1.9705,-1.9271,-1.8905,-1.8841,-1.8552,-1.8321,-1.8179,-1.7968,-1.7751,-1.7663,-1.7738,-1.7826,-1.7968,-1.8091,-1.8158,-1.8158,-1.8057,-1.7948,-1.7784,-1.7683,-1.7629,-1.7548,-1.7582,-1.7568,-1.7487,-1.7521,-1.7561,-1.7609,-1.7609,-1.7629,-1.767,-1.7683,-1.7663,-1.6469,-1.6836,-1.7317,-1.7914,-1.8518,-1.9149,-1.9888,-2.0295,-2.0584,-2.1102,-2.1319,-2.1497,-2.2004,-2.2093,-2.2289,-2.2873,-2.3219,-2.3343,-2.3343,-2.368,-2.3754,-2.3397,-2.3235,-2.3219,-2.3205,-2.3083,-2.3008,-2.3008,-2.3415,-2.3537,-2.3239,-2.3503,-2.3537,-2.3219,-2.3205,-2.3151,-2.3008,-2.2995,-2.292,-2.2784,-2.2692,-2.2603,-2.2534,-2.2235,-2.2025,-2.1862,-2.1862,-2.1774,-2.1652,-2.1652,-2.1475,-2.1197,-2.1197,-2.1109,-2.0967,-2.0811,-2.058,-2.0315,-2.0315,-2.0227,-2.0064,-1.9908,-1.9827,-1.9624,-1.9468,-1.9325,-1.9203,-1.9203,-1.9094,-1.8993,-1.8993,-1.8993,-1.9027,-1.9149,-1.9305,-1.9501,-1.98,-1.9854,-1.982,-1.9739,-1.9522,-1.9271,-1.8888,-1.864,-1.8477,-1.8335,-1.8301,-1.8199,-1.7901,-1.7989,-1.8145,-1.8287,-1.8301,-1.8265,-1.8265,-1.8301,-1.8301,-1.8301,-1.8244,-1.8158,-1.7915,-1.7989,-1.7935,-1.7595,-1.7772,-1.797,-1.8077,-1.8077,-1.8145,-1.8287,-1.8145,-1.8077,-1.7026,-1.7372,-1.7812,-1.8511,-1.9061,-1.961,-2.0241,-2.0539,-2.0824,-2.1265,-2.1341,-2.1543,-2.1903,-2.2201,-2.25,-2.2818,-2.3361,-2.3788,-2.3877,-2.4155,-2.4195,-2.3788,-2.3524,-2.3327,-2.3239,-2.3185,-2.3151,-2.3151,-2.3381,-2.3436,-2.3239,-2.3415,-2.3436,-2.3219,-2.3219,-2.3205,-2.3151,-2.3063,-2.2995,-2.294,-2.2784,-2.2656,-2.2624,-2.2357,-2.2181,-2.2025,-2.1937,-2.1794,-2.1672,-2.1672,-2.1496,-2.1211,-2.1211,-2.1068,-2.0845,-2.079,-2.0702,-2.0594,-2.0404,-2.03,-2.0349,-2.0098,-2.0064,-2.0064,-1.98,-1.9698,-1.961,-1.9413,-1.9325,-1.9257,-1.9149,-1.9128,-1.9149,-1.9183,-1.9325,-1.9481,-1.9698,-1.9793,-1.9752,-1.9848,-1.961,-1.9379,-1.9237,-1.9006,-1.8742,-1.8498,-1.8375,-1.8287,-1.8179,-1.8213,-1.8301,-1.8443,-1.8407,-1.8498,-1.8606,-1.862,-1.8565,-1.8464,-1.8552,-1.8477,-1.8179,-1.8301,-1.8287,-1.8091,-1.8145,-1.8199,-1.8247,-1.8247,-1.8267,-1.8321,-1.8267,-1.8247,-1.7541,-1.7914,-1.8412,-1.9115,-1.9569,-1.9976,-2.0573,-2.0736,-2.0892,-2.1353,-2.1341,-2.1455,-2.176,-2.2113,-2.2378,-2.2798,-2.3436,-2.3965,-2.4175,-2.4406,-2.4447,-2.3877,-2.3503,-2.3187,-2.3151,-2.3151,-2.3171,-2.3219,-2.3415,-2.347,-2.3307,-2.3503,-2.3451,-2.3307,-2.3235,-2.3273,-2.3219,-2.313,-2.3063,-2.3008,-2.2907,-2.2784,-2.2692,-2.2534,-2.2411,-2.2269,-2.2167,-2.2004,-2.1828,-2.1828,-2.1652,-2.1374,-2.1374,-2.1231,-2.1021,-2.1021,-2.098,-2.0878,-2.0526,-2.0442,-2.058,-2.0275,-2.0241,-2.0275,-2.0031,-1.997,-1.9841,-1.9644,-1.9556,-1.9481,-1.9393,-1.9359,-1.9359,-1.9359,-1.9447,-1.9535,-1.9644,-1.9759,-1.9827,-1.9854,-1.9712,-1.959,-1.959,-1.9345,-1.9061,-1.8816,-1.8687,-1.8599,-1.8498,-1.8477,-1.8552,-1.8742,-1.8776,-1.8816,-1.8905,-1.8918,-1.8884,-1.8776,-1.8864,-1.8816,-1.8565,-1.8687,-1.8674,-1.8477,-1.8531,-1.8565,-1.8565,-1.8565,-1.8565,-1.8565,-1.8565,-1.8531,-1.7989,-1.8443,-1.8972,-1.9759,-2.001,-2.0275,-2.0858,-2.0878,-2.0878,-2.1319,-2.1279,-2.1265,-2.1564,-2.1652,-2.195,-2.2818,-2.349,-2.3999,-2.4222,-2.4473,-2.4372,-2.3768,-2.3314,-2.3049,-2.3029,-2.3029,-2.3083,-2.3205,-2.349,-2.3592,-2.3377,-2.3714,-2.3748,-2.3397,-2.3377,-2.3309,-2.3239,-2.3219,-2.3151,-2.3029,-2.3029,-2.294,-2.2798,-2.2798,-2.271,-2.2644,-2.2624,-2.2391,-2.2127,-2.2113,-2.1937,-2.1686,-2.1672,-2.1584,-2.1389,-2.1375,-2.1353,-2.1157,-2.0716,-2.0668,-2.0722,-2.0438,-2.0349,-2.0315,-2.0153,-2.001,-1.9888,-1.9888,-1.9786,-1.9739,-1.9739,-1.9739,-1.9739,-1.9739,-1.9739,-1.9739,-1.9739,-1.9786,-1.9875,-1.9936,-1.9888,-1.9936,-1.9875,-1.9644,-1.9393,-1.9217,-1.9203,-1.9115,-1.8875,-1.8841,-1.8943,-1.9169,-1.9203,-1.9217,-1.9217,-1.9237,-1.9237,-1.9237,-1.9237,-1.9183,-1.9027,-1.9149,-1.9094,-1.8854,-1.8938,-1.9006,-1.9006,-1.9006,-1.9006,-1.9006,-1.9006,-1.8938,-1.8321,-1.883,-1.9379,-1.9908,-2.0241,-2.0505,-2.077,-2.0716,-2.0668,-2.0892,-2.0824,-2.0672,-2.0804,-2.1285,-2.1815,-2.2269,-2.3219,-2.3965,-2.4155,-2.4596,-2.4636,-2.3931,-2.3734,-2.3537,-2.3205,-2.3171,-2.3185,-2.3219,-2.3293,-2.3361,-2.3377,-2.3451,-2.3571,-2.3626,-2.3503,-2.3356,-2.3323,-2.3273,-2.3205,-2.3171,-2.3171,-2.3151,-2.3097,-2.2995,-2.292,-2.2886,-2.2656,-2.2445,-2.2269,-2.216,-2.2004,-2.1815,-2.1706,-2.1652,-2.1597,-2.1475,-2.1355,-2.1353,-2.1123,-2.0933,-2.0821,-2.0682,-2.058,-2.0388,-2.0315,-2.0241,-2.0187,-2.0085,-1.9942,-1.9902,-1.9963,-1.9908,-1.9854,-1.9963,-1.9908,-1.9854,-1.9963,-1.9902,-1.9786,-1.9997,-2.0051,-1.9976,-1.9814,-1.9732,-1.9624,-1.9257,-1.9305,-1.9305,-1.9115,-1.9094,-1.9115,-1.9203,-1.9305,-1.9413,-1.9535,-1.9644,-1.9698,-1.9698,-1.98,-1.9752,-1.9501,-1.9522,-1.9447,-1.9271,-1.9183,-1.9149,-1.9149,-1.9149,-1.9203,-1.9325,-1.9325,-1.9359,-1.883,-1.9265,-1.982,-2.0207,-2.0417,-2.0539,-2.058,-2.0451,-2.0349,-2.037,-2.0363,-2.0329,-2.0261,-2.0756,-2.1353,-2.1916,-2.2852,-2.3646,-2.4066,-2.4582,-2.4684,-2.4066,-2.3931,-2.3768,-2.3449,-2.3415,-2.3449,-2.3503,-2.3395,-2.3323,-2.3537,-2.3612,-2.368,-2.3768,-2.37,-2.3571,-2.3377,-2.3293,-2.3219,-2.3219,-2.3219,-2.3219,-2.3219,-2.313,-2.3063,-2.2995,-2.2764,-2.2567,-2.2432,-2.2269,-2.2127,-2.1991,-2.1971,-2.1848,-2.1672,-2.1726,-2.1551,-2.1441,-2.1496,-2.1265,-2.0946,-2.0875,-2.0716,-2.0614,-2.0471,-2.032,-2.0246,-2.0227,-2.0139,-2.0098,-2.0173,-2.0139,-2.0098,-2.0187,-2.0085,-1.9997,-2.0085,-1.9976,-1.9922,-2.0153,-2.0261,-2.0227,-1.9997,-2.001,-1.9963,-1.9644,-1.9678,-1.9698,-1.961,-1.9434,-1.9325,-1.94,-1.9535,-1.9657,-1.9752,-1.9888,-1.9976,-1.9976,-2.0051,-2.0031,-1.9854,-1.9854,-1.9786,-1.9624,-1.9481,-1.94,-1.94,-1.94,-1.9481,-1.9624,-1.9698,-1.9732,-1.9379,-1.98,-2.0187,-2.0471,-2.0476,-2.0442,-2.03,-2.0187,-2.0031,-1.9875,-1.9942,-1.9997,-1.982,-2.0207,-2.076,-2.1652,-2.2445,-2.3219,-2.3978,-2.444,-2.4562,-2.4189,-2.4033,-2.389,-2.3754,-2.3754,-2.3802,-2.391,-2.37,-2.3626,-2.3768,-2.389,-2.3944,-2.3931,-2.391,-2.3748,-2.3377,-2.3255,-2.3239,-2.3219,-2.3219,-2.3219,-2.3219,-2.3219,-2.3151,-2.3029,-2.2873,-2.273,-2.2608,-2.2466,-2.2303,-2.2181,-2.2289,-2.2093,-2.176,-2.1991,-2.1828,-2.1509,-2.176,-2.1584,-2.1197,-2.0912,-2.0811,-2.0736,-2.053,-2.0388,-2.03,-2.03,-2.0286,-2.0329,-2.0349,-2.0286,-2.0329,-2.0349,-2.0241,-2.0139,-2.0153,-2.0153,-2.0187,-2.0246,-2.0438,-2.0485,-2.0349,-2.0286,-2.0295,-2.0119,-2.0119,-2.0119,-2.0098,-1.9766,-1.9569,-1.9712,-1.9854,-1.9929,-1.9929,-2.0064,-2.0153,-2.0153,-2.0153,-2.0153,-2.0153,-2.0139,-2.0064,-1.9942,-1.9848,-1.9773,-1.9773,-1.9773,-1.9848,-1.9942,-2.0064,-2.0064,-1.9712,-2.0031,-2.0329,-2.0442,-2.0476,-2.0442,-2.03,-2.0119,-1.9875,-1.9732,-1.9773,-1.9705,-1.9379,-1.9997,-2.0652,-2.1245,-2.2059,-2.294,-2.3802,-2.41,-2.4263,-2.4297,-2.4202,-2.4209,-2.4053,-2.4155,-2.4189,-2.4087,-2.408,-2.4134,-2.4229,-2.4188,-2.4209,-2.4087,-2.3965,-2.3748,-2.3377,-2.3356,-2.3347,-2.3219,-2.3219,-2.3219,-2.3219,-2.3219,-2.3205,-2.3171,-2.3029,-2.2961,-2.292,-2.2764,-2.2622,-2.2535,-2.2378,-2.2215,-2.2025,-2.195,-2.1794,-2.1638,-2.1686,-2.1564,-2.1367,-2.1197,-2.0967,-2.0736,-2.053,-2.0462,-2.0442,-2.0442,-2.0417,-2.03,-2.0471,-2.0354,-2.03,-2.0471,-2.0334,-2.0329,-2.0438,-2.0408,-2.0374,-2.0349,-2.0438,-2.0485,-2.0349,-2.0374,-2.0354,-2.0139,-2.0207,-2.0241,-2.0119,-2.0031,-1.9997,-2.0031,-2.0153,-2.0241,-2.0241,-2.032,-2.0408,-2.0408,-2.0408,-2.0408,-2.0408,-2.0349,-2.0275,-2.0261,-2.0098,-2.0031,-2.0031,-2.0031,-2.0098,-2.0261,-2.0275,-2.0329,-2.001,-2.0329,-2.056,-2.0539,-2.0422,-2.0363,-2.0139,-1.9854,-1.9569,-1.9359,-1.9501,-1.9596,-1.9169,-1.9766,-2.0438,-2.0804,-2.1496,-2.2289,-2.3185,-2.3646,-2.3944,-2.4087,-2.4243,-2.4222,-2.4141,-2.4189,-2.4263,-2.4351,-2.4419,-2.4419,-2.4276,-2.4276,-2.4235,-2.4243,-2.4012,-2.3822,-2.368,-2.3612,-2.3483,-2.3275,-2.3275,-2.3293,-2.3219,-2.3219,-2.3219,-2.3219,-2.3063,-2.3008,-2.2995,-2.2852,-2.2744,-2.2656,-2.2608,-2.2378,-2.2093,-2.2025,-2.1815,-2.155,-2.155,-2.1496,-2.1355,-2.1265,-2.1068,-2.0845,-2.0614,-2.0476,-2.0476,-2.0476,-2.0422,-2.0388,-2.0462,-2.0422,-2.0388,-2.0462,-2.0422,-2.0388,-2.0462,-2.0476,-2.0462,-2.0388,-2.0485,-2.0462,-2.0388,-2.0485,-2.0485,-2.0349,-2.0334,-2.0354,-2.0349,-2.0329,-2.0275,-2.0119,-2.0241,-2.0329,-2.0329,-2.0388,-2.0476,-2.0476,-2.0476,-2.0476,-2.0476,-2.0471,-2.0374,-2.0374,-2.0295,-2.0227,-2.0227,-2.0227,-2.0261,-2.0329,-2.0397,-2.0374,-2.0207,-2.0539,-2.0736,-2.0614,-2.0451,-2.0261,-1.9976,-1.9657,-1.9359,-1.9094,-1.9371,-1.9434,-1.9027,-1.9522,-2.0119,-2.0438,-2.0936,-2.172,-2.2696,-2.3259,-2.368,-2.3965,-2.4134,-2.4317,-2.4229,-2.4209,-2.4317,-2.4548,-2.4596,-2.4562,-2.4453,-2.4344,-2.433,-2.433,-2.4155,-2.4019,-2.3999,-2.3843,-2.37,-2.3537,-2.3451,-2.3415,-2.3273,-2.3273,-2.3259,-2.3219,-2.3097,-2.3063,-2.3042,-2.292,-2.2832,-2.2784,-2.2784,-2.25,-2.2113,-2.2079,-2.1815,-2.1496,-2.1389,-2.1355,-2.1367,-2.1211,-2.1089,-2.0946,-2.0618,-2.056,-2.0476,-2.0476,-2.0476,-2.0476,-2.0476,-2.0476,-2.0476,-2.0476,-2.0476,-2.0476,-2.0476,-2.0476,-2.0476,-2.0476,-2.0476,-2.0476,-2.0476,-2.0476,-2.0476,-2.0476,-2.0476,-2.0476,-2.0476,-2.0476,-2.0388,-2.0227,-2.0295,-2.032,-2.032,-2.0471,-2.0476,-2.0476,-2.0476,-2.0476,-2.0476,-2.0476,-2.0476,-2.0476,-2.0374,-2.032,-2.032,-2.032,-2.032,-2.032,-2.0422,-2.0422,-2.0207,-2.0539,-2.077,-2.0756,-2.0539,-2.0232,-2.0119,-1.9746,-1.9379,-1.9217,-1.9217,-1.9149,-1.8888,-1.9291,-1.9841,-2.0275,-2.0845,-2.1652,-2.2818,-2.3151,-2.3524,-2.4148,-2.4256,-2.4406,-2.4507,-2.4528,-2.4604,-2.4562,-2.4684,-2.4758,-2.4758,-2.4616,-2.4548,-2.4548,-2.4583,-2.444,-2.4235,-2.4155,-2.3999,-2.3856,-2.3714,-2.3571,-2.3356,-2.3356,-2.3347,-2.3219,-2.3205,-2.3205,-2.3205,-2.3185,-2.3029,-2.2784,-2.2784,-2.25,-2.2093,-2.195,-2.1794,-2.1638,-2.1496,-2.1353,-2.1211,-2.1068,-2.1021,-2.0967,-2.0804,-2.0648,-2.0476,-2.0476,-2.0476,-2.0476,-2.0476,-2.0476,-2.0476,-2.0476,-2.0476,-2.0476,-2.0476,-2.0476,-2.0476,-2.0476,-2.0476,-2.0476,-2.0476,-2.0476,-2.0476,-2.0476,-2.0476,-2.0476,-2.0476,-2.0476,-2.0462,-2.0442,-2.0442,-2.0462,-2.0462,-2.0476,-2.0476,-2.0476,-2.0476,-2.0476,-2.0476,-2.0476,-2.0476,-2.0476,-2.0462,-2.0462,-2.0462,-2.0462,-2.0462,-2.0462,-2.0476,-2.0476,-2.0051,-2.0539,-2.0892,-2.079,-2.0539,-2.0261,-2.001,-1.9698,-1.9333,-1.9237,-1.9271,-1.9271,-1.9061,-1.9291,-1.9644,-1.9997,-2.0329,-2.0858,-2.1794,-2.2059,-2.2466,-2.3307,-2.3483,-2.37,-2.4121,-2.4155,-2.4229,-2.4419,-2.4494,-2.4528,-2.4528,-2.4548,-2.4562,-2.4562,-2.4562,-2.4528,-2.4473,-2.4507,-2.4351,-2.4033,-2.3978,-2.3768,-2.3377,-2.3377,-2.3361,-2.3219,-2.3219,-2.3219,-2.3219,-2.313,-2.3083,-2.3029,-2.2744,-2.2534,-2.2344,-2.2004,-2.1794,-2.1638,-2.1387,-2.1319,-2.1253,-2.1068,-2.1001,-2.0946,-2.0702,-2.053,-2.0476,-2.0476,-2.0476,-2.0476,-2.0476,-2.0476,-2.0476,-2.0476,-2.0476,-2.0476,-2.0476,-2.0614,-2.0648,-2.0496,-2.0614,-2.0648,-2.0496,-2.0476,-2.0476,-2.0476,-2.0476,-2.0476,-2.0476,-2.0476,-2.0476,-2.0476,-2.0476,-2.0476,-2.0476,-2.0476,-2.0476,-2.0476,-2.0476,-2.0476,-2.0476,-2.0476,-2.0476,-2.0476,-2.0476,-2.0476,-2.0476,-2.0476,-2.0476,-2.0476,-2.0476,-2.0476,-1.9732,-2.0349,-2.079,-2.077,-2.0539,-2.0241,-1.9942,-1.9678,-1.9434,-1.9183,-1.9257,-1.9325,-1.9169,-1.9257,-1.9468,-1.9766,-2.001,-2.0404,-2.1055,-2.1353,-2.1774,-2.25,-2.271,-2.3029,-2.3578,-2.3788,-2.4012,-2.4256,-2.4276,-2.4276,-2.4276,-2.444,-2.4494,-2.4494,-2.4548,-2.4562,-2.4562,-2.467,-2.4548,-2.4189,-2.4189,-2.3891,-2.3524,-2.3524,-2.3415,-2.3219,-2.3219,-2.3219,-2.3219,-2.3117,-2.3083,-2.3063,-2.2744,-2.2567,-2.2445,-2.2038,-2.1815,-2.1686,-2.1387,-2.1319,-2.1333,-2.1123,-2.1001,-2.0892,-2.0682,-2.0573,-2.0476,-2.0476,-2.0476,-2.0476,-2.0476,-2.0476,-2.0496,-2.0594,-2.0614,-2.0627,-2.0661,-2.077,-2.0804,-2.0702,-2.0736,-2.0756,-2.0682,-2.0594,-2.0496,-2.0594,-2.051,-2.0476,-2.0476,-2.0476,-2.0476,-2.0476,-2.0476,-2.0476,-2.0476,-2.0476,-2.0476,-2.0476,-2.0476,-2.0476,-2.0476,-2.0476,-2.0476,-2.0476,-2.0476,-2.0476,-2.0476,-2.0476,-2.0476,-2.0476,-2.0476,-2.0462,-1.9211,-1.9875,-2.0404,-2.0702,-2.0539,-2.0241,-1.9942,-1.9766,-1.9535,-1.9081,-1.9115,-1.9169,-1.9027,-1.9115,-1.9305,-1.9671,-2.0031,-2.0485,-2.0946,-2.1387,-2.1774,-2.2079,-2.2249,-2.2513,-2.2974,-2.3558,-2.4012,-2.4256,-2.4276,-2.4276,-2.4276,-2.4276,-2.4276,-2.4276,-2.4494,-2.4562,-2.4562,-2.4562,-2.4494,-2.4276,-2.4276,-2.4121,-2.368,-2.368,-2.3503,-2.3219,-2.3219,-2.3219,-2.3219,-2.3219,-2.3049,-2.2784,-2.2784,-2.2608,-2.2303,-2.1991,-2.1882,-2.1828,-2.1477,-2.1333,-2.1211,-2.1211,-2.1021,-2.077,-2.077,-2.0668,-2.0476,-2.0476,-2.0476,-2.0476,-2.0476,-2.0476,-2.0573,-2.0736,-2.077,-2.0811,-2.0967,-2.1001,-2.1001,-2.1001,-2.0878,-2.0824,-2.0967,-2.0736,-2.0594,-2.0756,-2.0648,-2.0476,-2.0476,-2.0476,-2.0476,-2.0476,-2.0476,-2.0476,-2.0476,-2.0476,-2.0476,-2.0476,-2.0476,-2.0476,-2.0476,-2.0476,-2.0476,-2.0476,-2.0476,-2.0476,-2.0476,-2.0476,-2.0476,-2.0476,-2.0476,-2.0408,-1.8586,-1.9183,-1.9712,-1.9698,-1.9712,-1.9583,-1.9345,-1.9393,-1.9434,-1.9183,-1.9257,-1.9379,-1.9434,-1.9393,-1.9481,-1.9888,-2.0085,-2.0295,-2.0627,-2.0892,-2.1285,-2.1882,-2.2642,-2.3079,-2.3293,-2.3571,-2.3822,-2.4012,-2.4033,-2.4087,-2.4189,-2.4189,-2.4243,-2.4276,-2.4494,-2.4562,-2.4562,-2.467,-2.4596,-2.4276,-2.4276,-2.4121,-2.368,-2.368,-2.3503,-2.3219,-2.3219,-2.3219,-2.3205,-2.3008,-2.292,-2.2907,-2.2601,-2.2479,-2.2445,-2.2147,-2.1971,-2.1848,-2.1672,-2.1496,-2.1333,-2.1143,-2.1001,-2.0892,-2.0682,-2.0573,-2.0476,-2.0476,-2.0476,-2.0476,-2.0476,-2.0476,-2.0573,-2.0736,-2.077,-2.0875,-2.0967,-2.1068,-2.1123,-2.1021,-2.1034,-2.1055,-2.1001,-2.0912,-2.0878,-2.0912,-2.0892,-2.0858,-2.0858,-2.077,-2.0736,-2.0845,-2.0661,-2.0476,-2.0476,-2.0476,-2.0476,-2.0476,-2.0476,-2.0476,-2.0476,-2.0476,-2.0476,-2.0476,-2.0476,-2.0476,-2.0476,-2.0476,-2.0476,-2.0476,-2.0476,-2.0462,-1.8145,-1.8654,-1.9069,-1.9257,-1.9359,-1.9379,-1.9203,-1.9345,-1.9447,-1.9183,-1.9237,-1.9359,-1.94,-1.9379,-1.9447,-1.98,-1.9942,-2.0098,-2.0349,-2.0614,-2.1034,-2.1726,-2.2567,-2.313,-2.3185,-2.3436,-2.368,-2.3877,-2.389,-2.3965,-2.4121,-2.4121,-2.4155,-2.4188,-2.4351,-2.4406,-2.4406,-2.4541,-2.4528,-2.4276,-2.4222,-2.4087,-2.3754,-2.3646,-2.3449,-2.3219,-2.3219,-2.3219,0.0,-2.2961,-2.2886,-2.2886,-2.2554,-2.2445,-2.2445,-2.2201,-2.2059,-2.1937,-2.174,-2.1597,-2.1496,-2.1245,-2.1089,-2.0946,-2.0627,-2.0476,-2.0476,-2.0476,-2.0476,-2.0476,-2.0476,-2.058,-2.0668,-2.0824,-2.0892,-2.098,-2.1143,-2.1231,-2.1265,-2.1177,-2.1197,-2.1197,-2.1177,-2.1068,-2.1021,-2.1068,-2.1034,-2.1001,-2.1001,-2.0858,-2.0811,-2.0912,-2.0682,-2.0476,-2.0476,-2.0476,-2.0476,-2.0476,-2.0476,-2.0476,-2.0476,-2.0476,-2.0476,-2.0476,-2.0476,-2.0476,-2.0476,-2.0476,-2.0476,-2.0476,-2.0476,-2.0476,0.0,-1.8247,-1.8542,-1.9103,-1.9279,-1.9359,-1.9299,-1.9501,0.0,-1.9081,-1.9094,-1.9169,-1.9027,-1.9115,-1.9257,-1.9353,-1.9678,-1.997,-2.0085,-2.0539,-2.1075,-2.1672,-2.2255,-2.2656,-2.2798,-2.3185,-2.3558,-2.3856,-2.3877,-2.3944,-2.4121,-2.4121,-2.4121,-2.4141,-2.4121,-2.4121,-2.4121,-2.4243,-2.4317,-2.4256,-2.4189,-2.4033,-2.3877,-2.3592,-2.3309,-2.3219,-2.3219,-2.3219,-2.3205,-2.3063,-2.2907,-2.2764,-2.2608,-2.2466,-2.2254,-2.2181,-2.2113,-2.2059,-2.1774,-2.1672,-2.1638,-2.1475,-2.1231,-2.0933,-2.0648,-2.0539,-2.0476,-2.0476,-2.0476,-2.0476,-2.0476,-2.0648,-2.0811,-2.0967,-2.1123,-2.1265,-2.1421,-2.1389,-2.1389,-2.1389,-2.1333,-2.1265,-2.1355,-2.1211,-2.1068,-2.1211,-2.1123,-2.1055,-2.1055,-2.0912,-2.0824,-2.0845,-2.0682,-2.051,-2.053,-2.0496,-2.0476,-2.0476,-2.0476,-2.0476,-2.0476,-2.0476,-2.0476,-2.0476,-2.0476,-2.0476,-2.0476,-2.0476,-2.0476,-2.0476,-2.0476,-2.0476,-1.7338,0.0,-1.7839,-1.7981,-1.8352,-1.8708,0.0,-1.8952,-1.9257,-1.904,-1.9094,-1.9183,-1.9169,-1.9183,-1.9257,-1.9353,-1.959,-1.98,-2.0064,-2.098,-2.1862,-2.2358,-2.2764,-2.3083,-2.3117,-2.3219,-2.3395,-2.3714,-2.3734,-2.389,-2.4202,-2.4189,-2.4175,-2.4222,-2.4175,-2.4121,-2.4121,-2.4033,-2.4053,-2.4175,-2.4141,-2.3978,-2.3734,-2.3666,-2.3483,-2.3219,-2.3219,-2.3219,-2.3205,-2.294,-2.2818,-2.2764,-2.25,-2.2308,-2.2268,-2.2234,-2.2147,-2.1916,-2.1862,-2.1686,-2.1475,-2.1319,-2.1068,-2.0811,-2.0736,-2.0627,-2.0476,-2.0476,-2.0476,-2.0476,-2.0476,-2.0648,-2.0811,-2.0967,-2.1197,-2.1421,-2.1584,-2.1618,-2.1618,-2.1618,-2.1496,-2.1341,-2.1375,-2.1321,-2.1353,-2.1321,-2.1462,-2.1516,-2.1516,-2.1374,-2.1333,-2.1441,-2.1123,-2.0933,-2.1055,-2.0736,-2.0476,-2.0476,-2.0476,-2.0476,-2.0476,-2.0476,-2.0476,-2.0476,-2.0476,-2.0476,-2.0476,-2.0476,-2.0476,-2.0476,-2.0476,-2.0476,-1.7243,-1.7521,-1.7772,-1.7914,-1.8301,-1.864,-1.864,-1.8816,-1.8959,-1.8816,-1.885,-1.8864,-1.8816,-1.8905,-1.9047,-1.9203,-1.9413,-1.9786,-2.0417,-2.1299,-2.2079,-2.2658,-2.2995,-2.3219,-2.3219,-2.3219,-2.3347,-2.3666,-2.368,-2.3877,-2.4256,-2.4202,-2.4263,-2.4276,-2.4141,-2.4053,-2.4121,-2.3965,-2.3965,-2.4121,-2.391,-2.3768,-2.368,-2.3537,-2.3381,-2.3219,-2.3219,-2.3219,-2.3205,-2.2974,-2.2886,-2.2852,-2.2554,-2.2445,-2.2432,-2.2357,-2.2235,-2.2079,-2.1937,-2.1686,-2.1355,-2.1265,-2.1055,-2.0878,-2.0878,-2.0716,-2.0476,-2.0476,-2.0476,-2.0496,-2.0627,-2.0756,-2.0912,-2.1068,-2.1265,-2.1455,-2.155,-2.1564,-2.1564,-2.1564,-2.1496,-2.1375,-2.1375,-2.1375,-2.1455,-2.153,-2.1564,-2.1584,-2.1719,-2.1475,-2.1367,-2.1462,-2.1177,-2.1001,-2.1001,-2.079,-2.0648,-2.0648,-2.0573,-2.0476,-2.0476,-2.0476,-2.0476,-2.0476,-2.0476,-2.0476,-2.0476,-2.0476,-2.0476,-2.0476,-2.0476,-2.0573,-1.7372,-1.7724,-1.8092,-1.8233,-1.8552,-1.8875,-1.8905,-1.883,-1.8728,-1.8565,-1.8454,-1.8464,-1.8375,-1.8586,-1.8816,-1.8972,-1.9291,-1.9888,-2.0892,-2.153,-2.2113,-2.271,-2.3029,-2.3205,-2.3219,-2.3219,-2.3347,-2.3666,-2.37,-2.389,-2.4256,-2.4276,-2.4256,-2.4235,-2.4033,-2.3944,-2.4053,-2.391,-2.391,-2.4053,-2.366,-2.3537,-2.3646,-2.3381,-2.3239,-2.3219,-2.3219,-2.3219,-2.3205,-2.3063,-2.3008,-2.2974,-2.2676,-2.2624,-2.2603,-2.2391,-2.2323,-2.22,-2.195,-2.1672,-2.1355,-2.1285,-2.1143,-2.1034,-2.1034,-2.0845,-2.0614,-2.0614,-2.053,-2.0614,-2.077,-2.0912,-2.1068,-2.1177,-2.1367,-2.1496,-2.1475,-2.1509,-2.153,-2.1509,-2.1496,-2.1475,-2.1475,-2.1475,-2.1509,-2.1652,-2.1597,-2.1584,-2.1726,-2.1496,-2.1319,-2.1319,-2.1157,-2.1021,-2.0878,-2.0824,-2.0811,-2.0811,-2.0648,-2.0476,-2.0476,-2.0476,-2.0476,-2.0476,-2.0476,-2.0476,-2.0476,-2.0476,-2.0496,-2.0573,-2.0573,-2.0668,-1.748,-1.8111,-1.8609,-1.8213,-1.8552,-1.8884,-1.8654,-1.8687,-1.8728,-1.8565,-1.8386,-1.8332,-1.8477,-1.864,-1.8816,-1.8972,-1.9556,-2.0275,-2.1068,-2.1584,-2.2113,-2.271,-2.294,-2.3097,-2.3205,-2.3219,-2.3347,-2.3666,-2.3788,-2.3999,-2.4256,-2.4276,-2.4222,-2.4155,-2.3978,-2.3843,-2.3754,-2.3592,-2.3592,-2.3754,-2.368,-2.3592,-2.3411,-2.3363,-2.3347,-2.3219,-2.3219,-2.3219,-2.3205,-2.3063,-2.3008,-2.2974,-2.2676,-2.2624,-2.2603,-2.2391,-2.2249,-2.2113,-2.1815,-2.1584,-2.1375,-2.1408,-2.1299,-2.1177,-2.1177,-2.1068,-2.0933,-2.0933,-2.0845,-2.077,-2.0933,-2.1068,-2.1177,-2.1211,-2.1509,-2.1774,-2.1652,-2.1828,-2.1971,-2.1848,-2.1726,-2.1638,-2.1638,-2.1638,-2.1638,-2.1672,-2.1862,-2.2025,-2.2038,-2.1882,-2.1774,-2.1774,-2.153,-2.1301,-2.1333,-2.1109,-2.0967,-2.0967,-2.0702,-2.0476,-2.0476,-2.0476,-2.0476,-2.0476,-2.0476,-2.0476,-2.0476,-2.0476,-2.0614,-2.0736,-2.0736,-2.0824,-1.7344,-1.7894,-1.8389,-1.8335,-1.885,-1.9371,-1.9169,-1.9006,-1.8816,-1.8586,-1.8366,-1.8335,-1.8409,-1.8531,-1.8796,-1.9271,-1.9976,-2.0668,-2.1245,-2.1794,-2.2323,-2.2852,-2.3029,-2.3151,-2.3219,-2.3219,-2.3347,-2.3666,-2.3734,-2.391,-2.4209,-2.4297,-2.4243,-2.3999,-2.3931,-2.3822,-2.368,-2.3449,-2.3395,-2.3558,-2.347,-2.3436,-2.3377,-2.3289,-2.3327,-2.3275,-2.3259,-2.3219,-2.3219,-2.3151,-2.3117,-2.3097,-2.2886,-2.2744,-2.2642,-2.2425,-2.2235,-2.2093,-2.195,-2.176,-2.1564,-2.1564,-2.1408,-2.1231,-2.1319,-2.1177,-2.1034,-2.1197,-2.1068,-2.0933,-2.1068,-2.1157,-2.1231,-2.1319,-2.1564,-2.176,-2.1686,-2.1828,-2.1971,-2.1903,-2.1774,-2.1672,-2.1672,-2.1672,-2.1672,-2.1672,-2.1794,-2.1862,-2.1862,-2.174,-2.1638,-2.1638,-2.1463,-2.1367,-2.1211,-2.1068,-2.0933,-2.077,-2.0614,-2.0476,-2.0476,-2.0476,-2.0476,-2.0476,-2.0476,-2.0573,-2.0668,-2.0668,-2.0756,-2.0892,-2.0892,-2.098,-1.7344,-1.7792,-1.8247,-1.8511,-1.9027,-1.9548,-1.9684,-1.9291,-1.8884,-1.8728,-1.8552,-1.8423,-1.8477,-1.8654,-1.9027,-1.9752,-2.0404,-2.1001,-2.1475,-2.1936,-2.25,-2.2954,-2.3097,-2.3185,-2.3219,-2.3219,-2.3327,-2.3612,-2.3666,-2.3788,-2.3999,-2.4189,-2.4141,-2.3802,-2.3822,-2.3754,-2.3578,-2.3347,-2.3293,-2.3377,-2.3327,-2.3361,-2.3503,-2.3381,-2.3395,-2.3431,-2.3347,-2.3259,-2.3219,-2.3219,-2.3219,-2.3205,-2.3063,-2.2886,-2.2696,-2.2425,-2.2215,-2.2059,-2.2059,-2.1862,-2.1618,-2.1652,-2.1496,-2.1299,-2.1496,-2.1333,-2.1157,-2.1421,-2.1299,-2.1123,-2.1231,-2.1265,-2.1299,-2.1408,-2.1564,-2.1672,-2.1672,-2.1815,-2.1916,-2.1882,-2.1794,-2.1706,-2.1739,-2.1672,-2.1686,-2.1726,-2.1726,-2.174,-2.1774,-2.1618,-2.1475,-2.1441,-2.1341,-2.1265,-2.0967,-2.0946,-2.0824,-2.0496,-2.0476,-2.0476,-2.0476,-2.0476,-2.0476,-2.0476,-2.0573,-2.0648,-2.077,-2.0811,-2.0899,-2.1055,-2.1055,-2.1123,-1.7914,-1.8247,-1.8531,-1.8708,-1.8841,-1.9031,-1.9596,-1.9262,-1.8909,-1.9094,-1.8918,-1.8782,-1.8918,-1.9291,-1.9786,-2.032,-2.077,-2.1197,-2.1774,-2.2127,-2.25,-2.2954,-2.3029,-2.3083,-2.3205,-2.3219,-2.3293,-2.3377,-2.3592,-2.37,-2.3714,-2.3978,-2.3944,-2.3431,-2.3626,-2.3558,-2.3259,-2.3239,-2.3293,-2.3377,-2.3363,-2.3524,-2.3666,-2.3646,-2.3646,-2.3666,-2.3503,-2.3347,-2.3219,-2.3219,-2.3219,-2.3205,-2.3063,-2.2832,-2.2624,-2.2391,-2.2147,-2.1903,-2.1903,-2.1706,-2.1475,-2.1618,-2.1564,-2.1475,-2.176,-2.1638,-2.1441,-2.1597,-2.153,-2.1341,-2.1355,-2.1421,-2.1421,-2.1375,-2.1564,-2.1672,-2.1672,-2.1903,-2.2059,-2.1916,-2.1882,-2.1828,-2.1692,-2.1672,-2.1726,-2.1848,-2.1862,-2.1916,-2.2059,-2.1828,-2.1597,-2.1389,-2.1319,-2.1109,-2.0875,-2.079,-2.0716,-2.0496,-2.0476,-2.0476,-2.0476,-2.0476,-2.0476,-2.0476,-2.0682,-2.0821,-2.077,-2.0912,-2.1055,-2.1197,-2.1197,-2.1279,-1.7629,-1.7968,-1.8301,-1.8443,-1.8694,-1.9061,-1.9664,-1.9698,-1.9624,-1.9732,-1.959,-1.9447,-1.9413,-1.9698,-2.0064,-2.0471,-2.1034,-2.1564,-2.1971,-2.2445,-2.2852,-2.3117,-2.313,-2.3205,-2.3347,-2.3289,-2.3436,-2.3571,-2.3646,-2.3646,-2.3537,-2.3734,-2.3734,-2.3377,-2.3503,-2.3524,-2.3503,-2.3307,-2.3293,-2.3377,-2.3377,-2.3571,-2.3802,-2.3714,-2.368,-2.368,-2.3524,-2.3289,-2.3219,-2.3219,-2.3219,-2.3205,-2.3063,-2.2886,-2.2676,-2.2534,-2.2344,-2.2147,-2.2059,-2.1882,-2.1706,-2.1686,-2.1564,-2.1389,-2.1584,-2.153,-2.1389,-2.1509,-2.1496,-2.1375,-2.1375,-2.1509,-2.1564,-2.1455,-2.1618,-2.1774,-2.1692,-2.1903,-2.2059,-2.1916,-2.1882,-2.1828,-2.1692,-2.1672,-2.1652,-2.1618,-2.1686,-2.174,-2.1639,-2.1509,-2.1374,-2.1299,-2.1089,-2.0892,-2.079,-2.0682,-2.0614,-2.0476,-2.0627,-2.0682,-2.0682,-2.0682,-2.0736,-2.0824,-2.079,-2.0858,-2.1055,-2.1109,-2.1211,-2.1353,-2.1353,-2.1321,-1.744,-1.7758,-1.8057,-1.8213,-1.862,-1.9135,-1.9739,-1.9922,-2.0064,-2.0207,-2.0085,-1.997,-1.982,-2.001,-2.0295,-2.0682,-2.1299,-2.1862,-2.2201,-2.2696,-2.3063,-2.3205,-2.3259,-2.3307,-2.3309,-2.3397,-2.3524,-2.3537,-2.3578,-2.3537,-2.3381,-2.3524,-2.3537,-2.3309,-2.3356,-2.3483,-2.3537,-2.3327,-2.3293,-2.3377,-2.3377,-2.3612,-2.389,-2.3843,-2.3822,-2.3802,-2.3612,-2.3436,-2.3293,-2.3239,-2.3219,-2.3205,-2.3008,-2.2873,-2.2764,-2.2554,-2.2391,-2.2249,-2.2093,-2.1937,-2.1794,-2.1706,-2.1564,-2.1389,-2.155,-2.155,-2.153,-2.1564,-2.1584,-2.1564,-2.153,-2.155,-2.1584,-2.153,-2.1638,-2.1726,-2.1686,-2.1862,-2.1991,-2.1848,-2.1848,-2.1828,-2.1638,-2.1597,-2.1584,-2.153,-2.1564,-2.1584,-2.153,-2.1333,-2.1177,-2.1089,-2.0845,-2.0702,-2.0702,-2.0594,-2.0476,-2.0476,-2.0682,-2.077,-2.077,-2.0824,-2.0892,-2.1001,-2.0946,-2.1021,-2.1211,-2.1265,-2.1333,-2.1375,-2.1375,-2.1375,-1.7595,-1.7758,-1.7956,-1.8057,-1.8552,-1.9115,-1.9616,-1.9827,-1.9997,-2.0388,-2.0315,-2.0098,-2.0098,-2.0241,-2.0526,-2.1123,-2.1584,-2.2038,-2.2556,-2.2818,-2.3063,-2.3205,-2.3289,-2.3323,-2.3239,-2.3503,-2.3558,-2.3259,-2.3361,-2.3309,-2.3239,-2.3361,-2.3309,-2.3219,-2.3361,-2.3309,-2.3219,-2.3219,-2.3293,-2.3377,-2.3377,-2.3539,-2.389,-2.4053,-2.4121,-2.41,-2.3802,-2.3592,-2.3363,-2.3293,-2.3219,-2.3185,-2.2907,-2.2784,-2.2744,-2.2445,-2.2249,-2.2093,-2.1937,-2.1794,-2.1672,-2.1672,-2.1564,-2.1496,-2.1794,-2.1774,-2.1706,-2.1848,-2.1882,-2.1848,-2.1706,-2.1564,-2.1475,-2.1638,-2.155,-2.1475,-2.1638,-2.1774,-2.1848,-2.1692,-2.1781,-2.1794,-2.1496,-2.1375,-2.1496,-2.1652,-2.155,-2.1496,-2.1652,-2.1408,-2.1089,-2.0811,-2.0627,-2.0476,-2.0476,-2.0476,-2.0476,-2.0476,-2.0682,-2.077,-2.077,-2.0912,-2.1001,-2.1001,-2.1143,-2.1211,-2.1211,-2.1367,-2.1375,-2.1375,-2.1375,-2.1375,-1.7433,-1.767,-1.7956,-1.8057,-1.8708,-1.9393,-1.9732,-2.001,-2.0329,-2.077,-2.079,-2.0736,-2.0736,-2.077,-2.0892,-2.1157,-2.1686,-2.2127,-2.2378,-2.2744,-2.3097,-2.3347,-2.3255,-2.3361,-2.3524,-2.3524,-2.3524,-2.3537,-2.3483,-2.3356,-2.3309,-2.3255,-2.3307,-2.3309,-2.3255,-2.3255,-2.3309,-2.3273,-2.3239,-2.3293,-2.3323,-2.3558,-2.3754,-2.3788,-2.3802,-2.3802,-2.3612,-2.3483,-2.3363,-2.3293,-2.3219,-2.3205,-2.3008,-2.2873,-2.2764,-2.2676,-2.2479,-2.22,-2.2215,-2.2038,-2.1815,-2.1706,-2.1564,-2.1389,-2.1543,-2.1543,-2.155,-2.1686,-2.174,-2.1774,-2.1937,-2.1794,-2.1584,-2.153,-2.1564,-2.1584,-2.153,-2.1706,-2.1815,-2.1564,-2.1706,-2.1794,-2.1496,-2.1375,-2.1389,-2.1496,-2.1409,-2.1421,-2.1353,-2.1177,-2.098,-2.079,-2.0627,-2.0476,-2.0476,-2.0476,-2.0476,-2.0476,-2.0682,-2.0824,-2.0933,-2.098,-2.1109,-2.1299,-2.1245,-2.1265,-2.1367,-2.1355,-2.1496,-2.1597,-2.1496,-2.1496,-1.746,-1.7717,-1.8092,-1.8443,-1.8993,-1.9569,-2.0105,-2.0417,-2.0682,-2.1021,-2.1089,-2.1068,-2.1021,-2.1089,-2.1231,-2.1374,-2.1903,-2.2344,-2.25,-2.2852,-2.3185,-2.3343,-2.3361,-2.3381,-2.3571,-2.3558,-2.3524,-2.3503,-2.347,-2.3415,-2.3289,-2.3273,-2.3259,-2.3289,-2.3273,-2.3273,-2.3289,-2.3273,-2.3219,-2.3219,-2.3307,-2.3415,-2.3503,-2.368,-2.3734,-2.368,-2.3524,-2.3343,-2.3347,-2.3259,-2.3219,-2.3205,-2.3063,-2.2961,-2.2852,-2.273,-2.2567,-2.2391,-2.2215,-2.2038,-2.1848,-2.1652,-2.1509,-2.1389,-2.1509,-2.1564,-2.1652,-2.1794,-2.1882,-2.1971,-2.2079,-2.1991,-2.1815,-2.1652,-2.1597,-2.155,-2.1455,-2.1638,-2.1726,-2.1429,-2.1638,-2.1726,-2.1475,-2.1375,-2.1375,-2.1375,-2.1375,-2.1321,-2.1231,-2.1143,-2.1034,-2.0878,-2.0716,-2.0627,-2.0627,-2.0573,-2.0476,-2.0476,-2.0627,-2.077,-2.098,-2.1055,-2.1177,-2.1353,-2.1319,-2.1353,-2.1375,-2.1496,-2.1584,-2.1672,-2.1638,-2.1672,-1.7568,-1.786,-1.8267,-1.9006,-1.9359,-1.9766,-2.0627,-2.0946,-2.1068,-2.1211,-2.1245,-2.1231,-2.1109,-2.1319,-2.1564,-2.1686,-2.2201,-2.2692,-2.2764,-2.3029,-2.3273,-2.3377,-2.3377,-2.3363,-2.3397,-2.3571,-2.3524,-2.3259,-2.3289,-2.3309,-2.3187,-2.3219,-2.3219,-2.3219,-2.3219,-2.3219,-2.3219,-2.3219,-2.3219,-2.3219,-2.3219,-2.3219,-2.3239,-2.3646,-2.3768,-2.3626,-2.3524,-2.3309,-2.3219,-2.3219,-2.3219,-2.3205,-2.3063,-2.3008,-2.2974,-2.2676,-2.2644,-2.2569,-2.2079,-2.1916,-2.1828,-2.1564,-2.1409,-2.1496,-2.1638,-2.1774,-2.1916,-2.2072,-2.2215,-2.2289,-2.216,-2.2127,-2.2079,-2.1937,-2.1672,-2.1389,-2.1375,-2.1564,-2.1618,-2.1409,-2.1564,-2.1618,-2.1409,-2.1375,-2.1375,-2.1375,-2.1375,-2.1387,-2.1245,-2.1211,-2.1157,-2.1034,-2.0878,-2.079,-2.079,-2.0648,-2.056,-2.056,-2.0539,-2.0661,-2.0946,-2.1109,-2.1211,-2.1231,-2.1387,-2.1455,-2.1455,-2.1618,-2.1706,-2.1706,-2.1828,-2.1882,-1.7439,-1.7772,-1.8247,-1.8884,-1.9678,-2.0471,-2.1143,-2.1319,-2.1353,-2.1321,-2.1584,-2.1726,-2.1706,-2.1937,-2.2113,-2.2025,-2.2411,-2.2744,-2.2784,-2.294,-2.3205,-2.3592,-2.3415,-2.3361,-2.3612,-2.3449,-2.3347,-2.3323,-2.3255,-2.3307,-2.3323,-2.3293,-2.3219,-2.3219,-2.3219,-2.3219,-2.3219,-2.3219,-2.3219,-2.3219,-2.3219,-2.3219,-2.3219,-2.3327,-2.3347,-2.3327,-2.3537,-2.347,-2.3219,-2.3219,-2.3219,-2.3205,-2.3063,-2.3008,-2.2995,-2.2798,-2.2656,-2.2603,-2.2445,-2.2181,-2.1862,-2.1815,-2.1706,-2.1638,-2.1719,-2.1774,-2.1916,-2.2072,-2.2127,-2.2181,-2.2269,-2.2201,-2.2113,-2.2072,-2.1828,-2.1584,-2.1455,-2.1564,-2.1618,-2.1409,-2.1564,-2.1618,-2.1409,-2.1375,-2.1375,-2.1375,-2.1375,-2.1421,-2.1387,-2.1285,-2.1197,-2.1177,-2.1034,-2.0946,-2.0946,-2.0804,-2.0716,-2.0716,-2.0614,-2.051,-2.0627,-2.0892,-2.1157,-2.1321,-2.155,-2.1618,-2.1618,-2.176,-2.1903,-2.2025,-2.1916,-2.195,-1.7534,-1.7968,-1.8511,-1.9413,-2.0153,-2.0804,-2.1408,-2.1597,-2.1706,-2.1937,-2.2038,-2.2093,-2.2093,-2.2344,-2.25,-2.2344,-2.2642,-2.2886,-2.2886,-2.3083,-2.3327,-2.3646,-2.347,-2.3415,-2.3666,-2.3402,-2.3259,-2.3327,-2.3273,-2.3259,-2.3275,-2.3259,-2.3219,-2.3219,-2.3219,-2.3219,-2.3219,-2.3219,-2.3219,-2.3219,-2.3219,-2.3219,-2.3219,-2.3219,-2.3259,-2.3327,-2.3415,-2.3361,-2.3219,-2.3219,-2.3219,-2.3219,-2.313,-2.3117,-2.3083,-2.2873,-2.273,-2.2692,-2.2411,-2.2181,-2.1991,-2.1903,-2.1828,-2.1794,-2.1862,-2.1937,-2.2038,-2.2255,-2.2269,-2.2249,-2.2411,-2.2337,-2.2181,-2.2038,-2.1828,-2.1652,-2.1564,-2.1618,-2.1618,-2.1409,-2.1564,-2.1618,-2.1409,-2.1375,-2.1375,-2.1375,-2.1375,-2.1375,-2.1375,-2.1367,-2.1319,-2.1319,-2.1123,-2.1001,-2.1001,-2.079,-2.0668,-2.0668,-2.053,-2.051,-2.0648,-2.0878,-2.1068,-2.1231,-2.1509,-2.1672,-2.1672,-2.1882,-2.2038,-2.2113,-2.2113,-2.2147,-1.7663,-1.8179,-1.8918,-2.0044,-2.0594,-2.1001,-2.1584,-2.1815,-2.2038,-2.2569,-2.25,-2.2411,-2.2411,-2.2642,-2.2784,-2.2696,-2.2907,-2.3097,-2.3117,-2.3327,-2.3537,-2.37,-2.3571,-2.3537,-2.3666,-2.3449,-2.3273,-2.3219,-2.3273,-2.3293,-2.3259,-2.3293,-2.3293,-2.3259,-2.3293,-2.3273,-2.3219,-2.3273,-2.3293,-2.3293,-2.3293,-2.3293,-2.3293,-2.3273,-2.3307,-2.3323,-2.3235,-2.3239,-2.3219,-2.3219,-2.3219,-2.3219,-2.3219,-2.3219,-2.3185,-2.2886,-2.2784,-2.273,-2.2303,-2.2127,-2.2093,-2.1971,-2.1916,-2.195,-2.2079,-2.2147,-2.2235,-2.2556,-2.2466,-2.2411,-2.259,-2.2445,-2.2269,-2.1991,-2.1815,-2.1692,-2.1638,-2.1652,-2.1618,-2.1409,-2.155,-2.1584,-2.1455,-2.1375,-2.1375,-2.1375,-2.1375,-2.1375,-2.1375,-2.1375,-2.1375,-2.1375,-2.1231,-2.1068,-2.1034,-2.079,-2.0614,-2.0573,-2.0496,-2.0614,-2.077,-2.0912,-2.1021,-2.1034,-2.1462,-2.1686,-2.1706,-2.1991,-2.2127,-2.2147,-2.222,-2.2268,-1.7229,-1.8179,-1.9305,-2.0119,-2.075,-2.1285,-2.174,-2.1971,-2.2201,-2.2656,-2.273,-2.273,-2.273,-2.2866,-2.3008,-2.3117,-2.3273,-2.3436,-2.3578,-2.3626,-2.37,-2.3843,-2.3734,-2.3666,-2.368,-2.3646,-2.3503,-2.3239,-2.347,-2.3558,-2.3356,-2.3537,-2.3558,-2.3356,-2.3558,-2.349,-2.3219,-2.349,-2.3626,-2.3626,-2.3626,-2.3626,-2.3612,-2.3483,-2.3289,-2.3259,-2.3361,-2.3347,-2.3219,-2.3219,-2.3219,-2.3219,-2.3219,-2.3219,-2.3185,-2.2886,-2.2784,-2.273,-2.2411,-2.2215,-2.2113,-2.2093,-2.2079,-2.2079,-2.2113,-2.2289,-2.2569,-2.2603,-2.2603,-2.2534,-2.2624,-2.2445,-2.2234,-2.2127,-2.1971,-2.1774,-2.153,-2.1584,-2.1618,-2.1409,-2.1389,-2.1455,-2.1375,-2.1375,-2.1375,-2.1375,-2.1375,-2.1375,-2.1375,-2.1375,-2.1375,-2.1375,-2.1341,-2.1267,-2.1197,-2.1034,-2.0878,-2.0756,-2.0614,-2.0614,-2.077,-2.0912,-2.1055,-2.1177,-2.1509,-2.1794,-2.1848,-2.2025,-2.2181,-2.2303,-2.2323,-2.2268,-1.7623,-1.8375,-1.9203,-2.0144,-2.077,-2.1211,-2.1652,-2.1882,-2.2113,-2.2624,-2.2656,-2.2764,-2.3097,-2.3273,-2.3436,-2.3571,-2.366,-2.3748,-2.391,-2.3924,-2.3944,-2.4012,-2.3965,-2.389,-2.3802,-2.3734,-2.3626,-2.349,-2.3612,-2.3646,-2.3571,-2.3714,-2.3734,-2.3592,-2.3646,-2.3612,-2.3483,-2.3436,-2.347,-2.3558,-2.347,-2.347,-2.3558,-2.3411,-2.3343,-2.3347,-2.3343,-2.3289,-2.3219,-2.3219,-2.3219,-2.3219,-2.3219,-2.3219,-2.3185,-2.2886,-2.2784,-2.2744,-2.2445,-2.2235,-2.2127,-2.2215,-2.2181,-2.2127,-2.2215,-2.2391,-2.2644,-2.2656,-2.2692,-2.2644,-2.2656,-2.2445,-2.2181,-2.2025,-2.1862,-2.1706,-2.1496,-2.1618,-2.1774,-2.1706,-2.155,-2.1409,-2.155,-2.1564,-2.1564,-2.1564,-2.1564,-2.155,-2.1389,-2.1375,-2.1375,-2.1375,-2.1301,-2.1245,-2.1109,-2.0967,-2.0804,-2.0648,-2.0573,-2.0614,-2.077,-2.0912,-2.1068,-2.1211,-2.1509,-2.1706,-2.176,-2.1916,-2.2059,-2.2215,-2.2215,-2.2249,-1.7704,-1.8253,-1.8854,-1.9922,-2.0526,-2.0967,-2.1441,-2.1692,-2.195,-2.2357,-2.2569,-2.271,-2.3239,-2.3524,-2.3734,-2.3877,-2.3965,-2.4066,-2.4209,-2.4229,-2.4229,-2.4229,-2.4229,-2.4155,-2.3965,-2.3931,-2.3856,-2.3754,-2.3802,-2.3856,-2.3856,-2.3944,-2.3944,-2.3802,-2.3856,-2.3822,-2.3626,-2.347,-2.3436,-2.3503,-2.3436,-2.3436,-2.3503,-2.3397,-2.3377,-2.3377,-2.3377,-2.3309,-2.3273,-2.3239,-2.3219,-2.3219,-2.3219,-2.3205,-2.313,-2.2873,-2.2764,-2.2696,-2.2425,-2.22,-2.2181,-2.2303,-2.22,-2.2201,-2.2303,-2.2445,-2.2644,-2.2696,-2.2712,-2.2644,-2.2696,-2.2445,-2.2127,-2.1937,-2.1794,-2.1686,-2.153,-2.1672,-2.1828,-2.1828,-2.1652,-2.153,-2.1597,-2.1618,-2.1618,-2.1618,-2.1618,-2.1564,-2.1389,-2.1375,-2.1375,-2.1375,-2.1299,-2.1157,-2.1021,-2.0858,-2.0716,-2.0614,-2.0594,-2.0682,-2.0878,-2.1001,-2.1123,-2.1265,-2.1496,-2.1638,-2.1672,-2.1774,-2.1916,-2.2113,-2.2113,-2.2201,-1.6917,-1.7527,-1.8181,-1.904,-1.982,-2.0462,-2.1109,-2.1462,-2.1774,-2.2079,-2.2357,-2.2656,-2.2974,-2.3381,-2.3734,-2.3877,-2.4141,-2.4365,-2.4528,-2.4548,-2.4548,-2.4548,-2.4548,-2.4419,-2.4141,-2.4351,-2.4331,-2.391,-2.4155,-2.4235,-2.4235,-2.4317,-2.4188,-2.41,-2.4372,-2.4175,-2.3397,-2.3734,-2.3788,-2.3666,-2.3802,-2.3788,-2.3666,-2.3524,-2.3377,-2.3377,-2.3377,-2.3377,-2.3356,-2.3273,-2.3219,-2.3219,-2.3219,-2.313,-2.3008,-2.2832,-2.2696,-2.2603,-2.2391,-2.2268,-2.2323,-2.2268,-2.2268,-2.2323,-2.2268,-2.2445,-2.2624,-2.2644,-2.2624,-2.2624,-2.2644,-2.2445,-2.2249,-2.195,-2.1882,-2.1828,-2.1686,-2.1672,-2.1686,-2.1686,-2.1672,-2.1618,-2.1475,-2.1389,-2.1389,-2.1389,-2.1389,-2.1389,-2.1375,-2.1375,-2.1375,-2.1375,-2.1299,-2.1157,-2.1021,-2.0858,-2.077,-2.0821,-2.0756,-2.0892,-2.1177,-2.1197,-2.1265,-2.1421,-2.1441,-2.153,-2.1672,-2.1739,-2.1828,-2.2113,-2.2113,-2.2201,-1.6971,-1.7344,-1.7792,-1.8694,-1.9413,-2.001,-2.0404,-2.0804,-2.1231,-2.1726,-2.1991,-2.2269,-2.2764,-2.3314,-2.3754,-2.3999,-2.4209,-2.4398,-2.4806,-2.486,-2.486,-2.486,-2.4772,-2.4596,-2.4297,-2.4365,-2.4406,-2.4331,-2.4419,-2.4528,-2.4629,-2.4629,-2.4528,-2.4202,-2.4365,-2.4155,-2.3612,-2.3788,-2.3877,-2.3822,-2.3877,-2.3822,-2.368,-2.3714,-2.3626,-2.3377,-2.3377,-2.3323,-2.3293,-2.3239,-2.3219,-2.3219,-2.3219,-2.3185,-2.3117,-2.2873,-2.2744,-2.2656,-2.2425,-2.2269,-2.2215,-2.2411,-2.2344,-2.2235,-2.2411,-2.252,-2.2624,-2.2624,-2.2624,-2.2624,-2.2624,-2.2378,-2.2147,-2.1937,-2.1882,-2.1862,-2.1815,-2.174,-2.1726,-2.1916,-2.1794,-2.1686,-2.1726,-2.1652,-2.1618,-2.1706,-2.1652,-2.1584,-2.1584,-2.1496,-2.1341,-2.1299,-2.1333,-2.1265,-2.1021,-2.1034,-2.1021,-2.0933,-2.0912,-2.1001,-2.1211,-2.1211,-2.1333,-2.1584,-2.1584,-2.1564,-2.153,-2.1618,-2.1774,-2.1971,-2.2059,-2.2201,-1.6849,-1.7114,-1.7487,-1.8389,-1.8918,-1.9359,-1.9963,-2.0329,-2.0702,-2.1252,-2.1705,-2.2004,-2.2411,-2.3008,-2.3571,-2.391,-2.4114,-2.4398,-2.4826,-2.4948,-2.5036,-2.5091,-2.5003,-2.4847,-2.4596,-2.4499,-2.4596,-2.4636,-2.4636,-2.4704,-2.486,-2.4772,-2.4629,-2.4419,-2.4277,-2.41,-2.391,-2.3856,-2.3822,-2.3822,-2.3768,-2.37,-2.3612,-2.3646,-2.3592,-2.3377,-2.3323,-2.3347,-2.3293,-2.3239,-2.3219,-2.3219,-2.3219,-2.3171,-2.3049,-2.2852,-2.271,-2.2608,-2.2411,-2.2303,-2.2289,-2.2556,-2.2481,-2.2289,-2.25,-2.252,-2.2479,-2.2479,-2.2479,-2.2479,-2.2479,-2.2303,-2.2093,-2.1991,-2.1916,-2.1903,-2.195,-2.1882,-2.1862,-2.2004,-2.1882,-2.1774,-2.1862,-2.176,-2.1726,-2.1862,-2.1794,-2.174,-2.174,-2.1618,-2.1475,-2.1374,-2.1367,-2.1279,-2.1089,-2.1109,-2.1123,-2.1068,-2.1068,-2.1157,-2.1353,-2.1374,-2.1475,-2.174,-2.174,-2.1686,-2.1584,-2.1686,-2.1815,-2.1971,-2.2059,-2.2201,0.0,0.0,0.0,-1.807,-1.8301,-1.862,-1.9786,-2.0064,-2.0207,-2.0668,-2.1333,-2.1862,-2.1882,-2.25,-2.3137,-2.3578,-2.4033,-2.4385,-2.4548,-2.4826,-2.507,-2.5213,-2.5233,-2.5179,-2.5036,-2.5023,-2.4969,-2.4826,-2.4806,-2.486,-2.5023,-2.4738,-2.4562,-2.4624,-2.4121,-2.4053,-2.4256,-2.391,-2.37,-2.368,-2.3537,-2.3397,-2.3377,-2.3307,-2.3307,-2.3377,-2.3293,-2.3255,-2.3377,-2.3293,-2.3219,-2.3219,-2.3219,-2.3049,-2.2784,-2.2784,-2.2608,-2.2288,-2.2288,-2.2445,-2.2624,-2.2644,-2.2624,-2.2624,-2.2624,-2.2466,-2.2268,-2.2268,-2.2268,-2.2268,-2.2268,-2.2235,-2.2113,-2.2113,-2.2004,-2.1937,-2.2093,-2.2113,-2.2079,-2.1916,-2.1903,-2.1882,-2.1882,-2.1774,-2.1726,-2.1862,-2.1882,-2.1882,-2.1882,-2.176,-2.1672,-2.1672,-2.1408,-2.1231,-2.1211,-2.1089,-2.1068,-2.1211,-2.1211,-2.1353,-2.1719,-2.1672,-2.174,-2.1882,-2.1882,-2.1903,-2.1903,-2.1903,-2.1971,-2.2113,-2.2113,-2.2201,-1.6422,0.0,0.0,0.0,0.0,0.0,-1.8816,-1.9217,-1.9644,-2.0315,-2.079,-2.1245,-2.1774,-2.2323,-2.2764,-2.2995,-2.3592,-2.4141,-2.4507,-2.4914,-2.5233,-2.5376,-2.5301,-2.5213,-2.5179,-2.507,-2.5091,-2.5267,-2.5077,-2.507,-2.5321,-2.4847,-2.446,-2.4243,-2.4121,-2.41,-2.4114,-2.4066,-2.3944,-2.3843,-2.391,-2.3695,-2.3377,-2.3626,-2.3612,-2.3377,-2.3524,-2.3578,-2.3592,-2.3327,-2.3219,-2.3219,-2.3219,-2.3117,-2.294,-2.294,-2.2818,-2.2656,-2.2656,-2.2608,-2.2658,-2.2818,-2.2656,-2.2445,-2.2656,-2.2534,-2.2268,-2.2268,-2.2268,-2.2268,-2.2268,-2.2303,-2.2269,-2.2269,-2.2249,-2.2215,-2.2269,-2.2269,-2.22,-2.2215,-2.2127,-2.2038,-2.2038,-2.1916,-2.1882,-2.2025,-2.195,-2.1916,-2.2038,-2.1916,-2.174,-2.153,-2.153,-2.1462,-2.1231,-2.1279,-2.1333,-2.1367,-2.1367,-2.1462,-2.1672,-2.1672,-2.1794,-2.2038,-2.2038,-2.2113,-2.2215,-2.2093,-2.2072,-2.2113,-2.2215,-2.2234,-1.6205,-1.6429,-1.6682,-1.7209,0.0,0.0,-1.8586,-1.8972,-1.9379,-2.001,-2.0471,-2.0912,-2.1333,-2.195,-2.2344,-2.2567,-2.3171,-2.3768,-2.4229,-2.4724,-2.5111,-2.5267,-2.5301,-2.5301,-2.5233,-2.5111,-2.507,-2.5179,-2.5023,-2.4969,-2.5155,-2.4704,-2.4365,-2.4121,-2.4053,-2.4033,-2.4033,-2.391,-2.3822,-2.3802,-2.3768,-2.3646,-2.3377,-2.3558,-2.3592,-2.3558,-2.3571,-2.3626,-2.3666,-2.3415,-2.3307,-2.3307,-2.3239,-2.313,-2.3008,-2.3008,-2.2907,-2.2784,-2.2784,-2.2764,-2.2764,-2.2873,-2.2744,-2.2554,-2.2656,-2.252,-2.2268,-2.2268,-2.2268,-2.2268,-2.2268,-2.2268,-2.2268,-2.2268,-2.2268,-2.2268,-2.2268,-2.2268,-2.2268,-2.2268,-2.2215,-2.2127,-2.2201,-2.2079,-2.2025,-2.2181,-2.2127,-2.2079,-2.2113,-2.1971,-2.1794,-2.1564,-2.1564,-2.153,-2.1408,-2.1421,-2.1409,-2.153,-2.153,-2.1597,-2.176,-2.1815,-2.1971,-2.2201,-2.2201,-2.2249,-2.2268,-2.2249,-2.2201,-2.2215,-2.2234,-2.2268,-1.6017,-1.6293,-1.6723,-1.7087,-1.7399,0.0,-1.8694,-1.9006,-1.9237,-1.9752,-2.0261,-2.0648,-2.0736,-2.1299,-2.1862,-2.216,-2.271,-2.3293,-2.3843,-2.4419,-2.486,-2.5023,-2.5267,-2.5376,-2.5267,-2.5111,-2.4982,-2.488,-2.4826,-2.4724,-2.4528,-2.4385,-2.4188,-2.41,-2.3965,-2.389,-2.389,-2.3626,-2.3558,-2.368,-2.3381,-2.3307,-2.3415,-2.3255,-2.3436,-2.37,-2.3571,-2.3612,-2.3734,-2.3558,-2.3397,-2.3363,-2.3273,-2.313,-2.3008,-2.3029,-2.294,-2.2818,-2.2818,-2.2907,-2.2995,-2.2873,-2.2798,-2.273,-2.2678,-2.2466,-2.2268,-2.2268,-2.2268,-2.2268,-2.2268,-2.2268,-2.2268,-2.2268,-2.2268,-2.2268,-2.2268,-2.2268,-2.2268,-2.2268,-2.2235,-2.2181,-2.2254,-2.2235,-2.2181,-2.2254,-2.2268,-2.222,-2.2127,-2.1991,-2.1848,-2.1692,-2.155,-2.1509,-2.1638,-2.1509,-2.1509,-2.1719,-2.1672,-2.174,-2.1903,-2.2038,-2.2181,-2.2268,-2.2268,-2.2268,-2.2268,-2.2268,-2.2268,-2.2268,-2.2268,-2.2268,-1.6171,-1.6307,-1.6497,-1.6917,-1.7243,0.0,-1.8145,-1.8389,-1.8728,-1.9535,-1.9698,-1.9875,-2.0471,-2.0804,-2.1089,-2.1387,-2.1937,-2.2744,-2.391,-2.4494,-2.4894,-2.5159,-2.5145,-2.5199,-2.5389,-2.5179,-2.5111,-2.5321,-2.5111,-2.4758,-2.4229,-2.4175,-2.41,-2.3944,-2.391,-2.389,-2.389,-2.3843,-2.3768,-2.368,-2.3483,-2.3289,-2.3273,-2.349,-2.368,-2.3856,-2.3944,-2.4087,-2.4114,-2.3802,-2.3558,-2.3363,-2.3273,-2.313,-2.3029,-2.313,-2.3083,-2.2974,-2.3097,-2.3083,-2.3029,-2.3117,-2.2886,-2.2622,-2.271,-2.2554,-2.2268,-2.2268,-2.2268,-2.2268,-2.2268,-2.2268,-2.2268,-2.2268,-2.2268,-2.2268,-2.2268,-2.2268,-2.2268,-2.2268,-2.2254,-2.2303,-2.2268,-2.2254,-2.2303,-2.2268,-2.2268,-2.222,-2.2127,-2.2093,-2.1971,-2.1706,-2.1638,-2.1584,-2.1496,-2.1389,-2.1509,-2.1719,-2.1672,-2.1794,-2.2059,-2.2093,-2.2181,-2.2268,-2.2268,-2.2268,-2.2268,-2.2268,-2.2268,-2.2268,-2.2268,-2.2268,-1.6015,-1.6137,-1.6368,-1.6592,-1.6978,0.0,0.0,-1.8213,-1.8565,-1.9154,-1.94,-1.9657,-2.0031,-2.0404,-2.0804,-2.1245,-2.1652,-2.2235,-2.3205,-2.3856,-2.4317,-2.4541,-2.4629,-2.4718,-2.4792,-2.465,-2.4629,-2.4772,-2.465,-2.444,-2.4141,-2.4121,-2.4012,-2.3788,-2.3856,-2.3822,-2.368,-2.368,-2.3646,-2.3558,-2.3415,-2.3293,-2.3219,-2.3381,-2.3578,-2.3788,-2.3877,-2.4033,-2.4134,-2.3843,-2.3626,-2.3537,-2.3307,-2.3219,-2.3219,-2.3219,-2.3171,-2.313,-2.3205,-2.3171,-2.3117,-2.3117,-2.2961,-2.2784,-2.2784,-2.2622,-2.2432,-2.2357,-2.2268,-2.2254,-2.2249,-2.2235,-2.2201,-2.2127,-2.2113,-2.2127,-2.2215,-2.2235,-2.2249,-2.2323,-2.2268,-2.2268,-2.2268,-2.2269,-2.2249,-2.2323,-2.2269,-2.216,-2.2025,-2.2004,-2.1882,-2.1584,-2.1564,-2.1564,-2.155,-2.1475,-2.153,-2.176,-2.1774,-2.1882,-2.2093,-2.2181,-2.22,-2.2268,-2.2268,-2.2268,-2.2268,-2.2268,-2.2268,-2.2268,-2.2268,-2.2378,-1.5959,-1.6128,-1.651,-1.6456,-1.6883,-1.7419,0.0,0.0,0.0,-1.8796,-1.9242,-1.9522,-1.961,-2.0031,-2.0539,-2.1055,-2.1333,-2.1686,-2.2221,-2.2873,-2.3402,-2.368,-2.391,-2.4033,-2.3999,-2.3965,-2.3978,-2.4066,-2.3999,-2.3978,-2.4066,-2.4012,-2.391,-2.3734,-2.3768,-2.37,-2.3431,-2.3397,-2.3377,-2.3377,-2.3255,-2.3273,-2.3273,-2.3293,-2.347,-2.3714,-2.3714,-2.3877,-2.41,-2.3843,-2.3734,-2.3734,-2.3395,-2.3255,-2.3323,-2.3293,-2.3239,-2.3219,-2.3219,-2.3219,-2.3205,-2.3083,-2.3008,-2.294,-2.2784,-2.2692,-2.25,-2.2411,-2.2357,-2.2303,-2.2147,-2.2113,-2.2079,-2.1916,-2.1903,-2.195,-2.2079,-2.2127,-2.2201,-2.2254,-2.2268,-2.2268,-2.2268,-2.2235,-2.2201,-2.2254,-2.2215,-2.2059,-2.1903,-2.1862,-2.174,-2.1409,-2.1375,-2.1496,-2.1618,-2.155,-2.1597,-2.1862,-2.1916,-2.1991,-2.2147,-2.2269,-2.2268,-2.2268,-2.2268,-2.2288,-2.2378,-2.2378,-2.2308,-2.2268,-2.2308,-2.2445,-1.6696,-1.6899,-1.7229,-1.6971,-1.7351,-1.7847,-1.7902,0.0,-1.8335,-1.9006,0.0,-1.8993,-1.9379,0.0,0.0,-2.0017,-2.0569,-2.0987,-2.1319,-2.1672,-2.2201,-2.3008,-2.3029,-2.3117,-2.3483,-2.3395,-2.3483,-2.389,-2.3558,-2.3503,-2.389,-2.366,-2.3626,-2.3856,-2.3626,-2.3558,-2.3646,-2.3524,-2.3377,-2.3377,-2.3356,-2.3356,-2.3356,-2.3571,-2.3714,-2.3877,-2.3877,-2.3965,-2.41,-2.3944,-2.3944,-2.4033,-2.3519,-2.3347,-2.3259,-2.3309,-2.3275,-2.3219,-2.3219,-2.3219,-2.3219,-2.3205,-2.3029,-2.2784,-2.2692,-2.2479,-2.2391,-2.25,-2.2445,-2.2303,-2.2147,-2.2113,-2.2079,-2.1916,-2.1991,-2.2093,-2.2113,-2.2215,-2.2254,-2.2268,-2.2268,-2.2268,-2.2268,-2.2323,-2.2254,-2.2268,-2.2215,-2.2059,-2.1903,-2.1774,-2.1638,-2.1389,-2.1375,-2.1441,-2.1455,-2.1584,-2.1706,-2.1862,-2.2004,-2.2147,-2.2303,-2.2323,-2.2268,-2.2268,-2.2268,-2.2411,-2.2534,-2.2534,-2.2466,-2.2268,-2.2466,-2.2603,-1.6797,-1.7027,-1.7351,-1.7053,-1.7365,-1.7717,-1.7623,-1.786,-1.8179,-1.8498,0.0,0.0,0.0,0.0,0.0,0.0,-2.0417,-2.0736,-2.1055,-2.1123,-2.1441,-2.2255,-2.2303,-2.2378,-2.2642,-2.2622,-2.2764,-2.3225,-2.3151,-2.3219,-2.3483,-2.3558,-2.3558,-2.3503,-2.3626,-2.366,-2.3558,-2.3734,-2.3748,-2.3592,-2.3592,-2.3592,-2.3571,-2.3558,-2.368,-2.389,-2.3978,-2.4066,-2.4121,-2.4053,-2.4012,-2.3965,-2.3788,-2.3612,-2.347,-2.3361,-2.3273,-2.3219,-2.3219,-2.3219,-2.3205,-2.313,-2.3008,-2.2886,-2.273,-2.2642,-2.2588,-2.2624,-2.252,-2.2411,-2.2167,-2.2113,-2.2079,-2.1916,-2.1862,-2.1903,-2.2079,-2.2093,-2.2127,-2.2303,-2.2268,-2.2303,-2.2215,-2.2201,-2.2235,-2.2323,-2.2215,-2.2093,-2.2025,-2.1971,-2.1862,-2.1706,-2.1706,-2.1706,-2.1706,-2.176,-2.1862,-2.2004,-2.216,-2.2303,-2.2466,-2.2378,-2.2378,-2.2466,-2.2466,-2.2534,-2.2696,-2.2696,-2.2656,-2.2601,-2.2656,-2.273,-1.6973,-1.721,-1.7521,-1.7182,-1.7405,-1.765,-1.7467,0.0,0.0,-1.8253,-1.8728,0.0,0.0,0.0,-2.001,-2.0227,0.0,-2.0614,-2.0845,-2.0756,-2.0892,-2.1564,-2.1672,-2.176,-2.1916,-2.1848,-2.2004,-2.25,-2.252,-2.2656,-2.2954,-2.3225,-2.3327,-2.3219,-2.3571,-2.368,-2.3451,-2.3836,-2.3877,-2.3612,-2.37,-2.3714,-2.368,-2.3612,-2.368,-2.389,-2.4012,-2.4033,-2.3999,-2.4053,-2.3999,-2.389,-2.3856,-2.3768,-2.3666,-2.347,-2.3327,-2.3219,-2.3273,-2.3259,-2.3205,-2.3063,-2.3008,-2.2995,-2.2873,-2.2784,-2.271,-2.2642,-2.2624,-2.2432,-2.2181,-2.2113,-2.2079,-2.1916,-2.1828,-2.1848,-2.2059,-2.2059,-2.2079,-2.2234,-2.2268,-2.2303,-2.2201,-2.2181,-2.2201,-2.2269,-2.2181,-2.2113,-2.2113,-2.2079,-2.2004,-2.1903,-2.1882,-2.1882,-2.1882,-2.1916,-2.2025,-2.2215,-2.2378,-2.25,-2.2678,-2.252,-2.252,-2.2678,-2.2622,-2.2696,-2.2852,-2.2852,-2.2873,-2.2907,-2.2873,-2.2907,-1.7521,0.0,0.0,-1.7521,-1.7636,-1.7772,0.0,0.0,-1.8389,0.0,0.0,0.0,0.0,-1.9888,-2.0098,-2.0098,-2.0349,0.0,0.0,-2.0374,-2.0505,-2.098,-2.1143,-2.1299,-2.1441,-2.1211,-2.1285,-2.1862,-2.1509,-2.1597,-2.2323,-2.252,-2.2784,-2.3205,-2.3309,-2.3465,-2.368,-2.368,-2.3612,-2.3397,-2.3748,-2.3822,-2.368,-2.3822,-2.3877,-2.389,-2.389,-2.3822,-2.37,-2.3843,-2.389,-2.3877,-2.3734,-2.368,-2.37,-2.3822,-2.3592,-2.3239,-2.3323,-2.3347,-2.3205,-2.3063,-2.3008,-2.3008,-2.3008,-2.2798,-2.2658,-2.273,-2.2567,-2.2303,-2.2147,-2.2113,-2.2079,-2.1916,-2.1991,-2.2093,-2.2113,-2.2215,-2.2323,-2.2268,-2.2268,-2.2268,-2.2268,-2.2268,-2.222,-2.2147,-2.2113,-2.2113,-2.2113,-2.1991,-2.1882,-2.1882,-2.1882,-2.1882,-2.1882,-2.2025,-2.2235,-2.259,-2.2676,-2.2764,-2.2784,-2.2764,-2.2764,-2.2784,-2.2784,-2.2852,-2.3008,-2.3008,-2.3083,-2.3205,-2.3063,-2.3008,0.0,0.0,-1.8552,-1.8002,0.0,0.0,0.0,0.0,0.0,0.0,0.0,0.0,0.0,-1.9908,-2.0098,-2.0098,-2.0349,-2.0476,0.0,-2.0354,-2.0451,-2.0804,-2.0804,-2.0824,-2.098,-2.0824,-2.0892,-2.1408,-2.1299,-2.1408,-2.1862,-2.2215,-2.252,-2.2764,-2.3219,-2.3363,-2.3381,-2.3768,-2.3802,-2.3377,-2.3748,-2.3877,-2.3822,-2.3768,-2.3802,-2.389,-2.3999,-2.3965,-2.3843,-2.4087,-2.4141,-2.4033,-2.3999,-2.391,-2.3802,-2.366,-2.3503,-2.3309,-2.3356,-2.3347,-2.3205,-2.3063,-2.3008,-2.3008,-2.3008,-2.2873,-2.271,-2.2764,-2.2642,-2.2445,-2.2303,-2.22,-2.2249,-2.2201,-2.2147,-2.2147,-2.2235,-2.2215,-2.2215,-2.2254,-2.2411,-2.2445,-2.2288,-2.25,-2.2554,-2.2303,-2.22,-2.22,-2.22,-2.2303,-2.2289,-2.2201,-2.2269,-2.2289,-2.2201,-2.2323,-2.2534,-2.2832,-2.2818,-2.2832,-2.292,-2.2832,-2.2832,-2.292,-2.294,-2.3008,-2.3151,-2.3151,-2.3171,-2.3219,-2.3171,-2.3151,-1.8477,-1.8728,0.0,-1.8565,-1.8708,0.0,-1.843,0.0,-1.9203,0.0,0.0,0.0,0.0,0.0,-2.0261,-2.0261,0.0,-2.0442,0.0,-2.0246,-2.0315,-2.0505,-2.0492,-2.0526,-2.0682,-2.0594,-2.0584,-2.0878,-2.0946,-2.1089,-2.1333,-2.1828,-2.2215,-2.2466,-2.3063,-2.3347,-2.3235,-2.3748,-2.3788,-2.3377,-2.3748,-2.3877,-2.3822,-2.3768,-2.3843,-2.3978,-2.3965,-2.391,-2.3843,-2.4033,-2.4012,-2.389,-2.3999,-2.3944,-2.3802,-2.366,-2.3465,-2.3377,-2.3377,-2.3347,-2.3205,-2.3117,-2.3083,-2.3083,-2.3083,-2.294,-2.2784,-2.2784,-2.2642,-2.2466,-2.2357,-2.2378,-2.2411,-2.2288,-2.2303,-2.2289,-2.2323,-2.22,-2.2215,-2.2254,-2.2445,-2.259,-2.2432,-2.2622,-2.2696,-2.2445,-2.2466,-2.25,-2.25,-2.2567,-2.2608,-2.25,-2.2588,-2.2608,-2.25,-2.2622,-2.2798,-2.2995,-2.2961,-2.2974,-2.3083,-2.2995,-2.2995,-2.3083,-2.3083,-2.313,-2.3219,-2.3219,-2.3219,-2.3219,-2.3219,-2.3219]},{"header":{"parameterUnit":"m.s-1","parameterCategory":1,"la1":30.6,"la2":29.2853,"lo1":-89.7004,"lo2":-87.6739,"dy":0.0162,"dx":0.0183,"nx":112,"ny":82,"refTime":"2024-06-18T12:00:00:Z","depth":0,"parameterNumber":3,"parameterNumberName":"V-component_of_WINDS"},"data":[0.0,0.0,0.0,0.0,0.0,0.0,0.0,0.0,0.0,0.0,0.0,0.0,0.0,0.0,0.0,0.0,0.0,0.0,0.0,0.0,0.0,0.0,0.0,0.0,0.0,0.0,0.0,0.0,0.0,0.0,0.0,0.0,0.0,0.0,0.0,0.0,0.0,0.0,0.0,0.0,0.0,0.0,0.0,0.0,0.0,0.0,0.0,0.0,0.0,0.0,0.0,0.0,0.0,0.0,0.0,0.0,0.0,0.0,0.0,0.0,0.0,0.0,0.0,0.0,0.0,0.0,0.0,0.0,0.0,0.0,0.0,0.0,0.0,0.0,0.0,0.0,0.0,0.0,0.0,0.0,0.0,0.0,0.0,0.0,0.0,0.0,0.0,0.0,0.0,0.0,7.1101,7.323,7.5858,7.7436,7.7326,7.7179,7.4536,6.8435,0.0,0.0,0.0,0.0,0.0,0.0,0.0,0.0,0.0,0.0,0.0,0.0,0.0,0.0,0.0,0.0,0.0,0.0,0.0,0.0,0.0,0.0,0.0,0.0,0.0,0.0,0.0,0.0,0.0,0.0,0.0,0.0,0.0,0.0,0.0,0.0,0.0,0.0,0.0,0.0,0.0,0.0,0.0,0.0,0.0,0.0,0.0,0.0,0.0,0.0,0.0,0.0,0.0,0.0,0.0,0.0,0.0,0.0,0.0,0.0,0.0,0.0,0.0,0.0,0.0,0.0,0.0,0.0,0.0,0.0,0.0,0.0,0.0,0.0,0.0,0.0,0.0,0.0,0.0,0.0,0.0,0.0,0.0,0.0,0.0,0.0,0.0,0.0,0.0,0.0,0.0,0.0,0.0,0.0,0.0,0.0,0.0,0.0,0.0,0.0,0.0,0.0,0.0,0.0,7.2812,7.7194,7.8112,7.8112,7.7362,7.6665,7.4404,7.0,0.0,0.0,0.0,0.0,0.0,0.0,0.0,0.0,0.0,0.0,0.0,0.0,0.0,0.0,0.0,0.0,0.0,0.0,0.0,0.0,0.0,0.0,0.0,0.0,0.0,0.0,0.0,0.0,0.0,0.0,0.0,0.0,0.0,0.0,0.0,0.0,0.0,0.0,0.0,0.0,0.0,0.0,0.0,0.0,0.0,0.0,0.0,0.0,0.0,0.0,0.0,0.0,0.0,0.0,0.0,0.0,0.0,0.0,0.0,0.0,0.0,0.0,0.0,0.0,0.0,0.0,0.0,0.0,0.0,0.0,0.0,0.0,0.0,0.0,0.0,0.0,0.0,0.0,0.0,0.0,0.0,0.0,0.0,0.0,0.0,0.0,0.0,0.0,0.0,0.0,0.0,0.0,0.0,0.0,0.0,0.0,0.0,0.0,0.0,0.0,0.0,0.0,0.0,7.1344,7.3817,7.8751,7.8442,7.7913,7.8002,7.7215,7.4478,6.9132,6.8104,0.0,0.0,0.0,0.0,0.0,0.0,0.0,0.0,0.0,0.0,0.0,0.0,0.0,0.0,0.0,0.0,0.0,0.0,0.0,0.0,0.0,0.0,0.0,0.0,0.0,0.0,0.0,0.0,0.0,0.0,0.0,0.0,0.0,0.0,0.0,0.0,0.0,0.0,0.0,0.0,0.0,0.0,0.0,0.0,0.0,0.0,0.0,0.0,0.0,0.0,0.0,0.0,0.0,0.0,0.0,0.0,0.0,0.0,0.0,0.0,0.0,0.0,0.0,0.0,0.0,0.0,0.0,0.0,0.0,0.0,0.0,0.0,0.0,0.0,0.0,0.0,0.0,0.0,0.0,0.0,0.0,0.0,0.0,0.0,0.0,0.0,0.0,0.0,0.0,0.0,0.0,0.0,0.0,0.0,0.0,0.0,0.0,0.0,0.0,0.0,0.0,0.0,7.4258,7.5652,7.9412,7.8662,7.7986,7.8259,7.6995,7.3839,6.8311,6.7076,0.0,0.0,0.0,0.0,0.0,0.0,0.0,0.0,0.0,0.0,0.0,0.0,0.0,0.0,0.0,0.0,0.0,0.0,0.0,0.0,0.0,0.0,0.0,0.0,0.0,0.0,0.0,0.0,0.0,0.0,0.0,0.0,0.0,0.0,0.0,0.0,0.0,0.0,0.0,0.0,0.0,0.0,0.0,0.0,0.0,0.0,0.0,0.0,0.0,0.0,0.0,0.0,0.0,0.0,0.0,0.0,0.0,0.0,0.0,0.0,0.0,0.0,0.0,0.0,0.0,0.0,0.0,0.0,0.0,0.0,0.0,0.0,0.0,0.0,0.0,0.0,0.0,0.0,0.0,0.0,0.0,0.0,0.0,0.0,0.0,0.0,0.0,0.0,0.0,0.0,0.0,0.0,0.0,0.0,0.0,0.0,0.0,0.0,0.0,0.0,0.0,0.0,7.6533,7.9412,7.9779,7.9706,7.9029,7.7509,7.4573,7.1688,6.9009,6.5251,0.0,0.0,0.0,0.0,0.0,0.0,0.0,0.0,0.0,0.0,0.0,0.0,0.0,0.0,0.0,0.0,0.0,0.0,0.0,0.0,0.0,0.0,0.0,0.0,0.0,0.0,0.0,0.0,0.0,0.0,0.0,0.0,0.0,0.0,0.0,0.0,0.0,0.0,0.0,0.0,0.0,0.0,0.0,0.0,0.0,0.0,0.0,0.0,0.0,0.0,0.0,0.0,0.0,0.0,0.0,0.0,0.0,0.0,0.0,0.0,0.0,0.0,0.0,0.0,0.0,0.0,0.0,0.0,0.0,0.0,0.0,0.0,0.0,0.0,0.0,0.0,0.0,0.0,0.0,0.0,0.0,0.0,0.0,0.0,0.0,0.0,0.0,0.0,0.0,0.0,0.0,0.0,0.0,0.0,0.0,0.0,0.0,0.0,0.0,0.0,0.0,0.0,7.4992,7.7928,8.0975,7.9963,7.8993,7.8883,7.6669,7.3245,6.8448,0.0,0.0,0.0,0.0,0.0,0.0,0.0,0.0,0.0,0.0,0.0,0.0,0.0,0.0,0.0,0.0,0.0,0.0,0.0,0.0,0.0,0.0,0.0,0.0,0.0,0.0,0.0,0.0,0.0,0.0,0.0,0.0,0.0,0.0,0.0,0.0,0.0,0.0,0.0,0.0,0.0,0.0,0.0,0.0,0.0,0.0,0.0,0.0,0.0,0.0,0.0,0.0,0.0,0.0,0.0,0.0,0.0,0.0,0.0,0.0,0.0,0.0,0.0,0.0,0.0,0.0,0.0,0.0,0.0,0.0,0.0,0.0,0.0,0.0,0.0,0.0,0.0,0.0,0.0,0.0,0.0,0.0,0.0,0.0,0.0,0.0,0.0,0.0,0.0,0.0,0.0,0.0,0.0,0.0,0.0,0.0,0.0,0.0,0.0,0.0,0.0,0.0,7.2129,7.505,7.8112,8.1452,8.0351,7.936,7.9412,7.7222,7.3541,6.8035,0.0,0.0,0.0,0.0,0.0,0.0,0.0,0.0,0.0,0.0,0.0,0.0,0.0,0.0,0.0,0.0,0.0,0.0,0.0,0.0,0.0,0.0,0.0,0.0,0.0,0.0,0.0,0.0,0.0,0.0,0.0,0.0,0.0,0.0,0.0,0.0,0.0,0.0,0.0,0.0,0.0,0.0,0.0,0.0,0.0,0.0,0.0,0.0,0.0,0.0,0.0,0.0,0.0,0.0,0.0,0.0,0.0,0.0,0.0,0.0,0.0,0.0,0.0,0.0,0.0,0.0,0.0,0.0,0.0,0.0,0.0,0.0,0.0,0.0,0.0,0.0,0.0,0.0,0.0,0.0,0.0,0.0,0.0,0.0,0.0,0.0,0.0,0.0,0.0,0.0,0.0,0.0,0.0,0.0,0.0,0.0,0.0,0.0,0.0,0.0,0.0,0.0,7.2422,7.7488,8.1012,8.1048,8.1012,8.0388,7.8772,7.5458,7.1822,0.0,0.0,0.0,0.0,0.0,0.0,0.0,0.0,0.0,0.0,0.0,0.0,0.0,0.0,0.0,0.0,0.0,0.0,0.0,0.0,0.0,0.0,0.0,0.0,0.0,0.0,0.0,0.0,0.0,0.0,0.0,0.0,0.0,0.0,0.0,0.0,0.0,0.0,0.0,0.0,0.0,0.0,0.0,0.0,0.0,0.0,0.0,0.0,0.0,0.0,0.0,0.0,0.0,0.0,0.0,0.0,0.0,0.0,0.0,0.0,0.0,0.0,0.0,0.0,0.0,0.0,0.0,0.0,0.0,0.0,0.0,0.0,0.0,0.0,0.0,0.0,0.0,0.0,0.0,0.0,0.0,0.0,0.0,0.0,0.0,0.0,0.0,0.0,0.0,0.0,0.0,0.0,0.0,0.0,0.0,0.0,0.0,0.0,0.0,0.0,0.0,0.0,0.0,7.3876,7.8662,8.2076,8.261,8.2186,8.1415,8.0388,7.8134,7.4826,7.0175,0.0,0.0,0.0,0.0,0.0,0.0,0.0,0.0,0.0,0.0,0.0,0.0,0.0,0.0,0.0,0.0,0.0,0.0,0.0,0.0,0.0,0.0,0.0,0.0,0.0,0.0,0.0,0.0,0.0,0.0,0.0,0.0,0.0,0.0,0.0,0.0,0.0,0.0,0.0,0.0,0.0,0.0,0.0,0.0,0.0,0.0,0.0,0.0,0.0,0.0,0.0,0.0,0.0,0.0,0.0,0.0,0.0,0.0,0.0,0.0,0.0,0.0,0.0,0.0,0.0,0.0,0.0,0.0,0.0,0.0,0.0,0.0,0.0,0.0,0.0,0.0,0.0,0.0,0.0,0.0,0.0,0.0,0.0,0.0,0.0,0.0,0.0,0.0,0.0,0.0,0.0,0.0,0.0,0.0,0.0,0.0,0.0,0.0,0.0,0.0,0.0,0.0,7.4573,7.947,8.2994,8.3785,8.3434,8.27,8.1562,8.003,7.6912,7.1628,0.0,0.0,0.0,0.0,0.0,0.0,0.0,0.0,0.0,0.0,0.0,0.0,0.0,0.0,0.0,0.0,0.0,0.0,0.0,0.0,0.0,0.0,0.0,0.0,0.0,0.0,0.0,0.0,0.0,0.0,0.0,0.0,0.0,0.0,0.0,0.0,0.0,0.0,0.0,0.0,0.0,0.0,0.0,0.0,0.0,0.0,0.0,0.0,0.0,0.0,0.0,0.0,0.0,0.0,0.0,0.0,0.0,0.0,0.0,0.0,0.0,0.0,0.0,0.0,0.0,0.0,0.0,0.0,0.0,0.0,0.0,0.0,0.0,0.0,0.0,0.0,0.0,0.0,0.0,0.0,0.0,0.0,0.0,0.0,0.0,0.0,0.0,0.0,0.0,0.0,0.0,0.0,0.0,0.0,0.0,0.0,0.0,0.0,0.0,0.0,0.0,0.0,7.5014,8.0078,8.3821,8.4646,8.4719,8.4095,8.2553,8.1414,7.8471,7.3081,0.0,0.0,0.0,0.0,0.0,0.0,0.0,0.0,0.0,0.0,0.0,0.0,0.0,0.0,0.0,0.0,0.0,0.0,0.0,0.0,0.0,0.0,0.0,0.0,0.0,0.0,0.0,0.0,0.0,0.0,0.0,0.0,0.0,0.0,0.0,0.0,0.0,0.0,0.0,0.0,0.0,0.0,0.0,0.0,0.0,0.0,0.0,0.0,0.0,0.0,0.0,0.0,0.0,0.0,0.0,0.0,0.0,0.0,0.0,0.0,7.8515,7.656,0.0,0.0,0.0,0.0,0.0,0.0,0.0,0.0,0.0,0.0,0.0,0.0,0.0,0.0,0.0,0.0,0.0,0.0,0.0,0.0,0.0,0.0,0.0,0.0,0.0,0.0,0.0,0.0,0.0,0.0,0.0,0.0,0.0,0.0,0.0,0.0,0.0,0.0,0.0,0.0,7.7341,8.1636,8.4646,8.5453,8.5527,8.5159,8.4168,8.27,8.0615,7.769,7.3537,0.0,0.0,0.0,0.0,0.0,0.0,0.0,0.0,0.0,0.0,0.0,0.0,0.0,0.0,0.0,0.0,0.0,0.0,0.0,0.0,0.0,0.0,0.0,0.0,0.0,0.0,0.0,0.0,0.0,0.0,0.0,0.0,0.0,0.0,0.0,0.0,0.0,0.0,0.0,0.0,0.0,0.0,0.0,0.0,0.0,0.0,0.0,0.0,0.0,0.0,0.0,0.0,0.0,0.0,0.0,0.0,0.0,0.0,0.0,8.2447,8.0759,0.0,0.0,0.0,0.0,0.0,0.0,0.0,0.0,0.0,0.0,0.0,0.0,0.0,0.0,0.0,0.0,0.0,0.0,0.0,0.0,0.0,0.0,0.0,0.0,0.0,0.0,0.0,0.0,0.0,0.0,0.0,0.0,0.0,0.0,0.0,0.0,0.0,0.0,0.0,0.0,7.8761,8.3345,8.6303,8.6385,8.6701,8.6628,8.582,8.4562,8.2956,8.0931,7.6994,0.0,0.0,0.0,0.0,0.0,0.0,0.0,0.0,0.0,0.0,0.0,0.0,0.0,0.0,0.0,0.0,0.0,0.0,0.0,0.0,0.0,0.0,0.0,0.0,0.0,0.0,0.0,0.0,0.0,0.0,0.0,0.0,0.0,0.0,0.0,0.0,0.0,0.0,0.0,0.0,0.0,0.0,0.0,0.0,0.0,0.0,0.0,0.0,0.0,0.0,0.0,0.0,0.0,8.921,8.944,9.0026,8.9872,8.9872,8.9834,8.6717,8.5824,8.6363,8.4132,0.0,0.0,0.0,0.0,0.0,0.0,0.0,0.0,0.0,0.0,0.0,0.0,0.0,0.0,0.0,0.0,0.0,0.0,0.0,0.0,0.0,0.0,8.1528,8.1633,8.2582,8.2054,7.7008,0.0,0.0,0.0,0.0,0.0,0.0,0.0,0.0,0.0,0.0,0.0,8.0244,8.5104,8.8068,8.7466,8.8007,8.8081,8.7254,8.6449,8.5324,8.3738,8.0383,7.7226,0.0,0.0,0.0,0.0,0.0,0.0,0.0,0.0,0.0,0.0,0.0,0.0,0.0,0.0,0.0,0.0,0.0,0.0,0.0,0.0,0.0,0.0,0.0,0.0,0.0,0.0,0.0,0.0,0.0,0.0,0.0,0.0,8.1554,8.2639,0.0,0.0,0.0,0.0,0.0,0.0,0.0,0.0,0.0,0.0,0.0,0.0,0.0,9.071,9.071,9.2911,9.3335,9.2018,9.4826,9.5865,9.5288,9.4527,9.4566,9.5172,9.321,0.0,8.8256,8.7171,0.0,0.0,0.0,0.0,0.0,0.0,0.0,0.0,0.0,0.0,0.0,0.0,0.0,0.0,0.0,0.0,0.0,0.0,0.0,0.0,0.0,0.0,8.6839,8.7429,8.7714,8.7654,8.6829,8.0479,7.4804,7.4346,7.2946,7.1428,0.0,0.0,0.0,0.0,0.0,0.0,8.3389,8.686,8.9113,8.9005,8.907,8.8831,8.8013,8.7717,8.7399,8.7008,8.3801,8.0714,7.7962,7.463,0.0,0.0,0.0,0.0,0.0,0.0,0.0,0.0,0.0,0.0,0.0,0.0,0.0,0.0,0.0,0.0,0.0,0.0,0.0,0.0,0.0,0.0,0.0,0.0,0.0,0.0,0.0,0.0,0.0,8.1977,8.4055,8.4901,8.544,8.5247,0.0,0.0,0.0,0.0,0.0,0.0,0.0,0.0,0.0,9.4134,9.5018,9.5711,9.6211,9.775,9.8173,9.748,9.9442,10.0212,9.9827,9.9442,9.9481,9.975,9.8019,9.6182,9.4134,9.0864,8.9556,8.9363,0.0,0.0,0.0,0.0,8.6487,8.6602,8.7555,8.7632,8.7209,8.6517,0.0,0.0,0.0,0.0,0.0,0.0,0.0,8.3563,8.5549,8.7503,8.9266,9.0512,9.0834,9.0834,9.0834,8.6936,8.2744,8.0366,7.9156,7.7809,7.5497,7.5426,0.0,0.0,0.0,8.4403,8.6127,8.9578,9.1385,9.0048,9.0315,9.0263,8.9424,8.9188,8.9303,8.9692,8.7379,8.5043,8.2854,7.9092,7.5238,0.0,0.0,0.0,0.0,0.0,0.0,0.0,0.0,0.0,0.0,0.0,0.0,0.0,0.0,0.0,0.0,0.0,0.0,0.0,0.0,0.0,0.0,0.0,0.0,0.0,0.0,0.0,0.0,8.5093,8.647,8.7325,8.8363,8.8402,0.0,0.0,0.0,0.0,0.0,0.0,9.5181,9.5942,9.725,9.9365,10.0289,10.1096,10.1712,10.2289,10.2587,10.2587,10.3289,10.3712,10.3905,10.3712,10.3482,10.3097,10.1481,10.0106,9.875,9.4095,9.2172,9.2018,9.0334,8.968,8.968,8.968,8.968,8.9872,9.1325,9.1825,9.1595,9.0133,8.9094,8.7632,8.3585,0.0,0.0,0.0,0.0,8.7478,8.921,9.0287,9.1248,9.2787,9.3133,9.3133,9.3133,9.1941,8.9748,8.594,8.5063,8.3947,8.0946,8.0473,0.0,8.1508,8.4777,8.7613,8.8976,9.2131,9.349,9.1521,9.1635,9.1496,9.0651,9.0452,9.0663,9.1302,8.9888,8.8209,8.6517,8.3008,7.94,7.5745,0.0,0.0,0.0,0.0,0.0,0.0,0.0,0.0,0.0,0.0,0.0,0.0,0.0,0.0,0.0,0.0,0.0,0.0,0.0,0.0,0.0,0.0,0.0,0.0,0.0,0.0,0.0,0.0,0.0,9.0825,9.2402,0.0,0.0,0.0,0.0,9.2249,9.4557,9.7057,9.9644,10.2106,10.3789,10.4723,10.5597,10.601,10.6087,10.6087,10.6087,10.6087,10.6203,10.6587,10.7405,10.6597,10.579,10.4915,10.3212,10.1481,9.976,9.6259,9.4797,9.4643,9.2941,9.2326,9.2326,9.2326,9.2326,9.2441,9.3287,9.3557,9.3826,9.5365,9.3672,9.0825,8.9701,8.8325,0.0,0.0,8.9663,9.0124,9.1864,9.2903,9.3749,9.4643,9.4874,9.4874,9.4874,9.4181,9.271,9.0086,8.8979,8.7872,8.6017,0.0,8.7607,8.6022,8.9414,9.2174,9.2263,9.3942,9.4769,9.3816,9.3019,9.2234,9.1418,9.1231,9.1175,9.1204,9.0346,8.9086,8.7401,8.5593,8.267,7.8407,7.5014,0.0,0.0,0.0,0.0,0.0,0.0,0.0,0.0,0.0,0.0,0.0,0.0,0.0,0.0,0.0,0.0,0.0,0.0,0.0,0.0,0.0,0.0,0.0,0.0,0.0,0.0,0.0,0.0,9.4326,9.5942,0.0,9.5335,9.5749,9.6673,9.8057,9.9519,10.1481,10.402,10.5482,10.6713,10.7482,10.779,10.8021,10.8021,10.8021,10.829,10.879,10.879,10.929,11.0098,10.9213,10.8713,10.8301,10.602,10.4097,10.2414,9.9981,9.8096,9.6557,9.5942,9.5711,9.5788,9.6365,9.6557,9.6519,9.6249,9.6134,9.6057,9.5595,9.3903,9.2095,9.2287,9.1556,9.0902,9.2018,9.2364,9.2633,9.3796,9.4335,9.4758,9.5634,9.5826,9.5826,9.5826,9.5595,9.5095,9.4201,9.2479,9.0748,8.9594,8.9902,9.0094,8.9479,9.1595,9.348,9.4027,9.5166,9.5557,9.4685,9.3831,9.2977,9.2181,9.1534,9.121,9.121,9.0393,8.9393,8.8295,8.6094,8.367,8.0977,7.763,7.413,0.0,0.0,0.0,0.0,0.0,0.0,0.0,0.0,0.0,0.0,0.0,0.0,0.0,0.0,0.0,0.0,0.0,0.0,0.0,0.0,0.0,0.0,0.0,0.0,0.0,9.3018,9.5634,9.7365,9.9558,10.0712,10.0096,10.0596,10.1404,10.252,10.3712,10.529,10.7598,10.879,10.979,11.0598,11.0598,11.0598,11.0598,11.0598,11.0906,11.1483,11.1483,11.1791,11.2291,11.1714,11.1291,11.0906,10.8713,10.6713,10.4982,10.302,10.1019,9.9135,9.8288,9.8442,9.9211,9.9211,9.9404,9.9481,9.8327,9.7942,9.775,9.6643,9.5518,9.4672,9.4903,9.4595,9.4249,9.4518,9.4595,9.4711,9.5288,9.5451,9.5557,9.6172,9.6288,9.6365,9.6634,9.648,9.648,9.7019,9.5326,9.3518,9.2633,9.2749,9.2826,9.2518,9.3672,9.4788,9.5365,9.5942,9.6095,9.548,9.4681,9.3796,9.2979,9.1864,9.121,9.121,9.0393,8.9556,8.8718,8.6786,8.4786,8.2793,7.9177,7.5599,7.2168,0.0,0.0,0.0,0.0,0.0,0.0,0.0,0.0,0.0,0.0,0.0,0.0,0.0,0.0,0.0,0.0,0.0,0.0,0.0,0.0,0.0,0.0,0.0,9.3787,9.598,9.825,9.999,10.3184,10.4597,10.2981,10.4289,10.53,10.53,10.6905,10.8598,11.0224,11.1791,11.3099,11.3984,11.3984,11.3984,11.3984,11.3984,11.3984,11.3984,11.3984,11.3984,11.3984,11.3984,11.3483,11.2588,11.0983,10.929,10.7598,10.5097,10.3482,10.252,9.9904,10.0404,10.2404,10.0798,10.0712,10.1096,9.9404,9.8827,9.8827,9.8788,9.8788,9.8634,9.775,9.748,9.7288,9.6519,9.6288,9.6288,9.6288,9.6326,9.6326,9.6326,9.6365,9.6596,9.7365,9.6942,9.6865,9.8481,9.748,9.6057,9.522,9.5749,9.6019,9.5181,9.5749,0.0,9.6288,9.6288,9.6288,9.6288,9.5518,9.4643,9.3787,9.221,9.1248,9.121,9.0355,8.9517,8.8718,8.7825,8.617,8.3678,7.9523,7.6553,7.493,0.0,0.0,0.0,0.0,0.0,0.0,0.0,0.0,0.0,0.0,0.0,0.0,0.0,0.0,0.0,0.0,0.0,0.0,0.0,0.0,0.0,9.448,9.6249,9.5672,9.8288,10.1096,10.3405,10.5713,10.6982,10.7213,10.8713,10.9483,10.879,11.0406,11.1522,11.1983,11.2983,11.3791,11.3984,11.3984,11.3984,11.3984,11.3984,11.4291,11.4907,11.4291,11.4291,11.4907,11.4291,11.3907,11.3599,11.2483,11.1098,10.9406,10.8098,10.6982,10.602,10.2789,10.202,10.2597,10.2789,10.2212,10.1212,10.0096,9.976,9.9644,9.9029,9.8788,9.8634,9.775,9.7096,9.6596,9.6365,9.6288,9.6288,9.6288,9.6749,9.7173,9.7173,9.7634,9.8173,9.8404,9.825,9.825,9.8711,9.7904,9.7096,9.6865,9.6519,9.6211,9.598,9.6134,9.6288,9.6288,9.6288,9.6288,9.6288,9.5518,9.4912,9.4643,9.3095,9.1864,9.1248,8.9825,8.894,8.8718,8.7248,8.5863,8.4555,8.0977,7.9477,0.0,0.0,0.0,0.0,0.0,0.0,0.0,0.0,0.0,0.0,0.0,0.0,0.0,0.0,0.0,0.0,0.0,0.0,0.0,0.0,0.0,0.0,9.8288,10.0289,10.051,10.1904,10.3982,10.6905,10.8482,10.979,11.0906,11.1983,11.2291,11.1791,11.2983,11.3791,11.3791,11.4907,11.5599,11.5599,11.5907,11.6099,11.6099,11.6099,11.6407,11.6907,11.5984,11.5907,11.6292,11.5407,11.4984,11.4984,11.4214,11.2983,11.1714,11.0906,11.0021,10.8983,0.0,0.0,0.0,0.0,10.3905,10.2289,10.1404,10.1096,10.1096,10.0596,10.0404,10.0212,9.8942,9.8019,9.7288,9.6903,9.6788,9.6903,9.725,9.7673,9.8057,9.8057,9.8711,9.9336,9.9336,9.9336,9.9442,9.9788,9.8865,0.0,9.8057,9.7057,9.6288,9.6288,9.6288,9.6288,9.6288,9.6288,9.6288,9.6288,9.5865,9.5412,9.5027,9.3749,0.0,0.0,0.0,8.994,8.9248,8.7555,0.0,0.0,0.0,0.0,0.0,0.0,0.0,0.0,8.2702,8.3346,0.0,0.0,0.0,0.0,0.0,0.0,0.0,0.0,0.0,0.0,0.0,0.0,0.0,0.0,0.0,0.0,10.2289,10.4982,10.6597,10.6405,10.7223,11.0098,11.1291,11.2406,11.3984,11.4291,11.4484,11.4599,11.5407,11.5918,11.5918,11.7407,0.0,0.0,0.0,11.9215,11.91,11.91,11.91,11.91,11.8292,11.7907,11.7792,11.6984,11.6611,11.6495,11.5676,11.4907,11.4099,11.3291,11.2511,11.1522,10.8087,10.7598,10.8598,10.7021,10.5405,10.3905,10.302,0.0,0.0,10.2789,10.2712,10.2404,10.0712,9.9644,9.875,9.7904,9.7634,9.7865,9.8711,9.9019,9.9096,9.9211,9.9875,10.0491,10.0491,10.0491,10.0712,10.152,10.0212,9.9058,9.8942,9.7557,9.6403,9.6326,9.6288,9.6288,9.6288,9.6288,9.6288,9.6288,0.0,0.0,9.522,9.4335,9.3835,9.3835,9.3095,9.1902,9.0278,8.8786,8.7594,8.6824,8.7478,8.8248,8.9141,9.0633,9.1441,9.1556,8.7671,8.7863,0.0,0.0,0.0,0.0,0.0,0.0,0.0,0.0,0.0,0.0,0.0,0.0,0.0,0.0,0.0,10.3491,10.6213,10.829,10.929,11.1098,11.2291,11.2214,11.2983,11.3907,11.4907,11.6292,11.7407,11.81,11.8908,11.9292,11.9292,12.0292,12.0216,11.8908,11.96,11.9792,11.91,11.91,11.91,11.91,11.8908,0.0,11.7792,11.76,11.7215,11.6495,11.6303,11.5792,11.4984,11.4907,11.4291,11.3214,11.0483,10.879,10.779,10.679,10.5713,10.48,10.3905,10.4097,10.4482,10.3905,10.3597,10.3289,10.1597,10.0481,0.0,9.8788,9.8557,9.875,9.9606,10.0289,10.1019,10.1712,10.2481,10.3222,10.3222,10.3222,10.3212,10.3405,10.202,10.0596,9.9952,9.8404,9.7057,9.6403,9.6288,9.6288,9.6288,9.6288,9.6288,9.6288,9.6288,9.6249,9.6057,9.5249,9.4758,9.4758,9.3941,9.3018,9.2056,9.1672,9.1441,9.1287,9.0748,9.0902,9.1748,9.2095,9.2941,9.422,9.271,9.2095,0.0,0.0,0.0,0.0,0.0,0.0,0.0,0.0,0.0,0.0,0.0,9.9327,10.3097,0.0,10.579,10.7982,11.0098,11.1791,11.2599,11.4907,11.6099,11.4791,11.5792,11.6907,11.7715,11.8985,12.01,12.0908,12.1408,12.16,12.16,12.2793,12.2716,12.11,12.2216,12.2408,12.16,12.16,12.16,12.16,12.1216,12.0485,11.9715,11.9292,11.86,11.7792,11.7292,11.6907,11.6484,11.6099,11.5407,11.4484,11.3214,11.1483,10.9521,10.8598,10.7213,10.579,10.579,10.5482,10.5097,10.5097,10.4905,10.4299,10.2981,10.1981,10.1289,10.0789,10.0712,10.0904,10.1799,10.2289,10.2712,10.3097,10.4212,10.4982,10.4597,10.4789,10.4982,10.4597,10.3097,10.1712,10.0789,9.9635,9.8211,9.6557,9.6634,9.6903,9.6903,9.6903,9.7057,9.748,9.7173,9.7096,9.7519,9.6749,9.6249,9.6249,9.5066,9.4181,9.3758,9.3326,9.3095,9.3095,9.3095,9.3326,9.3758,9.4172,9.4826,9.5634,9.5634,9.5172,0.0,0.0,0.0,0.0,0.0,0.0,0.0,9.421,9.6903,10.1183,10.3289,10.552,10.9406,11.0098,11.0791,11.2714,11.4214,11.5484,11.6418,11.8715,11.9908,11.86,11.9292,12.0216,12.0985,12.1793,12.2678,12.3601,12.3793,12.3909,12.3909,12.5293,12.5409,12.3716,12.5101,12.5409,12.4409,12.4409,12.4293,12.4101,12.3408,12.2716,12.1793,12.0985,12.01,11.9292,11.8407,11.81,11.8023,11.7292,11.6484,11.5792,11.5792,11.4291,11.2099,11.1098,10.9213,10.7213,10.7905,10.7213,10.5992,10.6713,10.629,10.5492,10.4597,10.3789,10.3097,10.2904,10.2904,10.3097,10.3905,10.4097,10.4212,10.4597,10.5713,10.651,10.6213,10.6482,10.6713,10.5982,10.4482,10.302,10.1789,10.0904,9.9519,9.7134,9.7326,9.775,9.775,9.775,9.8019,9.8711,9.8173,9.8057,9.875,9.8173,9.775,9.775,9.648,9.5643,9.5489,9.4797,9.4364,9.421,9.4912,9.5335,9.5489,9.6172,9.6711,9.7057,9.7519,9.725,8.3332,8.517,8.7863,9.1018,9.2479,9.4749,0.0,10.2597,10.3982,10.8213,10.979,11.128,11.4099,11.4599,11.5407,11.7907,11.8985,11.9908,12.0804,12.3101,12.4909,12.5498,12.3716,12.2793,12.3601,12.4486,12.5293,12.6178,12.6909,12.7282,12.7282,12.8294,12.7986,12.6294,12.7101,12.6909,12.5293,12.5293,12.4909,12.4101,12.3985,12.3485,12.2716,12.1908,12.0997,12.01,11.9292,11.8985,11.8908,11.8792,11.8292,11.7484,11.7484,11.6407,11.4714,11.2983,11.1291,10.979,10.9906,10.929,10.8482,10.8598,10.8098,10.7213,10.6405,10.5482,10.4723,10.3982,10.3789,10.3905,10.48,10.4992,10.5415,10.6905,10.7405,10.7905,10.929,10.9098,10.8598,10.8482,10.7098,10.5202,10.2904,10.1712,10.0596,9.8788,9.8596,9.8634,9.8634,9.8634,9.8673,9.8788,9.8711,9.8673,9.8788,9.8711,9.8634,9.8634,9.8481,9.8019,9.725,9.7134,9.6749,9.6019,9.6095,9.6519,9.7211,9.7326,9.8173,9.9644,9.8981,9.7827,8.8248,8.9902,9.1787,9.4672,9.7173,9.9981,10.4405,10.6905,10.9406,11.311,11.4984,11.6484,11.86,11.9408,12.01,12.11,12.2408,12.3601,12.4421,12.6294,12.7909,12.8794,12.7986,12.7294,12.7101,12.7909,12.8486,12.8909,12.9679,12.991,12.941,13.0679,13.041,12.8217,12.8986,12.8794,12.7602,12.7101,12.6717,12.6281,12.5794,12.5178,12.4293,12.3485,12.1985,12.0292,11.9908,11.9485,11.91,11.91,11.86,11.7792,11.7792,11.71,11.5918,11.4714,11.3099,11.1714,11.1714,11.1098,11.0291,10.979,10.9406,10.8983,10.8098,10.7598,10.7098,10.629,10.6097,10.6097,10.5905,10.5905,10.602,10.679,10.7713,10.8713,10.9906,10.9906,10.979,11.0291,10.8203,10.6087,10.502,10.3712,10.2404,10.1212,10.0212,9.9567,9.9567,9.9567,9.975,10.0212,10.0712,10.0981,10.0981,10.0519,10.0096,9.9606,9.9067,9.8634,9.825,9.825,9.8096,9.775,9.775,9.7904,9.825,9.825,9.8634,9.9336,9.949,9.8913,9.2095,9.3749,9.5403,9.8211,10.1481,10.4789,10.779,11.0791,11.3791,11.6907,11.8715,12.0408,12.2305,12.3216,12.3909,12.4793,12.6409,12.7678,12.8294,12.991,13.0987,13.1179,13.0987,13.0602,12.9987,13.0294,13.0487,13.0487,13.1679,13.1987,13.091,13.241,13.2295,12.9987,13.0487,13.041,12.9602,12.8909,12.8486,12.8205,12.7409,12.6717,12.6101,12.4986,12.3293,12.1293,12.1293,12.0908,12.01,12.01,11.9485,11.8484,11.8484,11.7984,11.71,11.6292,11.4907,11.3407,11.3407,11.2906,11.2022,11.1214,11.0714,11.0406,10.9483,10.9098,10.879,10.8213,10.7905,10.7598,10.6895,10.679,10.679,10.701,10.8213,10.9598,11.0714,11.0906,11.0983,11.1395,10.929,10.7213,10.651,10.5213,10.3905,10.3097,10.1904,10.0991,10.0491,10.0596,10.1096,10.1904,10.2597,10.2981,10.2981,10.2404,10.1789,10.1183,10.0606,9.9981,9.9519,9.9712,9.9635,9.9173,9.9365,9.9596,9.9865,9.9865,9.9981,10.0212,10.0606,10.0491,9.3403,9.548,9.8211,10.1597,10.502,10.8598,11.2791,11.5099,11.7111,11.9677,12.0908,12.2305,12.4793,12.5293,12.6409,12.9717,13.1679,13.2808,13.2808,13.4295,13.4718,13.3115,13.2192,13.1679,13.1602,13.091,13.0487,13.0487,13.2795,13.3487,13.1795,13.3295,13.3487,13.1679,13.1602,13.1295,13.0487,13.041,12.9987,12.9217,12.8282,12.7782,12.7794,12.6101,12.4909,12.3985,12.3985,12.3485,12.2793,12.2793,12.1793,12.0216,12.0216,11.9715,11.8908,11.8023,11.6715,11.5215,11.5215,11.4714,11.3791,11.2906,11.2088,11.1291,11.0406,10.9598,10.8906,10.8906,10.829,10.7713,10.7713,10.7713,10.7905,10.8598,10.9483,11.0598,11.2291,11.2599,11.2406,11.1588,11.0714,10.929,10.678,10.5713,10.4789,10.3982,10.3789,10.3212,10.152,10.202,10.2904,10.3712,10.3789,10.3915,10.3915,10.3789,10.3789,10.3789,10.3799,10.2981,10.1279,10.202,10.1712,10.0106,10.0789,10.1587,10.252,10.252,10.2904,10.3712,10.2904,10.252,9.6557,9.8519,10.1019,10.4982,10.8098,11.1214,11.4791,11.6484,11.81,12.06,12.142,12.2177,12.4216,12.5909,12.7602,12.941,13.2487,13.4911,13.5411,13.6988,13.7219,13.4911,13.341,13.2295,13.1795,13.1487,13.1295,13.1295,13.2603,13.291,13.1795,13.2795,13.291,13.1679,13.1679,13.1602,13.1295,13.0794,13.041,13.0102,12.9217,12.8486,12.7897,12.6794,12.5794,12.4909,12.4409,12.3601,12.2908,12.2908,12.1908,12.0292,12.0292,11.9485,11.8215,11.7907,11.7407,11.6792,11.5715,11.5495,11.5407,11.3984,11.3791,11.3791,11.2291,11.1714,11.1214,11.0098,10.9598,10.9213,10.8598,10.8482,10.8598,10.879,10.9598,11.0483,11.1714,11.1895,11.2022,11.2203,11.1214,10.9906,10.9098,10.779,10.629,10.4905,10.4212,10.3712,10.3097,10.3289,10.3789,10.4597,10.4723,10.4905,10.552,10.5597,10.529,10.4713,10.5213,10.4789,10.3097,10.3789,10.3712,10.2597,10.2904,10.3212,10.3482,10.3482,10.3597,10.3905,10.3597,10.3482,9.9481,10.1597,10.4087,10.8406,11.0983,11.3291,11.6676,11.76,11.8484,12.11,12.142,12.1677,12.3408,12.5012,12.6909,12.9294,13.291,13.5911,13.7103,13.8411,13.8206,13.5411,13.3295,13.1923,13.1295,13.1295,13.141,13.1679,13.2795,13.3103,13.2179,13.3295,13.3423,13.2179,13.2192,13.1987,13.1679,13.1179,13.0794,13.0487,12.991,12.9217,12.8282,12.7794,12.7101,12.6294,12.5717,12.4793,12.3793,12.3793,12.2793,12.1216,12.1216,12.0408,11.9215,11.9215,11.8985,11.8407,11.6407,11.6303,11.6715,11.4984,11.4791,11.4984,11.3599,11.2896,11.2522,11.1406,11.0906,11.0483,10.9983,10.979,10.979,10.979,11.0291,11.0791,11.1406,11.1703,11.2088,11.2599,11.1791,11.1098,11.1098,10.9713,10.8098,10.6713,10.5982,10.5482,10.4905,10.4789,10.5213,10.629,10.6482,10.6713,10.7213,10.729,10.7098,10.6482,10.6982,10.6713,10.529,10.5982,10.5905,10.4789,10.5097,10.529,10.529,10.529,10.529,10.529,10.529,10.5097,10.202,10.4597,10.7598,11.1703,11.3483,11.4984,11.8292,11.8407,11.8407,12.0908,12.0677,12.06,12.2293,12.2793,12.4486,12.941,13.3218,13.6103,13.7809,13.8796,13.8219,13.4795,13.2218,13.0718,13.0602,13.0602,13.091,13.1602,13.3218,13.3795,13.3,13.4487,13.468,13.3115,13.3,13.2615,13.1795,13.1679,13.1295,13.0602,13.0602,13.0102,12.9294,12.9294,12.8794,12.8012,12.7897,12.6986,12.5486,12.5409,12.4409,12.2985,12.2908,12.2408,12.1689,12.1612,12.11,11.9985,11.7484,11.7215,11.7523,11.5907,11.5407,11.5215,11.4291,11.3483,11.2791,11.2791,11.2214,11.1588,11.1588,11.1588,11.1588,11.1588,11.1588,11.1588,11.1588,11.2214,11.2714,11.2703,11.2791,11.2703,11.2714,11.1406,10.9983,10.8983,10.8906,10.8406,10.6703,10.651,10.7087,10.8713,10.8906,10.8983,10.8983,10.9098,10.9098,10.9098,10.9098,10.879,10.7905,10.8598,10.829,10.6587,10.7405,10.779,10.779,10.779,10.779,10.779,10.779,10.7405,10.3905,10.679,10.9906,11.2906,11.4791,11.6292,11.7792,11.7484,11.7215,11.8484,11.81,11.7611,11.7984,12.0716,12.3716,12.6294,13.1679,13.5911,13.6988,13.9488,13.9719,13.5719,13.4603,13.3487,13.1602,13.141,13.1487,13.1679,13.2102,13.2487,13.3,13.3423,13.368,13.3987,13.3295,13.2885,13.2692,13.1987,13.1602,13.141,13.141,13.1295,13.0987,13.041,12.9987,12.9794,12.8486,12.7294,12.6294,12.5678,12.4793,12.3716,12.3101,12.2793,12.2485,12.1793,12.1497,12.11,11.9792,11.8715,11.7704,11.7292,11.6715,11.5995,11.5215,11.4791,11.4484,11.3907,11.3099,11.2511,11.3214,11.2906,11.2599,11.3214,11.2906,11.2599,11.3214,11.2511,11.2214,11.3407,11.3714,11.3291,11.2011,11.1906,11.1291,10.9213,10.9483,10.9483,10.8406,10.829,10.8406,10.8906,10.9483,11.0098,11.0791,11.1406,11.1714,11.1714,11.2291,11.2022,11.0598,11.0714,11.0291,10.929,10.879,10.8598,10.8598,10.8598,10.8906,10.9598,10.9598,10.979,10.679,10.9609,11.2406,11.4599,11.5792,11.6484,11.6715,11.5984,11.5407,11.5522,11.5484,11.5291,11.4907,11.7715,12.11,12.4293,12.9602,13.4103,13.6488,13.9412,13.9989,13.6488,13.5719,13.4795,13.2987,13.2795,13.2987,13.3295,13.2679,13.2692,13.3487,13.391,13.4295,13.4795,13.4411,13.368,13.3,13.2102,13.1679,13.1679,13.1679,13.1679,13.1679,13.1179,13.0794,13.041,12.9102,12.7986,12.7217,12.6294,12.5486,12.4716,12.4601,12.3909,12.2908,12.3216,12.2612,12.16,12.1908,12.06,11.8792,11.8011,11.7484,11.6907,11.6099,11.561,11.5187,11.4714,11.4214,11.3984,11.4407,11.4214,11.3984,11.4484,11.3907,11.3407,11.3907,11.3291,11.2983,11.4291,11.4907,11.4714,11.3407,11.3483,11.3214,11.1406,11.1598,11.1714,11.1214,11.0214,10.9598,11.0021,11.0791,11.1483,11.2022,11.2791,11.3291,11.3291,11.3714,11.3599,11.2599,11.2599,11.2214,11.1291,11.0483,11.0021,11.0021,11.0021,11.0483,11.1291,11.1714,11.1906,10.9906,11.2291,11.4484,11.6099,11.6495,11.6303,11.5495,11.4484,11.3599,11.2714,11.3099,11.3407,11.2406,11.4599,11.8111,12.2793,12.7294,13.1679,13.5988,13.8604,13.9296,13.718,13.6296,13.5488,13.4718,13.4718,13.4988,13.5603,13.4411,13.3987,13.4795,13.5488,13.5795,13.5719,13.5603,13.468,13.3,13.2307,13.1795,13.1679,13.1679,13.1679,13.1679,13.1679,13.1295,13.0602,12.9717,12.8909,12.8217,12.7409,12.6486,12.5794,12.6409,12.5293,12.3408,12.4716,12.3793,12.1985,12.3408,12.2408,12.0216,11.86,11.8023,11.76,11.6803,11.5995,11.5495,11.5495,11.5418,11.5291,11.5407,11.5418,11.5291,11.5407,11.4791,11.4214,11.4291,11.4291,11.4484,11.5187,11.5907,11.6176,11.5407,11.5418,11.5099,11.4099,11.4099,11.4099,11.3984,11.2099,11.0983,11.1791,11.2599,11.3022,11.3022,11.3791,11.4291,11.4291,11.4291,11.4291,11.4291,11.4214,11.3791,11.3099,11.2203,11.178,11.178,11.178,11.2203,11.3099,11.3791,11.3791,11.1791,11.3599,11.5291,11.6303,11.6495,11.6303,11.5495,11.4099,11.2714,11.1906,11.178,11.1395,10.9906,11.3407,11.7495,12.0485,12.5101,13.0102,13.4988,13.668,13.7603,13.7796,13.7694,13.7296,13.6411,13.6988,13.718,13.6603,13.7001,13.7309,13.7411,13.7617,13.7296,13.6603,13.5911,13.468,13.3,13.2885,13.241,13.1679,13.1679,13.1679,13.1679,13.1679,13.1602,13.141,13.0602,13.0217,12.9987,12.9102,12.8294,12.7397,12.6909,12.5986,12.4909,12.4486,12.3601,12.2716,12.2985,12.2293,12.1177,12.0216,11.8908,11.76,11.6803,11.6418,11.6303,11.6303,11.5792,11.5495,11.6099,11.5803,11.5495,11.6099,11.5687,11.5291,11.5907,11.611,11.5918,11.5407,11.5907,11.6176,11.5407,11.5918,11.5803,11.4214,11.4599,11.4791,11.4099,11.3599,11.3407,11.3599,11.4291,11.4791,11.4791,11.561,11.611,11.611,11.611,11.611,11.611,11.5407,11.4984,11.4907,11.3984,11.3599,11.3599,11.3599,11.3984,11.4907,11.4984,11.5291,11.3483,11.5291,11.6599,11.6484,11.6187,11.5484,11.4214,11.2599,11.0983,10.979,11.0598,11.078,10.8713,11.2099,11.5907,11.7984,12.1908,12.6409,13.1487,13.4103,13.5795,13.6603,13.7488,13.7809,13.6911,13.718,13.7603,13.8104,13.8488,13.8488,13.8117,13.8117,13.7886,13.7488,13.618,13.5103,13.4295,13.391,13.318,13.2423,13.2423,13.2102,13.1679,13.1679,13.1679,13.1679,13.0794,13.0487,13.041,12.9602,12.8986,12.8486,12.8217,12.6909,12.5293,12.4909,12.3716,12.2216,12.2216,12.1908,12.1497,12.06,11.9485,11.8215,11.6907,11.6495,11.6495,11.6495,11.6187,11.5995,11.6418,11.6187,11.5995,11.6418,11.6187,11.5995,11.6418,11.6495,11.6418,11.5995,11.6176,11.6418,11.5995,11.6176,11.6176,11.5407,11.5687,11.5803,11.5407,11.5291,11.4984,11.4099,11.4791,11.5291,11.5291,11.5995,11.6495,11.6495,11.6495,11.6495,11.6495,11.6099,11.5918,11.5918,11.5099,11.4714,11.4714,11.4714,11.4907,11.5291,11.5676,11.5918,11.4599,11.6484,11.76,11.6907,11.5984,11.4907,11.3291,11.1483,10.979,10.829,10.9511,11.0214,10.7905,11.0714,11.4099,11.5907,11.9111,12.3178,12.8717,13.191,13.4295,13.5911,13.7309,13.7911,13.7411,13.7296,13.7911,13.9219,13.9488,13.9296,13.8681,13.8502,13.8425,13.8425,13.6988,13.6219,13.6103,13.5218,13.4411,13.3487,13.3423,13.2795,13.1987,13.1987,13.191,13.1679,13.0987,13.0794,13.0679,12.9987,12.9487,12.9217,12.9217,12.7602,12.5409,12.5216,12.3716,12.1908,12.1689,12.1497,12.1177,12.0292,11.96,11.8792,11.7303,11.6599,11.6495,11.6495,11.6495,11.6495,11.6495,11.6495,11.6495,11.6495,11.6495,11.6495,11.6495,11.6495,11.6495,11.6495,11.6495,11.6495,11.6495,11.6495,11.6495,11.6495,11.6495,11.6495,11.6495,11.6495,11.5995,11.4714,11.5099,11.561,11.561,11.6099,11.6495,11.6495,11.6495,11.6495,11.6495,11.6495,11.6495,11.6495,11.5918,11.561,11.561,11.561,11.561,11.561,11.6187,11.6187,11.4599,11.6484,11.7792,11.7715,11.6484,11.511,11.4099,11.1983,10.9906,10.8983,10.8983,10.8598,10.678,10.9406,11.2522,11.4984,11.8215,12.2793,12.941,13.1295,13.341,13.7386,13.8001,13.8411,13.8988,13.9104,13.909,13.9296,13.9989,14.0412,14.0412,13.9604,13.9219,13.9219,13.8975,13.8604,13.7886,13.6988,13.6103,13.5295,13.4487,13.368,13.2885,13.2885,13.241,13.1679,13.1602,13.1602,13.1602,13.1487,13.0602,12.9217,12.9217,12.7602,12.5293,12.4486,12.3601,12.2716,12.1908,12.11,12.0292,11.9485,11.9215,11.8908,11.7984,11.71,11.6495,11.6495,11.6495,11.6495,11.6495,11.6495,11.6495,11.6495,11.6495,11.6495,11.6495,11.6495,11.6495,11.6495,11.6495,11.6495,11.6495,11.6495,11.6495,11.6495,11.6495,11.6495,11.6495,11.6495,11.6418,11.6303,11.6303,11.6418,11.6418,11.6495,11.6495,11.6495,11.6495,11.6495,11.6495,11.6495,11.6495,11.6495,11.6418,11.6418,11.6418,11.6418,11.6418,11.6418,11.6495,11.6495,11.3714,11.6484,11.8484,11.7907,11.6484,11.4907,11.3483,11.1714,10.9993,10.9098,10.929,10.929,10.8098,10.9406,11.1406,11.3407,11.5291,11.8292,12.3601,12.5101,12.7409,13.2179,13.318,13.4411,13.6796,13.6988,13.7411,13.8488,13.8911,13.9104,13.9104,13.9219,13.9296,13.9296,13.9296,13.9104,13.8796,13.8988,13.8104,13.6296,13.5988,13.4795,13.3,13.3,13.2487,13.1679,13.1679,13.1679,13.1679,13.1179,13.091,13.0602,12.8986,12.7794,12.6717,12.4793,12.3601,12.2716,12.1293,12.0908,12.092,11.9485,11.91,11.8792,11.7407,11.6803,11.6495,11.6495,11.6495,11.6495,11.6495,11.6495,11.6495,11.6495,11.6495,11.6495,11.6495,11.6907,11.71,11.6611,11.6907,11.71,11.6611,11.6495,11.6495,11.6495,11.6495,11.6495,11.6495,11.6495,11.6495,11.6495,11.6495,11.6495,11.6495,11.6495,11.6495,11.6495,11.6495,11.6495,11.6495,11.6495,11.6495,11.6495,11.6495,11.6495,11.6495,11.6495,11.6495,11.6495,11.6495,11.6495,11.1906,11.5407,11.7907,11.7792,11.6484,11.4791,11.3099,11.1598,11.0214,10.879,10.9213,10.9598,10.8713,10.9213,11.0406,11.2099,11.3483,11.5715,11.9408,12.11,12.3485,12.7602,12.8794,13.0602,13.3718,13.4911,13.618,13.8001,13.8117,13.8117,13.8117,13.8604,13.8911,13.8911,13.9219,13.9296,13.9296,13.9912,13.9219,13.718,13.718,13.5924,13.341,13.341,13.2795,13.1679,13.1679,13.1679,13.1679,13.1102,13.091,13.0794,12.8986,12.7986,12.7294,12.4986,12.3716,12.2985,12.1293,12.0908,12.0985,11.9792,11.91,11.8484,11.7292,11.6676,11.6495,11.6495,11.6495,11.6495,11.6495,11.6495,11.6611,11.6792,11.6907,11.6984,11.7176,11.7792,11.7984,11.7407,11.76,11.7715,11.7292,11.6792,11.6611,11.6792,11.6688,11.6495,11.6495,11.6495,11.6495,11.6495,11.6495,11.6495,11.6495,11.6495,11.6495,11.6495,11.6495,11.6495,11.6495,11.6495,11.6495,11.6495,11.6495,11.6495,11.6495,11.6495,11.6495,11.6495,11.6495,11.6418,10.9301,11.2714,11.5715,11.7407,11.6484,11.4791,11.3099,11.2099,11.0791,10.8213,10.8406,10.8713,10.7905,10.8406,10.9483,11.1203,11.3599,11.6176,11.8792,12.1293,12.3485,12.5216,12.6178,12.7678,13.0294,13.3603,13.618,13.8001,13.8117,13.8117,13.8117,13.8117,13.8117,13.8117,13.8911,13.9296,13.9296,13.9296,13.8911,13.8117,13.8117,13.6796,13.4295,13.4295,13.3295,13.1679,13.1679,13.1679,13.1679,13.1679,13.0718,12.9217,12.9217,12.8217,12.6486,12.4716,12.4101,12.3793,12.2189,12.0985,12.0292,12.0292,11.9215,11.7792,11.7792,11.7215,11.6495,11.6495,11.6495,11.6495,11.6495,11.6495,11.6676,11.76,11.7792,11.8023,11.8908,11.91,11.91,11.91,11.8407,11.81,11.8908,11.76,11.6792,11.7715,11.71,11.6495,11.6495,11.6495,11.6495,11.6495,11.6495,11.6495,11.6495,11.6495,11.6495,11.6495,11.6495,11.6495,11.6495,11.6495,11.6495,11.6495,11.6495,11.6495,11.6495,11.6495,11.6495,11.6495,11.6495,11.611,10.5405,10.879,11.1791,11.1714,11.1791,11.1417,10.9713,10.9983,11.0214,10.879,10.9213,10.9906,11.0214,10.9983,11.0483,11.2791,11.3907,11.5099,11.6984,11.8484,12.0716,12.4101,12.8409,13.1307,13.2102,13.368,13.5103,13.618,13.6296,13.6603,13.718,13.718,13.7488,13.8117,13.8911,13.9296,13.9296,13.9912,13.9488,13.8117,13.8117,13.6796,13.4295,13.4295,13.3295,13.1679,13.1679,13.1679,13.1602,13.0487,12.9987,12.991,12.8179,12.7486,12.7294,12.5601,12.4601,12.3909,12.2908,12.1908,12.0985,11.9908,11.91,11.8484,11.7292,11.6676,11.6495,11.6495,11.6495,11.6495,11.6495,11.6495,11.6676,11.76,11.7792,11.8011,11.8908,11.9485,11.9792,11.9215,11.9292,11.9408,11.91,11.86,11.8407,11.86,11.8484,11.8292,11.8292,11.7792,11.76,11.8215,11.7176,11.6495,11.6495,11.6495,11.6495,11.6495,11.6495,11.6495,11.6495,11.6495,11.6495,11.6495,11.6495,11.6495,11.6495,11.6495,11.6495,11.6495,11.6495,11.6418,10.2904,10.579,10.8493,10.9213,10.979,10.9906,10.8906,10.9713,11.0291,10.879,10.9098,10.979,11.0021,10.9906,11.0291,11.2291,11.3099,11.3984,11.5407,11.6907,11.9292,12.3216,12.7986,13.1179,13.1487,13.291,13.4295,13.5411,13.5488,13.5911,13.6796,13.6796,13.6988,13.7617,13.8104,13.8411,13.8411,13.9181,13.9104,13.8117,13.7809,13.6603,13.4718,13.4103,13.2987,13.1679,13.1679,13.1679,0.0,13.0217,12.9794,12.9794,12.7909,12.7294,12.7294,12.5909,12.5101,12.4409,12.3293,12.2485,12.1908,12.0485,11.96,11.8792,11.6984,11.6495,11.6495,11.6495,11.6495,11.6495,11.6495,11.6715,11.7215,11.81,11.8484,11.8985,11.9908,12.0408,12.06,12.01,12.0216,12.0216,12.01,11.9485,11.9215,11.9485,11.9292,11.91,11.91,11.8292,11.8023,11.86,11.7292,11.6495,11.6495,11.6495,11.6495,11.6495,11.6495,11.6495,11.6495,11.6495,11.6495,11.6495,11.6495,11.6495,11.6495,11.6495,11.6495,11.6495,11.6495,11.6495,0.0,10.3482,10.5492,10.8685,10.9686,10.979,10.9801,11.0598,0.0,10.8213,10.829,10.8713,10.7905,10.8406,10.9213,11.0109,11.1598,11.2896,11.3907,11.6484,11.9523,12.2908,12.6217,12.8486,12.9294,13.1487,13.3603,13.5295,13.5411,13.5795,13.6796,13.6796,13.6796,13.6911,13.6796,13.6796,13.6796,13.7488,13.7911,13.8001,13.718,13.6296,13.5411,13.3795,13.2615,13.1679,13.1679,13.1679,13.1602,13.0794,12.991,12.9102,12.8217,12.7409,12.6614,12.5794,12.5409,12.5101,12.3485,12.2908,12.2716,12.1793,12.0408,11.8715,11.71,11.6484,11.6495,11.6495,11.6495,11.6495,11.6495,11.71,11.8023,11.8908,11.9792,12.06,12.1485,12.1689,12.1689,12.1689,12.0985,12.06,12.1497,12.0292,11.9485,12.0292,11.9792,11.9408,11.9408,11.86,11.81,11.8215,11.7292,11.6688,11.6803,11.6611,11.6495,11.6495,11.6495,11.6495,11.6495,11.6495,11.6495,11.6495,11.6495,11.6495,11.6495,11.6495,11.6495,11.6495,11.6495,11.6495,9.8327,0.0,10.1491,10.2299,10.4415,10.6097,0.0,10.7482,10.9213,10.7982,10.829,10.879,10.8713,10.879,10.9213,11.0109,11.1098,11.2291,11.3791,11.8985,12.3589,12.6397,12.9102,13.091,13.1102,13.1679,13.2679,13.4487,13.4603,13.5488,13.7694,13.718,13.7103,13.7809,13.7103,13.6796,13.6796,13.6296,13.6411,13.7103,13.6911,13.5988,13.4603,13.4218,13.318,13.1679,13.1679,13.1679,13.1602,13.0102,12.941,12.9102,12.7602,12.6921,12.669,12.6498,12.5601,12.4293,12.3985,12.2985,12.1793,12.0908,11.9485,11.8023,11.76,11.6984,11.6495,11.6495,11.6495,11.6495,11.6495,11.71,11.8023,11.8908,12.0216,12.1485,12.2408,12.2601,12.2601,12.2601,12.1908,12.142,12.1612,12.1304,12.11,12.1304,12.1716,12.2024,12.2024,12.1216,12.0985,12.16,11.9792,11.8715,11.9408,11.76,11.6495,11.6495,11.6495,11.6495,11.6495,11.6495,11.6495,11.6495,11.6495,11.6495,11.6495,11.6495,11.6495,11.6495,11.6495,11.6495,9.7788,9.9365,10.0789,10.1597,10.3789,10.5713,10.5713,10.6713,10.7521,10.6713,10.6905,10.6982,10.6713,10.7213,10.8021,10.8906,11.0098,11.2214,11.5792,12.0793,12.5216,12.8089,13.041,13.1679,13.1679,13.1679,13.241,13.4218,13.4295,13.5411,13.8001,13.7694,13.7603,13.8117,13.6911,13.6411,13.6796,13.5911,13.5911,13.6796,13.5603,13.4795,13.4295,13.3487,13.2603,13.1679,13.1679,13.1679,13.1602,13.0294,12.9794,12.9602,12.7909,12.7294,12.7217,12.6794,12.6101,12.5216,12.4409,12.2985,12.1497,12.06,11.9408,11.8407,11.8407,11.7484,11.6495,11.6495,11.6495,11.6611,11.6984,11.7715,11.86,11.9485,12.06,12.1677,12.2216,12.2293,12.2293,12.2293,12.1908,12.1612,12.1612,12.1612,12.1677,12.21,12.2293,12.2408,12.2781,12.1793,12.1177,12.1716,12.01,11.91,11.91,11.7907,11.71,11.71,11.6676,11.6495,11.6495,11.6495,11.6495,11.6495,11.6495,11.6495,11.6495,11.6495,11.6495,11.6495,11.6495,11.6676,9.8519,10.0519,10.2279,10.3405,10.5213,10.6703,10.7213,10.679,10.6213,10.529,10.4992,10.4713,10.4212,10.5405,10.6713,10.7598,10.9406,11.2791,11.8484,12.21,12.5409,12.8794,13.0602,13.1602,13.1679,13.1679,13.241,13.4218,13.4411,13.5488,13.8001,13.8117,13.8001,13.7886,13.6296,13.5795,13.6411,13.5603,13.5603,13.6411,13.418,13.3487,13.4103,13.2603,13.1795,13.1679,13.1679,13.1679,13.1602,13.0794,13.0487,13.0294,12.8602,12.7897,12.7782,12.6986,12.6601,12.6306,12.4486,12.2908,12.1497,12.0716,11.9908,11.9292,11.9292,11.8215,11.6907,11.6907,11.6803,11.6907,11.7792,11.86,11.9485,12.01,12.1177,12.1908,12.1793,12.1985,12.21,12.1985,12.1908,12.1793,12.1793,12.1793,12.1985,12.2793,12.2485,12.2408,12.3216,12.1908,12.0908,12.0908,11.9985,11.9215,11.8407,11.81,11.8023,11.8023,11.71,11.6495,11.6495,11.6495,11.6495,11.6495,11.6495,11.6495,11.6495,11.6495,11.6611,11.6676,11.6676,11.7215,9.9452,10.2712,10.5202,10.3289,10.5213,10.7098,10.579,10.5982,10.6213,10.529,10.4607,10.4299,10.4789,10.5713,10.6713,10.7598,11.0906,11.4984,11.9485,12.2408,12.5409,12.8794,13.0102,13.0987,13.1602,13.1679,13.241,13.4218,13.4911,13.6103,13.8001,13.8117,13.7809,13.6988,13.5988,13.5218,13.4718,13.3795,13.3795,13.4718,13.4295,13.3795,13.3192,13.2923,13.241,13.1679,13.1679,13.1679,13.1602,13.0794,13.0487,13.0294,12.8602,12.7897,12.7782,12.6986,12.6178,12.5409,12.3716,12.2408,12.1612,12.1408,12.0793,12.01,12.01,11.9485,11.8715,11.8715,11.8215,11.7792,11.8715,11.9485,12.01,12.0292,12.1985,12.3485,12.2793,12.3793,12.4601,12.3909,12.3216,12.2716,12.2716,12.2716,12.2716,12.2908,12.3985,12.4909,12.4986,12.4101,12.3485,12.3485,12.21,12.1189,12.0985,11.9715,11.8908,11.8908,11.7407,11.6495,11.6495,11.6495,11.6495,11.6495,11.6495,11.6495,11.6495,11.6495,11.6907,11.76,11.76,11.81,9.8365,10.1481,10.4289,10.3982,10.6905,10.9511,10.8713,10.779,10.6713,10.5405,10.4492,10.3982,10.4405,10.5097,10.6597,10.929,11.3291,11.7215,12.0485,12.3601,12.6601,12.9602,13.0602,13.1295,13.1679,13.1679,13.241,13.4218,13.4603,13.5603,13.7296,13.7796,13.7488,13.6103,13.5719,13.5103,13.4295,13.2987,13.2679,13.3603,13.3103,13.291,13.3,13.25,13.2295,13.2423,13.191,13.1679,13.1679,13.1295,13.1102,13.0987,12.9794,12.8986,12.8409,12.7178,12.6101,12.5293,12.4486,12.3408,12.2293,12.2293,12.1408,12.0408,12.0908,12.01,11.9292,12.0216,11.9485,11.8715,11.9485,11.9985,12.0408,12.0908,12.2293,12.3408,12.2985,12.3793,12.4601,12.4216,12.3485,12.2908,12.2908,12.2908,12.2908,12.2908,12.3601,12.3985,12.3985,12.3293,12.2716,12.2716,12.2112,12.1177,12.0292,11.9485,11.8715,11.7792,11.6907,11.6495,11.6495,11.6495,11.6495,11.6495,11.6495,11.6676,11.7215,11.7215,11.7715,11.8484,11.8484,11.8985,9.8365,10.0904,10.3482,10.4982,10.7905,11.0511,11.128,10.9406,10.7098,10.6213,10.5213,10.4482,10.4789,10.579,10.7905,11.2022,11.5715,11.91,12.1793,12.4805,12.7602,13.0179,13.0987,13.1487,13.1679,13.1679,13.2295,13.391,13.4218,13.4911,13.6103,13.718,13.6911,13.4988,13.5103,13.4718,13.3718,13.241,13.2102,13.3,13.2295,13.2487,13.3295,13.2603,13.2679,13.3308,13.241,13.191,13.1679,13.1679,13.1679,13.1602,13.0794,12.9794,12.8717,12.7178,12.5986,12.5101,12.5101,12.3985,12.2601,12.2793,12.1908,12.0793,12.1908,12.0985,11.9985,12.1485,12.0793,11.9792,12.0408,12.06,12.0793,12.1408,12.2293,12.2908,12.2908,12.3716,12.4293,12.4101,12.3601,12.3101,12.2897,12.2908,12.2985,12.3216,12.3216,12.3293,12.3485,12.2601,12.1793,12.16,12.142,12.06,11.8908,11.8792,11.81,11.6611,11.6495,11.6495,11.6495,11.6495,11.6495,11.6495,11.6676,11.71,11.7792,11.8023,11.8523,11.9408,11.9408,11.9792,10.1597,10.3482,10.5097,10.6097,10.651,10.7587,11.078,10.8895,10.6895,10.829,10.729,10.6521,10.729,10.9406,11.2214,11.561,11.7792,12.0216,12.3485,12.5486,12.7602,13.0179,13.0602,13.091,13.1602,13.1679,13.2102,13.3,13.3795,13.4411,13.4487,13.5988,13.5795,13.3308,13.3987,13.3603,13.191,13.1795,13.2102,13.3,13.2923,13.341,13.4218,13.4103,13.4103,13.4218,13.3295,13.241,13.1679,13.1679,13.1679,13.1602,13.0794,12.9487,12.7897,12.6986,12.5601,12.4216,12.4216,12.3101,12.1793,12.2601,12.2293,12.1793,12.3408,12.2716,12.16,12.2485,12.21,12.142,12.1497,12.1485,12.1485,12.1612,12.2293,12.2908,12.2908,12.4216,12.5101,12.4293,12.4101,12.3793,12.3024,12.2908,12.3216,12.3909,12.3985,12.4293,12.5101,12.3793,12.2485,12.1689,12.0908,11.9715,11.8011,11.7907,11.7484,11.6611,11.6495,11.6495,11.6495,11.6495,11.6495,11.6495,11.7292,11.7704,11.7792,11.86,11.9408,12.0216,12.0216,12.0677,9.9981,10.1904,10.3789,10.4597,10.602,10.8098,11.1522,11.1714,11.1291,11.1906,11.1098,11.0291,11.0098,11.1714,11.3791,11.6099,11.9292,12.2293,12.4601,12.7294,12.9602,13.1102,13.1179,13.1602,13.241,13.25,13.291,13.368,13.4103,13.4103,13.3487,13.4603,13.4603,13.3,13.3295,13.341,13.3295,13.2179,13.2102,13.3,13.3,13.368,13.4988,13.4487,13.4295,13.4295,13.341,13.25,13.1679,13.1679,13.1679,13.1602,13.0794,12.9794,12.8602,12.7794,12.6717,12.5601,12.5101,12.4101,12.3101,12.2985,12.2293,12.1689,12.2408,12.21,12.1689,12.1985,12.1908,12.1612,12.1612,12.1985,12.2293,12.1677,12.2601,12.3485,12.3024,12.4216,12.5101,12.4293,12.4101,12.3793,12.3024,12.2908,12.2793,12.2601,12.2985,12.3293,12.3113,12.1985,12.1216,12.0793,11.96,11.8484,11.7907,11.7292,11.6907,11.6495,11.6984,11.7292,11.7292,11.7292,11.76,11.81,11.7907,11.8292,11.9408,11.9715,12.0292,12.11,12.11,12.1304,9.9221,10.0712,10.2404,10.3289,10.5597,10.8521,11.1588,11.2983,11.3791,11.4599,11.3907,11.2896,11.2406,11.3483,11.5099,11.7292,12.0793,12.3985,12.5909,12.8717,13.0794,13.1602,13.191,13.2179,13.2615,13.3115,13.341,13.3487,13.3718,13.3487,13.2603,13.341,13.3487,13.2615,13.2885,13.318,13.3487,13.2295,13.2102,13.3,13.3,13.391,13.5488,13.5218,13.5103,13.4988,13.391,13.291,13.2102,13.1795,13.1679,13.1602,13.0487,12.9717,12.9102,12.7909,12.6986,12.6178,12.5293,12.4409,12.3601,12.3101,12.2293,12.1689,12.2216,12.2216,12.21,12.2293,12.2408,12.2293,12.21,12.2216,12.2408,12.21,12.2716,12.3216,12.2985,12.3985,12.4716,12.3909,12.3909,12.3793,12.2716,12.2485,12.2408,12.21,12.2293,12.2408,12.21,12.0985,12.01,11.96,11.8215,11.7407,11.7407,11.6792,11.6495,11.6495,11.7292,11.7792,11.7792,11.81,11.8484,11.91,11.8792,11.9215,12.0292,12.06,12.0985,12.1612,12.1612,12.1612,10.0106,10.0712,10.151,10.2404,10.5213,10.8406,11.0895,11.2088,11.3407,11.5995,11.5215,11.3984,11.3984,11.4791,11.6407,11.9792,12.2408,12.4986,12.7512,12.941,13.0794,13.1602,13.25,13.2692,13.1795,13.3295,13.3603,13.191,13.2487,13.2615,13.1795,13.2487,13.2615,13.1679,13.2487,13.2615,13.1679,13.1679,13.2102,13.3,13.3,13.3923,13.5488,13.6411,13.6796,13.668,13.4988,13.3795,13.2923,13.2102,13.1679,13.1487,12.991,12.9217,12.8986,12.7294,12.6178,12.5293,12.4409,12.3601,12.2908,12.2908,12.2293,12.1908,12.3601,12.3485,12.3101,12.3909,12.4101,12.3909,12.3101,12.2293,12.1793,12.2716,12.2216,12.1793,12.2716,12.3485,12.3909,12.3024,12.3524,12.3601,12.1908,12.1612,12.1908,12.2793,12.2216,12.1908,12.2793,12.1408,11.96,11.8023,11.6984,11.6495,11.6495,11.6495,11.6495,11.6495,11.7292,11.7792,11.7792,11.86,11.91,11.91,11.9908,12.0292,12.0292,12.1177,12.1612,12.1612,12.1612,12.1612,9.9183,10.0212,10.151,10.2404,10.6097,10.9983,11.1906,11.3483,11.5291,11.7792,11.7907,11.76,11.76,11.7792,11.8484,11.9985,12.2985,12.5486,12.6909,12.8986,13.0987,13.241,13.2307,13.2487,13.341,13.341,13.341,13.3487,13.318,13.2885,13.2615,13.2307,13.2179,13.2615,13.2307,13.2307,13.2615,13.1987,13.1795,13.2102,13.2692,13.3603,13.4718,13.4911,13.4988,13.4988,13.391,13.318,13.2923,13.2102,13.1679,13.1602,13.0487,12.9717,12.9102,12.8602,12.7486,12.6306,12.5986,12.4986,12.3716,12.3101,12.2293,12.1689,12.2177,12.2177,12.2216,12.2985,12.3293,12.3485,12.4409,12.3601,12.2408,12.21,12.2293,12.2408,12.21,12.3101,12.3716,12.2293,12.3101,12.3601,12.1908,12.1612,12.1689,12.1908,12.1804,12.1485,12.11,12.01,11.8985,11.7907,11.6984,11.6495,11.6495,11.6495,11.6495,11.6495,11.7292,11.81,11.8715,11.8985,11.9715,12.0793,12.0485,12.06,12.1177,12.1497,12.1908,12.2485,12.1908,12.1908,9.9336,10.0481,10.2279,10.4597,10.7713,11.0983,11.4022,11.5792,11.7292,11.9215,11.96,11.9485,11.9215,11.96,12.0408,12.1216,12.4216,12.6717,12.7602,12.9602,13.1487,13.2808,13.2487,13.2603,13.368,13.3603,13.341,13.3295,13.3103,13.2795,13.25,13.1987,13.191,13.25,13.1987,13.1987,13.25,13.1987,13.1679,13.1679,13.2179,13.2795,13.3295,13.4295,13.4603,13.4295,13.341,13.2808,13.241,13.191,13.1679,13.1602,13.0794,13.0217,12.9602,12.8909,12.7986,12.6986,12.5986,12.4986,12.3909,12.2793,12.1985,12.1689,12.1985,12.2293,12.2793,12.3601,12.4101,12.4601,12.5216,12.4716,12.3716,12.2793,12.2485,12.2216,12.1677,12.2716,12.3216,12.192,12.2716,12.3216,12.1793,12.1612,12.1612,12.1612,12.1612,12.1304,12.0408,11.9908,11.9292,11.8407,11.7484,11.6984,11.6984,11.6676,11.6495,11.6495,11.6984,11.7792,11.8985,11.9408,12.01,12.11,12.0908,12.11,12.1612,12.1908,12.2408,12.2908,12.2716,12.2908,9.9952,10.1289,10.3597,10.779,10.979,11.2099,11.6984,11.8792,11.9485,12.0292,12.0485,12.0408,11.9715,12.0908,12.2293,12.2985,12.5909,12.8282,12.9102,13.0602,13.1987,13.3,13.3,13.2923,13.3115,13.368,13.341,13.191,13.25,13.2615,13.1923,13.1679,13.1679,13.1679,13.1679,13.1679,13.1679,13.1679,13.1679,13.1679,13.1679,13.1679,13.1795,13.4103,13.4795,13.3987,13.341,13.2615,13.1679,13.1679,13.1679,13.1602,13.0794,13.0487,13.0294,12.8602,12.8012,12.7589,12.5216,12.4293,12.3793,12.2293,12.1804,12.1908,12.2716,12.3485,12.4293,12.5178,12.5986,12.6409,12.5678,12.5486,12.5216,12.4409,12.2908,12.1689,12.1612,12.2293,12.2601,12.1804,12.2293,12.2601,12.1804,12.1612,12.1612,12.1612,12.1612,12.1293,12.0485,12.0292,11.9985,11.9292,11.8407,11.7907,11.7907,11.71,11.6599,11.6599,11.6484,11.7176,11.8792,11.9715,12.0292,12.0408,12.1293,12.1677,12.1677,12.2601,12.3101,12.3101,12.3793,12.4101,9.8904,10.0789,10.3482,10.7098,11.1598,11.6099,11.9908,12.0908,12.11,12.1304,12.2408,12.3216,12.3101,12.4409,12.5409,12.4909,12.7101,12.8986,12.9217,13.0102,13.1602,13.3795,13.2795,13.2487,13.391,13.2987,13.241,13.2692,13.2307,13.2179,13.2692,13.2102,13.1679,13.1679,13.1679,13.1679,13.1679,13.1679,13.1679,13.1679,13.1679,13.1679,13.1679,13.2295,13.241,13.2295,13.3487,13.3103,13.1679,13.1679,13.1679,13.1602,13.0794,13.0487,13.041,12.9294,12.8486,12.7782,12.7294,12.5794,12.3985,12.3716,12.3101,12.2716,12.2781,12.3485,12.4293,12.5178,12.5486,12.5794,12.6294,12.5909,12.5409,12.5178,12.3793,12.2408,12.1677,12.2293,12.2601,12.1804,12.2293,12.2601,12.1804,12.1612,12.1612,12.1612,12.1612,12.1485,12.1293,12.0716,12.0216,12.01,11.9292,11.8792,11.8792,11.7984,11.7484,11.7484,11.6907,11.6688,11.6984,11.8484,11.9985,12.1304,12.2216,12.2601,12.2601,12.3408,12.4216,12.4909,12.4293,12.4486,9.9442,10.1904,10.4982,11.0098,11.4291,11.7984,12.1408,12.2485,12.3101,12.4409,12.4986,12.5293,12.5293,12.6717,12.7602,12.6717,12.8409,12.9794,12.9794,13.091,13.2295,13.4103,13.3103,13.2795,13.4218,13.2718,13.191,13.2295,13.1987,13.191,13.2423,13.191,13.1679,13.1679,13.1679,13.1679,13.1679,13.1679,13.1679,13.1679,13.1679,13.1679,13.1679,13.1679,13.191,13.2295,13.2795,13.2487,13.1679,13.1679,13.1679,13.1679,13.1179,13.1102,13.091,12.9717,12.8909,12.8282,12.7101,12.5794,12.4716,12.4216,12.3793,12.3601,12.3985,12.4409,12.4986,12.6217,12.6294,12.6178,12.7101,12.6678,12.5794,12.4986,12.3793,12.2793,12.2293,12.2601,12.2601,12.1804,12.2293,12.2601,12.1804,12.1612,12.1612,12.1612,12.1612,12.1612,12.1612,12.1177,12.0908,12.0908,11.9792,11.91,11.91,11.7907,11.7215,11.7215,11.6803,11.6688,11.71,11.8407,11.9485,12.0408,12.1985,12.2908,12.2908,12.4101,12.4986,12.5409,12.5409,12.5601,9.9856,10.3097,10.729,11.3676,11.6792,11.91,12.2408,12.3716,12.4986,12.7589,12.7602,12.7101,12.7101,12.8409,12.9217,12.8717,12.991,13.0987,13.1102,13.2295,13.3487,13.4411,13.368,13.3487,13.4218,13.2987,13.1987,13.1679,13.1987,13.2102,13.191,13.2102,13.2102,13.191,13.2102,13.1987,13.1679,13.1987,13.2102,13.2102,13.2102,13.2102,13.2102,13.1987,13.2179,13.2692,13.2192,13.1795,13.1679,13.1679,13.1679,13.1679,13.1679,13.1679,13.1487,12.9794,12.9217,12.8909,12.6486,12.5486,12.5293,12.4601,12.4293,12.4486,12.5216,12.5601,12.6101,12.7512,12.7409,12.7101,12.7705,12.7294,12.6294,12.4716,12.3716,12.3024,12.2716,12.2793,12.2601,12.1804,12.2216,12.2408,12.1677,12.1612,12.1612,12.1612,12.1612,12.1612,12.1612,12.1612,12.1612,12.1612,12.0408,11.9485,11.9292,11.7907,11.6907,11.6676,11.6611,11.6907,11.7792,11.86,11.9215,11.9292,12.1716,12.2985,12.3101,12.4716,12.5486,12.5601,12.6421,12.669,9.7711,10.3097,10.9483,11.4099,11.7677,12.0716,12.3293,12.4601,12.5909,12.8486,12.8909,12.8909,12.8909,12.9679,13.0487,13.1102,13.1987,13.291,13.3718,13.3987,13.4411,13.5218,13.4603,13.4218,13.4295,13.4103,13.3295,13.1795,13.3103,13.3603,13.2885,13.3487,13.3603,13.2885,13.3603,13.3218,13.1679,13.3218,13.3987,13.3987,13.3987,13.3987,13.391,13.318,13.25,13.191,13.2487,13.241,13.1679,13.1679,13.1679,13.1679,13.1679,13.1679,13.1487,12.9794,12.9217,12.8909,12.7101,12.5986,12.5409,12.5293,12.5216,12.5216,12.5409,12.6409,12.7589,12.7782,12.7782,12.7794,12.7897,12.7294,12.6498,12.5486,12.4601,12.3485,12.21,12.2408,12.2601,12.1804,12.1689,12.1677,12.1612,12.1612,12.1612,12.1612,12.1612,12.1612,12.1612,12.1612,12.1612,12.1612,12.142,12.0997,12.0216,11.9292,11.8407,11.7715,11.6907,11.6907,11.7792,11.86,11.9408,12.01,12.1985,12.3204,12.3909,12.4909,12.5794,12.6486,12.6601,12.669,9.9942,10.4212,10.8906,11.461,11.7792,12.0292,12.2793,12.4101,12.5409,12.7897,12.8486,12.9102,13.0987,13.1987,13.291,13.368,13.418,13.468,13.5603,13.568,13.5795,13.618,13.5911,13.5488,13.4988,13.4603,13.3987,13.3218,13.391,13.4103,13.368,13.4487,13.4603,13.3795,13.4103,13.391,13.318,13.291,13.3103,13.3603,13.3103,13.3103,13.3603,13.3192,13.2808,13.241,13.2808,13.25,13.1679,13.1679,13.1679,13.1679,13.1679,13.1679,13.1487,12.9794,12.9217,12.8986,12.7294,12.6101,12.5486,12.5986,12.5794,12.5486,12.5986,12.6986,12.8012,12.8486,12.8282,12.8012,12.8486,12.7294,12.5794,12.4909,12.3985,12.3101,12.1908,12.2601,12.3485,12.3101,12.2216,12.1804,12.2216,12.2293,12.2293,12.2293,12.2293,12.2216,12.1689,12.1612,12.1612,12.1612,12.1189,12.0485,11.9715,11.8908,11.7984,11.71,11.6676,11.6907,11.7792,11.86,11.9485,12.0292,12.1985,12.3101,12.3408,12.4293,12.5101,12.5986,12.5986,12.6178,10.0404,10.352,10.6587,11.2983,11.6407,11.8908,12.16,12.3024,12.4486,12.6794,12.7589,12.8794,13.1795,13.341,13.4603,13.5411,13.5911,13.6488,13.7296,13.7411,13.7411,13.7411,13.7411,13.6988,13.5911,13.5719,13.5295,13.4718,13.4988,13.5295,13.5295,13.5795,13.5795,13.4988,13.5295,13.5103,13.3987,13.3103,13.291,13.3295,13.291,13.291,13.3295,13.3115,13.3,13.3,13.3,13.2615,13.1987,13.1795,13.1679,13.1679,13.1679,13.1602,13.1179,12.9717,12.9102,12.8717,12.7178,12.6306,12.5794,12.6486,12.6306,12.5909,12.6486,12.7294,12.8012,12.8717,12.8397,12.8012,12.8717,12.7294,12.5486,12.4409,12.3601,12.2985,12.21,12.2908,12.3793,12.3793,12.2793,12.21,12.2485,12.2601,12.2601,12.2601,12.2601,12.2293,12.1689,12.1612,12.1612,12.1612,12.0793,11.9985,11.9215,11.8292,11.7484,11.6907,11.6792,11.7292,11.8407,11.91,11.9792,12.06,12.1908,12.2716,12.2908,12.3485,12.4293,12.5409,12.5409,12.5909,9.5942,9.9087,10.2779,10.7982,11.2406,11.6418,11.9715,12.1716,12.3485,12.5216,12.6794,12.8486,13.0294,13.2603,13.4603,13.5411,13.6911,13.8181,13.9104,13.9219,13.9219,13.9219,13.9219,13.8488,13.6911,13.8104,13.7988,13.5603,13.6988,13.7886,13.7886,13.7911,13.7617,13.668,13.8219,13.7103,13.3115,13.4603,13.4911,13.4218,13.4988,13.4911,13.4218,13.341,13.3,13.3,13.3,13.3,13.2885,13.1987,13.1679,13.1679,13.1679,13.1179,13.0487,12.9487,12.8717,12.7782,12.6986,12.669,12.6601,12.669,12.669,12.6601,12.669,12.7294,12.7897,12.8012,12.7897,12.7897,12.8012,12.7294,12.6178,12.4486,12.4101,12.3793,12.2985,12.2908,12.2985,12.2985,12.2908,12.2601,12.1793,12.1689,12.1689,12.1689,12.1689,12.1689,12.1612,12.1612,12.1612,12.1612,12.0793,11.9985,11.9215,11.8292,11.7792,11.7704,11.7715,11.8484,12.01,12.0216,12.06,12.1485,12.16,12.21,12.2908,12.2897,12.3793,12.5409,12.5409,12.5909,9.6249,9.8365,10.0904,10.602,11.0098,11.3483,11.5715,11.7984,12.0408,12.3216,12.4716,12.6294,12.9102,13.2218,13.4718,13.6103,13.7296,13.8809,14.0681,14.0989,14.0989,14.0989,14.0489,13.9488,13.7796,13.8181,13.8411,13.7988,13.8488,13.9104,13.9681,13.9681,13.9104,13.7694,13.8181,13.6988,13.391,13.4911,13.5411,13.5103,13.5411,13.5103,13.4295,13.4487,13.3987,13.3,13.3,13.2692,13.2102,13.1795,13.1679,13.1679,13.1679,13.1487,13.1102,12.9717,12.8986,12.8486,12.7178,12.6294,12.5986,12.7101,12.6717,12.6101,12.7101,12.7717,12.7897,12.7897,12.7897,12.7897,12.7897,12.6909,12.5601,12.4409,12.4101,12.3985,12.3716,12.3293,12.3216,12.4293,12.3601,12.2985,12.3216,12.2793,12.2601,12.3101,12.2793,12.2408,12.2408,12.1908,12.142,12.0793,12.0985,12.06,11.9215,11.9292,11.9215,11.8715,11.86,11.91,12.0292,12.0292,12.0985,12.2408,12.2408,12.2293,12.21,12.2601,12.3485,12.4601,12.5101,12.5909,9.5557,9.7057,9.9173,10.4289,10.729,10.979,11.3214,11.5291,11.7407,12.0523,12.2704,12.4793,12.7101,13.0487,13.368,13.5603,13.7193,13.8809,14.0796,14.1489,14.1989,14.2297,14.1797,14.0912,13.9488,13.9386,13.9488,13.9719,13.9719,14.0104,14.0989,14.0489,13.9681,13.8488,13.768,13.668,13.5603,13.5295,13.5103,13.5103,13.4795,13.4411,13.391,13.4103,13.3795,13.3,13.2692,13.241,13.2102,13.1795,13.1679,13.1679,13.1679,13.141,13.0718,12.9602,12.8794,12.8217,12.7101,12.6486,12.6409,12.7512,12.7089,12.6409,12.7602,12.7717,12.7486,12.7486,12.7486,12.7486,12.7486,12.6486,12.5293,12.4716,12.4293,12.4216,12.4486,12.4101,12.3985,12.4793,12.4101,12.3485,12.3985,12.3408,12.3216,12.3985,12.3601,12.3293,12.3293,12.2601,12.1793,12.1216,12.1177,12.0677,11.96,11.9715,11.9792,11.9485,11.9485,11.9985,12.11,12.1216,12.1793,12.3293,12.3293,12.2985,12.2408,12.2985,12.3716,12.4601,12.5101,12.5909,0.0,0.0,0.0,10.2481,10.3789,10.5597,11.2214,11.3791,11.4599,11.7215,12.0985,12.3985,12.4101,12.7602,13.1218,13.3718,13.6296,13.8296,13.9219,14.0796,14.2181,14.2989,14.3105,14.2797,14.1989,14.1912,14.1604,14.0796,14.0681,14.0989,14.1912,14.0296,13.9296,13.9206,13.6796,13.6411,13.8001,13.5603,13.4411,13.4295,13.3487,13.3115,13.3,13.2179,13.2179,13.3,13.2102,13.2307,13.3,13.2102,13.1679,13.1679,13.1679,13.0718,12.9217,12.9217,12.8217,12.6806,12.6806,12.7294,12.7897,12.8012,12.7897,12.7897,12.7897,12.7409,12.669,12.669,12.669,12.669,12.669,12.6101,12.5409,12.5409,12.4793,12.4409,12.5293,12.5409,12.5216,12.4293,12.4216,12.4101,12.4101,12.3485,12.3216,12.3985,12.4101,12.4101,12.4101,12.3408,12.2908,12.2908,12.1408,12.0408,12.0292,11.96,11.9485,12.0292,12.0292,12.11,12.2781,12.2908,12.3293,12.4101,12.4101,12.4216,12.4216,12.4216,12.4601,12.5409,12.5409,12.5909,9.3133,0.0,0.0,0.0,0.0,0.0,10.6713,10.8983,11.1406,11.5215,11.7907,12.0485,12.3485,12.6601,12.9102,13.041,13.3795,13.6911,13.8988,14.1296,14.3105,14.3912,14.3489,14.2989,14.2797,14.2181,14.2297,14.3297,14.222,14.2181,14.3605,14.0912,13.8719,13.7488,13.6796,13.668,13.7193,13.6488,13.5795,13.5218,13.5603,13.4808,13.3,13.3987,13.391,13.3,13.341,13.3718,13.3795,13.2295,13.1679,13.1679,13.1679,13.1102,13.0102,13.0102,12.941,12.8486,12.8486,12.8217,12.8089,12.941,12.8486,12.7294,12.8486,12.7794,12.669,12.669,12.669,12.669,12.669,12.6486,12.6294,12.6294,12.6178,12.5986,12.6294,12.6294,12.6306,12.5986,12.5486,12.4986,12.4986,12.4293,12.4101,12.4909,12.4486,12.4293,12.4986,12.4293,12.3293,12.21,12.21,12.1716,12.0408,12.0677,12.0985,12.1177,12.1177,12.1716,12.2908,12.2908,12.3601,12.4986,12.4986,12.5409,12.5986,12.5293,12.5178,12.5409,12.5986,12.6498,9.1902,9.3172,9.4912,9.7596,0.0,0.0,10.5405,10.7598,10.9906,11.3483,11.6099,11.86,12.0985,12.4089,12.6717,12.7986,13.141,13.4795,13.7411,14.0219,14.2412,14.3297,14.3489,14.3489,14.3105,14.2412,14.2181,14.2797,14.1912,14.1604,14.2206,14.0104,13.8181,13.6796,13.6411,13.6296,13.6296,13.5603,13.5103,13.4988,13.4795,13.4103,13.3,13.3603,13.3795,13.3603,13.368,13.3987,13.4218,13.2795,13.2179,13.2179,13.1795,13.1179,13.0487,13.0487,12.991,12.9217,12.9217,12.9102,12.9102,12.9717,12.8986,12.7909,12.8486,12.7717,12.669,12.669,12.669,12.669,12.669,12.669,12.669,12.669,12.669,12.669,12.669,12.669,12.669,12.669,12.5986,12.5486,12.5909,12.5216,12.4909,12.5794,12.5486,12.5216,12.5409,12.4601,12.3601,12.2293,12.2293,12.21,12.1408,12.1485,12.1804,12.21,12.21,12.2485,12.3408,12.3716,12.4601,12.5909,12.5909,12.6178,12.669,12.6178,12.5909,12.5986,12.6498,12.669,9.0547,9.2402,9.5143,9.6903,9.8673,0.0,10.602,10.779,10.9098,11.2022,11.4907,11.71,11.76,12.0793,12.3985,12.5678,12.8794,13.2102,13.5218,13.8488,14.0989,14.1912,14.3297,14.3912,14.3297,14.2412,14.1681,14.1104,14.0796,14.0219,13.9104,13.8296,13.7617,13.668,13.5911,13.5488,13.5488,13.3987,13.3603,13.4295,13.2603,13.2179,13.2795,13.2307,13.291,13.4411,13.368,13.391,13.4603,13.3603,13.3115,13.2923,13.1987,13.1179,13.0487,13.0602,13.0102,12.941,12.941,12.991,13.041,12.9717,12.9294,12.8909,12.8205,12.7409,12.669,12.669,12.669,12.669,12.669,12.669,12.669,12.669,12.669,12.669,12.669,12.669,12.669,12.669,12.6101,12.5794,12.6614,12.6101,12.5794,12.6614,12.669,12.6421,12.5486,12.4716,12.3909,12.3024,12.2216,12.1985,12.2716,12.1985,12.1985,12.2781,12.2908,12.3293,12.4216,12.4986,12.5794,12.669,12.669,12.669,12.669,12.669,12.669,12.669,12.669,12.669,9.171,9.2479,9.3557,9.5942,9.7788,0.0,10.2904,10.4289,10.6213,11.0791,11.1714,11.2714,11.6099,11.7984,11.96,12.1293,12.4409,12.8986,13.5603,13.8911,14.1181,14.2681,14.2604,14.2912,14.3989,14.2797,14.2412,14.3605,14.2412,14.0412,13.7411,13.7103,13.668,13.5795,13.5603,13.5488,13.5488,13.5218,13.4795,13.4295,13.318,13.25,13.1987,13.3218,13.4295,13.5295,13.5795,13.6603,13.7193,13.4988,13.3603,13.2923,13.1987,13.1179,13.0602,13.1179,13.091,13.0294,13.0987,13.091,13.0602,13.1102,12.9794,12.8294,12.8794,12.7909,12.669,12.669,12.669,12.669,12.669,12.669,12.669,12.669,12.669,12.669,12.669,12.669,12.669,12.669,12.6614,12.6486,12.669,12.6614,12.6486,12.669,12.669,12.6421,12.5486,12.5293,12.4601,12.3101,12.2716,12.2408,12.1908,12.1689,12.1985,12.2781,12.2908,12.3601,12.5101,12.5293,12.5794,12.669,12.669,12.669,12.669,12.669,12.669,12.669,12.669,12.669,9.0825,9.1518,9.2826,9.4095,9.6288,0.0,0.0,10.3289,10.529,10.828,11.0021,11.1483,11.3599,11.5715,11.7984,12.0485,12.2793,12.6101,13.1602,13.5295,13.7911,13.9181,13.9681,14.0181,14.0604,13.9796,13.9681,14.0489,13.9796,13.8604,13.6911,13.6796,13.618,13.4911,13.5295,13.5103,13.4295,13.4295,13.4103,13.3603,13.2795,13.2102,13.1679,13.2603,13.3718,13.4911,13.5411,13.6296,13.7309,13.5218,13.3987,13.3487,13.2179,13.1679,13.1679,13.1679,13.141,13.1179,13.1602,13.141,13.1102,13.1102,13.0217,12.9217,12.9217,12.8294,12.7217,12.6794,12.669,12.6614,12.6178,12.6101,12.5909,12.5486,12.5409,12.5486,12.5986,12.6101,12.6178,12.6601,12.669,12.669,12.669,12.6294,12.6178,12.6601,12.6294,12.5678,12.4909,12.4793,12.4101,12.2408,12.2293,12.2293,12.2216,12.1793,12.21,12.3408,12.3485,12.4101,12.5293,12.5794,12.6306,12.669,12.669,12.669,12.669,12.669,12.669,12.669,12.669,12.6909,9.0795,9.1757,9.3633,9.3326,9.5749,9.8788,0.0,0.0,0.0,10.6597,10.878,11.0714,11.1214,11.3599,11.6484,11.9408,12.0985,12.2985,12.6024,12.9717,13.2718,13.4295,13.5603,13.6296,13.6103,13.5911,13.5988,13.6488,13.6103,13.5988,13.6488,13.618,13.5603,13.4603,13.4795,13.4411,13.3308,13.3115,13.3,13.3,13.2307,13.1987,13.1987,13.2102,13.3103,13.4487,13.4487,13.5411,13.668,13.5218,13.4603,13.4603,13.2679,13.2307,13.2692,13.2102,13.1795,13.1679,13.1679,13.1679,13.1602,13.091,13.0487,13.0102,12.9217,12.8282,12.7602,12.7101,12.6794,12.6486,12.5601,12.5409,12.5216,12.4293,12.4216,12.4486,12.5216,12.5486,12.5909,12.6614,12.669,12.669,12.669,12.6101,12.5909,12.6614,12.5986,12.5101,12.4216,12.3985,12.3293,12.1804,12.1612,12.1908,12.2601,12.2216,12.2485,12.3985,12.4293,12.4716,12.5601,12.6294,12.669,12.669,12.669,12.6806,12.6909,12.6909,12.6921,12.669,12.6921,12.7294,9.4989,9.6143,9.7711,9.6249,9.8404,10.0894,10.1202,0.0,10.3982,10.779,0.0,10.7713,10.9906,0.0,0.0,11.3522,11.628,11.9023,12.0908,12.2908,12.5909,13.0487,13.0602,13.1102,13.318,13.2679,13.318,13.5488,13.3603,13.3295,13.5488,13.418,13.3987,13.5295,13.3987,13.3603,13.4103,13.341,13.3,13.3,13.2885,13.2885,13.2885,13.368,13.4487,13.5411,13.5411,13.5911,13.668,13.5795,13.5795,13.6296,13.3808,13.241,13.191,13.2615,13.2423,13.1679,13.1679,13.1679,13.1679,13.1602,13.0602,12.9217,12.8282,12.7486,12.6986,12.7602,12.7294,12.6486,12.5601,12.5409,12.5216,12.4293,12.4716,12.5293,12.5409,12.5986,12.6614,12.669,12.669,12.669,12.669,12.6601,12.6614,12.669,12.5986,12.5101,12.4216,12.3485,12.2716,12.1689,12.1612,12.16,12.1677,12.2408,12.3101,12.3985,12.4793,12.5601,12.6486,12.6601,12.669,12.669,12.669,12.7101,12.7794,12.7794,12.7409,12.669,12.7409,12.7782,9.5566,9.6874,9.8404,9.6711,9.8481,10.0481,9.9942,10.1289,10.3097,10.4905,0.0,0.0,0.0,0.0,0.0,0.0,11.5792,11.76,11.9408,11.9792,12.16,12.6217,12.6486,12.6909,12.8409,12.8294,12.9102,13.1718,13.1295,13.1679,13.318,13.3603,13.3603,13.3295,13.3987,13.418,13.3603,13.4603,13.468,13.3795,13.3795,13.3795,13.368,13.3603,13.4295,13.5488,13.5988,13.6488,13.6796,13.6411,13.618,13.5911,13.4911,13.391,13.3103,13.2487,13.1987,13.1679,13.1679,13.1679,13.1602,13.1179,13.0487,12.9794,12.8909,12.8409,12.8102,12.7897,12.7717,12.7101,12.5717,12.5409,12.5216,12.4293,12.3985,12.4216,12.5216,12.5293,12.5486,12.6486,12.669,12.6486,12.5986,12.5909,12.6101,12.6601,12.5986,12.5293,12.4909,12.4601,12.3985,12.3101,12.3101,12.3101,12.3101,12.3408,12.3985,12.4793,12.5678,12.6486,12.7409,12.6909,12.6909,12.7409,12.7409,12.7794,12.8717,12.8717,12.8486,12.8179,12.8486,12.8909,9.6566,9.7913,9.9365,9.7442,9.8711,10.0096,9.9058,0.0,0.0,10.352,10.6213,0.0,0.0,0.0,11.3483,11.4714,0.0,11.6907,11.8215,11.7715,11.8484,12.2293,12.2908,12.3408,12.4293,12.3909,12.4793,12.7602,12.7717,12.8486,13.0179,13.1718,13.2295,13.1679,13.368,13.4295,13.3423,13.518,13.5411,13.391,13.4411,13.4487,13.4295,13.391,13.4295,13.5488,13.618,13.6296,13.6103,13.6411,13.6103,13.5488,13.5295,13.4795,13.4218,13.3103,13.2295,13.1679,13.1987,13.191,13.1602,13.0794,13.0487,13.041,12.9717,12.9217,12.8794,12.8409,12.7897,12.7217,12.5794,12.5409,12.5216,12.4293,12.3793,12.3909,12.5101,12.5101,12.5216,12.6498,12.669,12.6486,12.5909,12.5794,12.5909,12.6294,12.5794,12.5409,12.5409,12.5216,12.4793,12.4216,12.4101,12.4101,12.4101,12.4293,12.4909,12.5986,12.6909,12.7602,12.8205,12.7717,12.7717,12.8205,12.8294,12.8717,12.9602,12.9602,12.9717,12.991,12.9717,12.991,9.9365,0.0,0.0,9.9365,10.0019,10.0789,0.0,0.0,10.4289,0.0,0.0,0.0,0.0,11.2791,11.3984,11.3984,11.5407,0.0,0.0,11.5918,11.6292,11.8985,11.9908,12.0793,12.16,12.0292,12.0716,12.3985,12.1985,12.2485,12.6601,12.7717,12.9217,13.1602,13.2615,13.35,13.4295,13.4295,13.391,13.3115,13.468,13.5103,13.4295,13.5103,13.5411,13.5488,13.5488,13.5103,13.4411,13.5218,13.5488,13.5411,13.4603,13.4295,13.4411,13.5103,13.3795,13.1795,13.2692,13.241,13.1602,13.0794,13.0487,13.0487,13.0487,12.9294,12.8089,12.8909,12.7986,12.6486,12.5601,12.5409,12.5216,12.4293,12.4716,12.5293,12.5409,12.5986,12.6601,12.669,12.669,12.669,12.669,12.669,12.6421,12.5601,12.5409,12.5409,12.5409,12.4716,12.4101,12.4101,12.4101,12.4101,12.4101,12.4909,12.6101,12.7705,12.8602,12.9102,12.9217,12.9102,12.9102,12.9217,12.9217,12.9602,13.0487,13.0487,13.091,13.1602,13.0794,13.0487,0.0,0.0,10.5213,10.2097,0.0,0.0,0.0,0.0,0.0,0.0,0.0,0.0,0.0,11.2906,11.3984,11.3984,11.5407,11.6495,0.0,11.5803,11.5984,11.7984,11.7984,11.81,11.8985,11.81,11.8484,12.1408,12.0793,12.1408,12.3985,12.5986,12.7717,12.9102,13.1679,13.2923,13.2603,13.4795,13.4988,13.3,13.468,13.5411,13.5103,13.4795,13.4988,13.5488,13.6103,13.5911,13.5218,13.6603,13.6911,13.6296,13.6103,13.5603,13.4988,13.418,13.3295,13.2615,13.2885,13.241,13.1602,13.0794,13.0487,13.0487,13.0487,12.9717,12.8794,12.9102,12.8409,12.7294,12.6486,12.6306,12.6178,12.5909,12.5601,12.5601,12.6101,12.5986,12.5986,12.6614,12.7101,12.7294,12.6806,12.7602,12.7909,12.6486,12.6306,12.6306,12.6306,12.6486,12.6409,12.5909,12.6294,12.6409,12.5909,12.6601,12.7794,12.9487,12.941,12.9487,12.9987,12.9487,12.9487,12.9987,13.0102,13.0487,13.1295,13.1295,13.141,13.1679,13.141,13.1295,10.4789,10.6213,0.0,10.529,10.6097,0.0,10.452,0.0,10.8906,0.0,0.0,0.0,0.0,0.0,11.4907,11.4907,0.0,11.6303,0.0,11.5187,11.5215,11.6292,11.6215,11.6407,11.7292,11.6792,11.7111,11.8407,11.8792,11.96,12.0985,12.3793,12.5986,12.7409,13.0794,13.241,13.2192,13.468,13.4911,13.3,13.468,13.5411,13.5103,13.4795,13.5218,13.5988,13.5911,13.5603,13.5218,13.6296,13.618,13.5488,13.6103,13.5795,13.4988,13.418,13.35,13.3,13.3,13.241,13.1602,13.1102,13.091,13.091,13.091,13.0102,12.9217,12.9217,12.8409,12.7409,12.6794,12.6909,12.7101,12.6806,12.6486,12.6409,12.6601,12.6306,12.5986,12.6614,12.7294,12.7705,12.7217,12.8294,12.8717,12.7294,12.7409,12.7602,12.7602,12.7986,12.8217,12.7602,12.8102,12.8217,12.7602,12.8294,12.9294,13.041,13.0217,13.0294,13.091,13.041,13.041,13.091,13.091,13.1179,13.1679,13.1679,13.1679,13.1679,13.1679,13.1679]}]]